<?xml version="1.0" encoding="UTF-8" standalone="no" ?>
<gpx xmlns="http://www.topografix.com/GPX/1/1" xmlns:xsi="http://www.w3.org/2001/XMLSchema-instance" xsi:schemaLocation="http://www.topografix.com/GPX/1/1 http://www.topografix.com/GPX/1/1/gpx.xsd" version="1.1" creator="VisuGPX - https://www.visugpx.com">
  <metadata>
    <name>Du refuge de Bucchinera à l'Incudine</name>
    <desc><![CDATA[Trace GPS de Philippe François,
du refuge de Bucchinera à l'Incudine, Corse du Sud]]></desc>
  </metadata>
  <trk>
    <name><![CDATA[INCUDINE]]></name>
    <trkseg>
      <trkpt lat="41.82183" lon="9.14169">
        <ele>1516.14</ele>
        <time>2012-05-18T08:56:00Z</time>
      </trkpt>
      <trkpt lat="41.82183" lon="9.14169">
        <ele>1516.14</ele>
        <time>2012-05-18T08:56:04Z</time>
      </trkpt>
      <trkpt lat="41.82183" lon="9.14169">
        <ele>1515.66</ele>
        <time>2012-05-18T08:57:17Z</time>
      </trkpt>
      <trkpt lat="41.82181" lon="9.14168">
        <ele>1515.66</ele>
        <time>2012-05-18T08:58:39Z</time>
      </trkpt>
      <trkpt lat="41.8218" lon="9.14169">
        <ele>1515.66</ele>
        <time>2012-05-18T08:58:48Z</time>
      </trkpt>
      <trkpt lat="41.8218" lon="9.14169">
        <ele>1515.66</ele>
        <time>2012-05-18T08:59:19Z</time>
      </trkpt>
      <trkpt lat="41.8218" lon="9.1417">
        <ele>1515.66</ele>
        <time>2012-05-18T08:59:46Z</time>
      </trkpt>
      <trkpt lat="41.8218" lon="9.1417">
        <ele>1516.14</ele>
        <time>2012-05-18T09:00:00Z</time>
      </trkpt>
      <trkpt lat="41.8218" lon="9.14169">
        <ele>1515.66</ele>
        <time>2012-05-18T09:00:06Z</time>
      </trkpt>
      <trkpt lat="41.82181" lon="9.14164">
        <ele>1515.18</ele>
        <time>2012-05-18T09:00:11Z</time>
      </trkpt>
      <trkpt lat="41.82181" lon="9.14168">
        <ele>1515.66</ele>
        <time>2012-05-18T09:00:24Z</time>
      </trkpt>
      <trkpt lat="41.82181" lon="9.14168">
        <ele>1516.14</ele>
        <time>2012-05-18T09:00:43Z</time>
      </trkpt>
      <trkpt lat="41.8218" lon="9.14168">
        <ele>1516.14</ele>
        <time>2012-05-18T09:00:54Z</time>
      </trkpt>
      <trkpt lat="41.82181" lon="9.14169">
        <ele>1516.14</ele>
        <time>2012-05-18T09:01:16Z</time>
      </trkpt>
      <trkpt lat="41.82185" lon="9.14168">
        <ele>1516.14</ele>
        <time>2012-05-18T09:01:59Z</time>
      </trkpt>
      <trkpt lat="41.82192" lon="9.14172">
        <ele>1516.62</ele>
        <time>2012-05-18T09:02:07Z</time>
      </trkpt>
      <trkpt lat="41.82184" lon="9.14168">
        <ele>1516.62</ele>
        <time>2012-05-18T09:02:18Z</time>
      </trkpt>
      <trkpt lat="41.82189" lon="9.1417">
        <ele>1516.62</ele>
        <time>2012-05-18T09:02:22Z</time>
      </trkpt>
      <trkpt lat="41.82207" lon="9.14181">
        <ele>1514.69</ele>
        <time>2012-05-18T09:02:35Z</time>
      </trkpt>
      <trkpt lat="41.82216" lon="9.14187">
        <ele>1514.21</ele>
        <time>2012-05-18T09:02:42Z</time>
      </trkpt>
      <trkpt lat="41.82223" lon="9.14189">
        <ele>1514.21</ele>
        <time>2012-05-18T09:02:47Z</time>
      </trkpt>
      <trkpt lat="41.82232" lon="9.14191">
        <ele>1515.18</ele>
        <time>2012-05-18T09:02:55Z</time>
      </trkpt>
      <trkpt lat="41.82254" lon="9.14191">
        <ele>1517.58</ele>
        <time>2012-05-18T09:03:11Z</time>
      </trkpt>
      <trkpt lat="41.82274" lon="9.14192">
        <ele>1519.02</ele>
        <time>2012-05-18T09:03:26Z</time>
      </trkpt>
      <trkpt lat="41.8229" lon="9.14189">
        <ele>1519.98</ele>
        <time>2012-05-18T09:03:37Z</time>
      </trkpt>
      <trkpt lat="41.82296" lon="9.14185">
        <ele>1520.94</ele>
        <time>2012-05-18T09:03:42Z</time>
      </trkpt>
      <trkpt lat="41.82302" lon="9.14184">
        <ele>1521.42</ele>
        <time>2012-05-18T09:03:47Z</time>
      </trkpt>
      <trkpt lat="41.82305" lon="9.14185">
        <ele>1521.42</ele>
        <time>2012-05-18T09:03:49Z</time>
      </trkpt>
      <trkpt lat="41.82309" lon="9.14185">
        <ele>1521.9</ele>
        <time>2012-05-18T09:03:52Z</time>
      </trkpt>
      <trkpt lat="41.82315" lon="9.14188">
        <ele>1521.42</ele>
        <time>2012-05-18T09:03:58Z</time>
      </trkpt>
      <trkpt lat="41.82331" lon="9.14187">
        <ele>1521.9</ele>
        <time>2012-05-18T09:04:12Z</time>
      </trkpt>
      <trkpt lat="41.82346" lon="9.14189">
        <ele>1521.9</ele>
        <time>2012-05-18T09:04:25Z</time>
      </trkpt>
      <trkpt lat="41.82353" lon="9.14193">
        <ele>1522.87</ele>
        <time>2012-05-18T09:04:30Z</time>
      </trkpt>
      <trkpt lat="41.82361" lon="9.142">
        <ele>1523.35</ele>
        <time>2012-05-18T09:04:37Z</time>
      </trkpt>
      <trkpt lat="41.82367" lon="9.14203">
        <ele>1522.87</ele>
        <time>2012-05-18T09:04:42Z</time>
      </trkpt>
      <trkpt lat="41.82376" lon="9.14227">
        <ele>1521.9</ele>
        <time>2012-05-18T09:04:57Z</time>
      </trkpt>
      <trkpt lat="41.8238" lon="9.14254">
        <ele>1520.94</ele>
        <time>2012-05-18T09:05:12Z</time>
      </trkpt>
      <trkpt lat="41.82391" lon="9.1428">
        <ele>1520.46</ele>
        <time>2012-05-18T09:05:28Z</time>
      </trkpt>
      <trkpt lat="41.82395" lon="9.14289">
        <ele>1519.5</ele>
        <time>2012-05-18T09:05:34Z</time>
      </trkpt>
      <trkpt lat="41.824" lon="9.14301">
        <ele>1519.5</ele>
        <time>2012-05-18T09:05:41Z</time>
      </trkpt>
      <trkpt lat="41.82415" lon="9.14321">
        <ele>1519.98</ele>
        <time>2012-05-18T09:05:57Z</time>
      </trkpt>
      <trkpt lat="41.82426" lon="9.14337">
        <ele>1520.94</ele>
        <time>2012-05-18T09:06:10Z</time>
      </trkpt>
      <trkpt lat="41.8244" lon="9.14354">
        <ele>1521.9</ele>
        <time>2012-05-18T09:06:23Z</time>
      </trkpt>
      <trkpt lat="41.82448" lon="9.14376">
        <ele>1522.87</ele>
        <time>2012-05-18T09:06:36Z</time>
      </trkpt>
      <trkpt lat="41.82452" lon="9.14398">
        <ele>1525.27</ele>
        <time>2012-05-18T09:06:49Z</time>
      </trkpt>
      <trkpt lat="41.82452" lon="9.14407">
        <ele>1526.23</ele>
        <time>2012-05-18T09:06:54Z</time>
      </trkpt>
      <trkpt lat="41.82452" lon="9.14413">
        <ele>1526.23</ele>
        <time>2012-05-18T09:06:58Z</time>
      </trkpt>
      <trkpt lat="41.82459" lon="9.1444">
        <ele>1529.11</ele>
        <time>2012-05-18T09:07:14Z</time>
      </trkpt>
      <trkpt lat="41.82462" lon="9.14448">
        <ele>1530.08</ele>
        <time>2012-05-18T09:07:19Z</time>
      </trkpt>
      <trkpt lat="41.82469" lon="9.14473">
        <ele>1529.59</ele>
        <time>2012-05-18T09:07:34Z</time>
      </trkpt>
      <trkpt lat="41.82471" lon="9.14485">
        <ele>1529.59</ele>
        <time>2012-05-18T09:07:41Z</time>
      </trkpt>
      <trkpt lat="41.82473" lon="9.14489">
        <ele>1529.11</ele>
        <time>2012-05-18T09:07:44Z</time>
      </trkpt>
      <trkpt lat="41.82481" lon="9.14523">
        <ele>1530.08</ele>
        <time>2012-05-18T09:08:03Z</time>
      </trkpt>
      <trkpt lat="41.82484" lon="9.14545">
        <ele>1529.59</ele>
        <time>2012-05-18T09:08:15Z</time>
      </trkpt>
      <trkpt lat="41.82494" lon="9.14556">
        <ele>1527.67</ele>
        <time>2012-05-18T09:08:29Z</time>
      </trkpt>
      <trkpt lat="41.82496" lon="9.14558">
        <ele>1527.67</ele>
        <time>2012-05-18T09:08:58Z</time>
      </trkpt>
      <trkpt lat="41.82499" lon="9.14561">
        <ele>1528.15</ele>
        <time>2012-05-18T09:09:09Z</time>
      </trkpt>
      <trkpt lat="41.82512" lon="9.14567">
        <ele>1527.67</ele>
        <time>2012-05-18T09:09:25Z</time>
      </trkpt>
      <trkpt lat="41.82513" lon="9.14566">
        <ele>1527.67</ele>
        <time>2012-05-18T09:09:26Z</time>
      </trkpt>
      <trkpt lat="41.82515" lon="9.14559">
        <ele>1527.67</ele>
        <time>2012-05-18T09:09:39Z</time>
      </trkpt>
      <trkpt lat="41.82516" lon="9.1456">
        <ele>1528.15</ele>
        <time>2012-05-18T09:09:43Z</time>
      </trkpt>
      <trkpt lat="41.82523" lon="9.14569">
        <ele>1528.15</ele>
        <time>2012-05-18T09:09:52Z</time>
      </trkpt>
      <trkpt lat="41.82531" lon="9.14568">
        <ele>1529.59</ele>
        <time>2012-05-18T09:10:06Z</time>
      </trkpt>
      <trkpt lat="41.82544" lon="9.14568">
        <ele>1530.08</ele>
        <time>2012-05-18T09:10:19Z</time>
      </trkpt>
      <trkpt lat="41.82549" lon="9.14569">
        <ele>1530.08</ele>
        <time>2012-05-18T09:10:23Z</time>
      </trkpt>
      <trkpt lat="41.82555" lon="9.1457">
        <ele>1530.56</ele>
        <time>2012-05-18T09:10:28Z</time>
      </trkpt>
      <trkpt lat="41.82557" lon="9.14571">
        <ele>1530.56</ele>
        <time>2012-05-18T09:10:30Z</time>
      </trkpt>
      <trkpt lat="41.82574" lon="9.14577">
        <ele>1531.52</ele>
        <time>2012-05-18T09:10:44Z</time>
      </trkpt>
      <trkpt lat="41.82581" lon="9.14582">
        <ele>1532</ele>
        <time>2012-05-18T09:10:50Z</time>
      </trkpt>
      <trkpt lat="41.82584" lon="9.14585">
        <ele>1532.48</ele>
        <time>2012-05-18T09:10:53Z</time>
      </trkpt>
      <trkpt lat="41.82593" lon="9.14592">
        <ele>1532.48</ele>
        <time>2012-05-18T09:11:00Z</time>
      </trkpt>
      <trkpt lat="41.82595" lon="9.14596">
        <ele>1532.48</ele>
        <time>2012-05-18T09:11:02Z</time>
      </trkpt>
      <trkpt lat="41.82609" lon="9.14612">
        <ele>1532.96</ele>
        <time>2012-05-18T09:11:15Z</time>
      </trkpt>
      <trkpt lat="41.82625" lon="9.14617">
        <ele>1534.4</ele>
        <time>2012-05-18T09:11:27Z</time>
      </trkpt>
      <trkpt lat="41.82643" lon="9.14622">
        <ele>1536.32</ele>
        <time>2012-05-18T09:11:40Z</time>
      </trkpt>
      <trkpt lat="41.8266" lon="9.14633">
        <ele>1536.8</ele>
        <time>2012-05-18T09:11:54Z</time>
      </trkpt>
      <trkpt lat="41.82677" lon="9.14646">
        <ele>1535.84</ele>
        <time>2012-05-18T09:12:08Z</time>
      </trkpt>
      <trkpt lat="41.82679" lon="9.14649">
        <ele>1535.84</ele>
        <time>2012-05-18T09:12:11Z</time>
      </trkpt>
      <trkpt lat="41.82685" lon="9.1465">
        <ele>1535.84</ele>
        <time>2012-05-18T09:12:16Z</time>
      </trkpt>
      <trkpt lat="41.82702" lon="9.14664">
        <ele>1536.32</ele>
        <time>2012-05-18T09:12:30Z</time>
      </trkpt>
      <trkpt lat="41.82708" lon="9.14666">
        <ele>1535.84</ele>
        <time>2012-05-18T09:12:34Z</time>
      </trkpt>
      <trkpt lat="41.8272" lon="9.14674">
        <ele>1533.44</ele>
        <time>2012-05-18T09:12:43Z</time>
      </trkpt>
      <trkpt lat="41.82723" lon="9.14678">
        <ele>1532.48</ele>
        <time>2012-05-18T09:12:47Z</time>
      </trkpt>
      <trkpt lat="41.82736" lon="9.14684">
        <ele>1530.56</ele>
        <time>2012-05-18T09:12:59Z</time>
      </trkpt>
      <trkpt lat="41.8275" lon="9.14699">
        <ele>1529.59</ele>
        <time>2012-05-18T09:13:12Z</time>
      </trkpt>
      <trkpt lat="41.82754" lon="9.14705">
        <ele>1530.56</ele>
        <time>2012-05-18T09:13:22Z</time>
      </trkpt>
      <trkpt lat="41.82759" lon="9.14707">
        <ele>1530.56</ele>
        <time>2012-05-18T09:13:28Z</time>
      </trkpt>
      <trkpt lat="41.82765" lon="9.14712">
        <ele>1531.52</ele>
        <time>2012-05-18T09:13:34Z</time>
      </trkpt>
      <trkpt lat="41.82772" lon="9.14717">
        <ele>1532.48</ele>
        <time>2012-05-18T09:13:40Z</time>
      </trkpt>
      <trkpt lat="41.82784" lon="9.14724">
        <ele>1534.4</ele>
        <time>2012-05-18T09:13:50Z</time>
      </trkpt>
      <trkpt lat="41.82798" lon="9.14734">
        <ele>1536.32</ele>
        <time>2012-05-18T09:14:03Z</time>
      </trkpt>
      <trkpt lat="41.82799" lon="9.14735">
        <ele>1536.8</ele>
        <time>2012-05-18T09:14:04Z</time>
      </trkpt>
      <trkpt lat="41.8282" lon="9.14745">
        <ele>1535.84</ele>
        <time>2012-05-18T09:14:19Z</time>
      </trkpt>
      <trkpt lat="41.82825" lon="9.14747">
        <ele>1535.84</ele>
        <time>2012-05-18T09:14:23Z</time>
      </trkpt>
      <trkpt lat="41.82843" lon="9.14756">
        <ele>1538.25</ele>
        <time>2012-05-18T09:14:37Z</time>
      </trkpt>
      <trkpt lat="41.82849" lon="9.14756">
        <ele>1539.69</ele>
        <time>2012-05-18T09:14:42Z</time>
      </trkpt>
      <trkpt lat="41.82858" lon="9.14766">
        <ele>1542.57</ele>
        <time>2012-05-18T09:14:54Z</time>
      </trkpt>
      <trkpt lat="41.82859" lon="9.14766">
        <ele>1543.05</ele>
        <time>2012-05-18T09:14:55Z</time>
      </trkpt>
      <trkpt lat="41.8286" lon="9.1477">
        <ele>1543.53</ele>
        <time>2012-05-18T09:14:58Z</time>
      </trkpt>
      <trkpt lat="41.82863" lon="9.14772">
        <ele>1545.94</ele>
        <time>2012-05-18T09:15:09Z</time>
      </trkpt>
      <trkpt lat="41.82866" lon="9.14771">
        <ele>1545.94</ele>
        <time>2012-05-18T09:15:12Z</time>
      </trkpt>
      <trkpt lat="41.82873" lon="9.14776">
        <ele>1545.94</ele>
        <time>2012-05-18T09:15:18Z</time>
      </trkpt>
      <trkpt lat="41.82889" lon="9.14787">
        <ele>1546.42</ele>
        <time>2012-05-18T09:15:32Z</time>
      </trkpt>
      <trkpt lat="41.8289" lon="9.14788">
        <ele>1546.42</ele>
        <time>2012-05-18T09:15:33Z</time>
      </trkpt>
      <trkpt lat="41.82908" lon="9.14802">
        <ele>1546.42</ele>
        <time>2012-05-18T09:15:47Z</time>
      </trkpt>
      <trkpt lat="41.82927" lon="9.14807">
        <ele>1548.34</ele>
        <time>2012-05-18T09:16:00Z</time>
      </trkpt>
      <trkpt lat="41.82944" lon="9.14806">
        <ele>1548.82</ele>
        <time>2012-05-18T09:16:12Z</time>
      </trkpt>
      <trkpt lat="41.82961" lon="9.14807">
        <ele>1550.26</ele>
        <time>2012-05-18T09:16:24Z</time>
      </trkpt>
      <trkpt lat="41.82962" lon="9.14807">
        <ele>1550.26</ele>
        <time>2012-05-18T09:16:25Z</time>
      </trkpt>
      <trkpt lat="41.82966" lon="9.14812">
        <ele>1549.78</ele>
        <time>2012-05-18T09:16:30Z</time>
      </trkpt>
      <trkpt lat="41.82983" lon="9.14817">
        <ele>1551.22</ele>
        <time>2012-05-18T09:16:43Z</time>
      </trkpt>
      <trkpt lat="41.82987" lon="9.14825">
        <ele>1552.19</ele>
        <time>2012-05-18T09:16:48Z</time>
      </trkpt>
      <trkpt lat="41.82999" lon="9.14845">
        <ele>1551.71</ele>
        <time>2012-05-18T09:17:01Z</time>
      </trkpt>
      <trkpt lat="41.83007" lon="9.14863">
        <ele>1551.22</ele>
        <time>2012-05-18T09:17:12Z</time>
      </trkpt>
      <trkpt lat="41.83015" lon="9.14879">
        <ele>1552.67</ele>
        <time>2012-05-18T09:17:22Z</time>
      </trkpt>
      <trkpt lat="41.83019" lon="9.14889">
        <ele>1553.15</ele>
        <time>2012-05-18T09:17:28Z</time>
      </trkpt>
      <trkpt lat="41.83024" lon="9.149">
        <ele>1553.15</ele>
        <time>2012-05-18T09:17:35Z</time>
      </trkpt>
      <trkpt lat="41.83032" lon="9.14917">
        <ele>1552.67</ele>
        <time>2012-05-18T09:17:49Z</time>
      </trkpt>
      <trkpt lat="41.83035" lon="9.14926">
        <ele>1551.22</ele>
        <time>2012-05-18T09:18:04Z</time>
      </trkpt>
      <trkpt lat="41.83037" lon="9.14933">
        <ele>1549.3</ele>
        <time>2012-05-18T09:18:10Z</time>
      </trkpt>
      <trkpt lat="41.83037" lon="9.14939">
        <ele>1548.34</ele>
        <time>2012-05-18T09:18:14Z</time>
      </trkpt>
      <trkpt lat="41.83038" lon="9.1495">
        <ele>1547.86</ele>
        <time>2012-05-18T09:18:21Z</time>
      </trkpt>
      <trkpt lat="41.8304" lon="9.14981">
        <ele>1545.94</ele>
        <time>2012-05-18T09:18:36Z</time>
      </trkpt>
      <trkpt lat="41.8304" lon="9.14984">
        <ele>1545.94</ele>
        <time>2012-05-18T09:18:40Z</time>
      </trkpt>
      <trkpt lat="41.83048" lon="9.15009">
        <ele>1543.05</ele>
        <time>2012-05-18T09:18:55Z</time>
      </trkpt>
      <trkpt lat="41.83049" lon="9.15023">
        <ele>1540.65</ele>
        <time>2012-05-18T09:19:04Z</time>
      </trkpt>
      <trkpt lat="41.83053" lon="9.15033">
        <ele>1539.21</ele>
        <time>2012-05-18T09:19:09Z</time>
      </trkpt>
      <trkpt lat="41.83054" lon="9.15045">
        <ele>1536.32</ele>
        <time>2012-05-18T09:19:15Z</time>
      </trkpt>
      <trkpt lat="41.83063" lon="9.15069">
        <ele>1535.84</ele>
        <time>2012-05-18T09:19:29Z</time>
      </trkpt>
      <trkpt lat="41.83066" lon="9.15082">
        <ele>1537.77</ele>
        <time>2012-05-18T09:19:36Z</time>
      </trkpt>
      <trkpt lat="41.83069" lon="9.15089">
        <ele>1538.25</ele>
        <time>2012-05-18T09:19:54Z</time>
      </trkpt>
      <trkpt lat="41.83069" lon="9.1509">
        <ele>1538.25</ele>
        <time>2012-05-18T09:19:55Z</time>
      </trkpt>
      <trkpt lat="41.83071" lon="9.15099">
        <ele>1537.77</ele>
        <time>2012-05-18T09:20:02Z</time>
      </trkpt>
      <trkpt lat="41.83073" lon="9.15105">
        <ele>1537.29</ele>
        <time>2012-05-18T09:20:06Z</time>
      </trkpt>
      <trkpt lat="41.8308" lon="9.1512">
        <ele>1537.77</ele>
        <time>2012-05-18T09:20:15Z</time>
      </trkpt>
      <trkpt lat="41.83082" lon="9.15121">
        <ele>1537.77</ele>
        <time>2012-05-18T09:20:31Z</time>
      </trkpt>
      <trkpt lat="41.83082" lon="9.15121">
        <ele>1537.77</ele>
        <time>2012-05-18T09:20:42Z</time>
      </trkpt>
      <trkpt lat="41.83082" lon="9.15143">
        <ele>1536.32</ele>
        <time>2012-05-18T09:20:54Z</time>
      </trkpt>
      <trkpt lat="41.83088" lon="9.1516">
        <ele>1536.8</ele>
        <time>2012-05-18T09:21:06Z</time>
      </trkpt>
      <trkpt lat="41.83095" lon="9.15176">
        <ele>1536.8</ele>
        <time>2012-05-18T09:21:15Z</time>
      </trkpt>
      <trkpt lat="41.83098" lon="9.15181">
        <ele>1536.8</ele>
        <time>2012-05-18T09:21:19Z</time>
      </trkpt>
      <trkpt lat="41.83105" lon="9.15189">
        <ele>1536.8</ele>
        <time>2012-05-18T09:21:26Z</time>
      </trkpt>
      <trkpt lat="41.83108" lon="9.1519">
        <ele>1536.8</ele>
        <time>2012-05-18T09:21:28Z</time>
      </trkpt>
      <trkpt lat="41.83116" lon="9.15194">
        <ele>1536.8</ele>
        <time>2012-05-18T09:21:34Z</time>
      </trkpt>
      <trkpt lat="41.83118" lon="9.15196">
        <ele>1536.8</ele>
        <time>2012-05-18T09:21:36Z</time>
      </trkpt>
      <trkpt lat="41.83128" lon="9.15205">
        <ele>1536.8</ele>
        <time>2012-05-18T09:21:44Z</time>
      </trkpt>
      <trkpt lat="41.83137" lon="9.15209">
        <ele>1538.25</ele>
        <time>2012-05-18T09:21:52Z</time>
      </trkpt>
      <trkpt lat="41.83149" lon="9.15213">
        <ele>1541.61</ele>
        <time>2012-05-18T09:22:04Z</time>
      </trkpt>
      <trkpt lat="41.83162" lon="9.1522">
        <ele>1544.5</ele>
        <time>2012-05-18T09:22:14Z</time>
      </trkpt>
      <trkpt lat="41.83165" lon="9.15224">
        <ele>1544.5</ele>
        <time>2012-05-18T09:22:17Z</time>
      </trkpt>
      <trkpt lat="41.83176" lon="9.15229">
        <ele>1544.01</ele>
        <time>2012-05-18T09:22:25Z</time>
      </trkpt>
      <trkpt lat="41.83187" lon="9.1524">
        <ele>1543.53</ele>
        <time>2012-05-18T09:22:34Z</time>
      </trkpt>
      <trkpt lat="41.83196" lon="9.15244">
        <ele>1544.01</ele>
        <time>2012-05-18T09:22:42Z</time>
      </trkpt>
      <trkpt lat="41.83201" lon="9.15248">
        <ele>1544.01</ele>
        <time>2012-05-18T09:22:48Z</time>
      </trkpt>
      <trkpt lat="41.83204" lon="9.15249">
        <ele>1544.01</ele>
        <time>2012-05-18T09:22:50Z</time>
      </trkpt>
      <trkpt lat="41.83213" lon="9.15257">
        <ele>1546.42</ele>
        <time>2012-05-18T09:22:58Z</time>
      </trkpt>
      <trkpt lat="41.83231" lon="9.15275">
        <ele>1548.82</ele>
        <time>2012-05-18T09:23:11Z</time>
      </trkpt>
      <trkpt lat="41.83234" lon="9.15279">
        <ele>1549.3</ele>
        <time>2012-05-18T09:23:14Z</time>
      </trkpt>
      <trkpt lat="41.83237" lon="9.15284">
        <ele>1549.78</ele>
        <time>2012-05-18T09:23:18Z</time>
      </trkpt>
      <trkpt lat="41.83244" lon="9.15289">
        <ele>1550.26</ele>
        <time>2012-05-18T09:23:23Z</time>
      </trkpt>
      <trkpt lat="41.83248" lon="9.15291">
        <ele>1550.26</ele>
        <time>2012-05-18T09:23:25Z</time>
      </trkpt>
      <trkpt lat="41.83264" lon="9.15307">
        <ele>1548.34</ele>
        <time>2012-05-18T09:23:38Z</time>
      </trkpt>
      <trkpt lat="41.83266" lon="9.15309">
        <ele>1548.34</ele>
        <time>2012-05-18T09:23:40Z</time>
      </trkpt>
      <trkpt lat="41.83275" lon="9.15321">
        <ele>1549.3</ele>
        <time>2012-05-18T09:23:49Z</time>
      </trkpt>
      <trkpt lat="41.83287" lon="9.15336">
        <ele>1550.74</ele>
        <time>2012-05-18T09:24:00Z</time>
      </trkpt>
      <trkpt lat="41.83294" lon="9.15346">
        <ele>1551.71</ele>
        <time>2012-05-18T09:24:07Z</time>
      </trkpt>
      <trkpt lat="41.83296" lon="9.15348">
        <ele>1552.19</ele>
        <time>2012-05-18T09:24:09Z</time>
      </trkpt>
      <trkpt lat="41.8331" lon="9.1536">
        <ele>1552.67</ele>
        <time>2012-05-18T09:24:21Z</time>
      </trkpt>
      <trkpt lat="41.83314" lon="9.15364">
        <ele>1552.67</ele>
        <time>2012-05-18T09:24:25Z</time>
      </trkpt>
      <trkpt lat="41.83329" lon="9.15379">
        <ele>1552.19</ele>
        <time>2012-05-18T09:24:40Z</time>
      </trkpt>
      <trkpt lat="41.83333" lon="9.15383">
        <ele>1552.19</ele>
        <time>2012-05-18T09:24:45Z</time>
      </trkpt>
      <trkpt lat="41.83342" lon="9.15399">
        <ele>1552.67</ele>
        <time>2012-05-18T09:24:57Z</time>
      </trkpt>
      <trkpt lat="41.83344" lon="9.15402">
        <ele>1553.15</ele>
        <time>2012-05-18T09:24:59Z</time>
      </trkpt>
      <trkpt lat="41.83357" lon="9.15425">
        <ele>1552.19</ele>
        <time>2012-05-18T09:25:14Z</time>
      </trkpt>
      <trkpt lat="41.8336" lon="9.15431">
        <ele>1552.19</ele>
        <time>2012-05-18T09:25:18Z</time>
      </trkpt>
      <trkpt lat="41.83374" lon="9.15447">
        <ele>1553.15</ele>
        <time>2012-05-18T09:25:31Z</time>
      </trkpt>
      <trkpt lat="41.83378" lon="9.15454">
        <ele>1554.11</ele>
        <time>2012-05-18T09:25:36Z</time>
      </trkpt>
      <trkpt lat="41.83384" lon="9.1547">
        <ele>1555.07</ele>
        <time>2012-05-18T09:25:45Z</time>
      </trkpt>
      <trkpt lat="41.83389" lon="9.15477">
        <ele>1554.59</ele>
        <time>2012-05-18T09:25:50Z</time>
      </trkpt>
      <trkpt lat="41.83397" lon="9.15495">
        <ele>1553.63</ele>
        <time>2012-05-18T09:26:01Z</time>
      </trkpt>
      <trkpt lat="41.83402" lon="9.15508">
        <ele>1554.11</ele>
        <time>2012-05-18T09:26:15Z</time>
      </trkpt>
      <trkpt lat="41.83403" lon="9.1551">
        <ele>1553.63</ele>
        <time>2012-05-18T09:26:25Z</time>
      </trkpt>
      <trkpt lat="41.83411" lon="9.15519">
        <ele>1552.67</ele>
        <time>2012-05-18T09:26:39Z</time>
      </trkpt>
      <trkpt lat="41.83413" lon="9.15522">
        <ele>1552.19</ele>
        <time>2012-05-18T09:26:52Z</time>
      </trkpt>
      <trkpt lat="41.83417" lon="9.15532">
        <ele>1551.71</ele>
        <time>2012-05-18T09:27:07Z</time>
      </trkpt>
      <trkpt lat="41.83417" lon="9.15535">
        <ele>1551.22</ele>
        <time>2012-05-18T09:27:09Z</time>
      </trkpt>
      <trkpt lat="41.8342" lon="9.15542">
        <ele>1549.78</ele>
        <time>2012-05-18T09:27:17Z</time>
      </trkpt>
      <trkpt lat="41.83426" lon="9.15562">
        <ele>1550.26</ele>
        <time>2012-05-18T09:27:30Z</time>
      </trkpt>
      <trkpt lat="41.83428" lon="9.15581">
        <ele>1551.71</ele>
        <time>2012-05-18T09:27:40Z</time>
      </trkpt>
      <trkpt lat="41.83429" lon="9.1559">
        <ele>1552.67</ele>
        <time>2012-05-18T09:27:45Z</time>
      </trkpt>
      <trkpt lat="41.83429" lon="9.15604">
        <ele>1553.63</ele>
        <time>2012-05-18T09:27:53Z</time>
      </trkpt>
      <trkpt lat="41.83431" lon="9.15613">
        <ele>1554.11</ele>
        <time>2012-05-18T09:27:58Z</time>
      </trkpt>
      <trkpt lat="41.83431" lon="9.15636">
        <ele>1554.59</ele>
        <time>2012-05-18T09:28:11Z</time>
      </trkpt>
      <trkpt lat="41.83431" lon="9.15655">
        <ele>1555.55</ele>
        <time>2012-05-18T09:28:24Z</time>
      </trkpt>
      <trkpt lat="41.83432" lon="9.15656">
        <ele>1554.59</ele>
        <time>2012-05-18T09:28:46Z</time>
      </trkpt>
      <trkpt lat="41.83431" lon="9.15656">
        <ele>1555.07</ele>
        <time>2012-05-18T09:29:25Z</time>
      </trkpt>
      <trkpt lat="41.83424" lon="9.15654">
        <ele>1555.55</ele>
        <time>2012-05-18T09:29:36Z</time>
      </trkpt>
      <trkpt lat="41.83427" lon="9.15656">
        <ele>1556.03</ele>
        <time>2012-05-18T09:30:01Z</time>
      </trkpt>
      <trkpt lat="41.83428" lon="9.15657">
        <ele>1555.55</ele>
        <time>2012-05-18T09:30:45Z</time>
      </trkpt>
      <trkpt lat="41.83428" lon="9.15657">
        <ele>1555.55</ele>
        <time>2012-05-18T09:31:05Z</time>
      </trkpt>
      <trkpt lat="41.83433" lon="9.15655">
        <ele>1553.15</ele>
        <time>2012-05-18T09:31:09Z</time>
      </trkpt>
      <trkpt lat="41.83436" lon="9.15658">
        <ele>1551.71</ele>
        <time>2012-05-18T09:31:12Z</time>
      </trkpt>
      <trkpt lat="41.83443" lon="9.15668">
        <ele>1550.26</ele>
        <time>2012-05-18T09:31:20Z</time>
      </trkpt>
      <trkpt lat="41.8345" lon="9.1567">
        <ele>1550.74</ele>
        <time>2012-05-18T09:31:26Z</time>
      </trkpt>
      <trkpt lat="41.83454" lon="9.15673">
        <ele>1550.74</ele>
        <time>2012-05-18T09:31:30Z</time>
      </trkpt>
      <trkpt lat="41.83467" lon="9.15681">
        <ele>1550.74</ele>
        <time>2012-05-18T09:31:40Z</time>
      </trkpt>
      <trkpt lat="41.83473" lon="9.15685">
        <ele>1551.71</ele>
        <time>2012-05-18T09:31:54Z</time>
      </trkpt>
      <trkpt lat="41.83474" lon="9.15686">
        <ele>1551.71</ele>
        <time>2012-05-18T09:31:59Z</time>
      </trkpt>
      <trkpt lat="41.83476" lon="9.15688">
        <ele>1551.71</ele>
        <time>2012-05-18T09:32:01Z</time>
      </trkpt>
      <trkpt lat="41.83479" lon="9.15694">
        <ele>1551.71</ele>
        <time>2012-05-18T09:32:11Z</time>
      </trkpt>
      <trkpt lat="41.83482" lon="9.15699">
        <ele>1551.71</ele>
        <time>2012-05-18T09:32:14Z</time>
      </trkpt>
      <trkpt lat="41.83483" lon="9.15716">
        <ele>1554.11</ele>
        <time>2012-05-18T09:32:24Z</time>
      </trkpt>
      <trkpt lat="41.83484" lon="9.15723">
        <ele>1555.55</ele>
        <time>2012-05-18T09:32:28Z</time>
      </trkpt>
      <trkpt lat="41.83486" lon="9.15731">
        <ele>1556.51</ele>
        <time>2012-05-18T09:32:33Z</time>
      </trkpt>
      <trkpt lat="41.83492" lon="9.15745">
        <ele>1558.92</ele>
        <time>2012-05-18T09:32:42Z</time>
      </trkpt>
      <trkpt lat="41.83495" lon="9.15752">
        <ele>1559.88</ele>
        <time>2012-05-18T09:32:46Z</time>
      </trkpt>
      <trkpt lat="41.83503" lon="9.15772">
        <ele>1564.2</ele>
        <time>2012-05-18T09:32:59Z</time>
      </trkpt>
      <trkpt lat="41.83504" lon="9.15778">
        <ele>1565.16</ele>
        <time>2012-05-18T09:33:03Z</time>
      </trkpt>
      <trkpt lat="41.83512" lon="9.15801">
        <ele>1566.61</ele>
        <time>2012-05-18T09:33:16Z</time>
      </trkpt>
      <trkpt lat="41.83523" lon="9.15827">
        <ele>1568.53</ele>
        <time>2012-05-18T09:33:31Z</time>
      </trkpt>
      <trkpt lat="41.83524" lon="9.15834">
        <ele>1569.97</ele>
        <time>2012-05-18T09:33:35Z</time>
      </trkpt>
      <trkpt lat="41.83528" lon="9.15849">
        <ele>1570.45</ele>
        <time>2012-05-18T09:33:44Z</time>
      </trkpt>
      <trkpt lat="41.83534" lon="9.15856">
        <ele>1571.41</ele>
        <time>2012-05-18T09:33:49Z</time>
      </trkpt>
      <trkpt lat="41.83538" lon="9.15867">
        <ele>1572.85</ele>
        <time>2012-05-18T09:33:56Z</time>
      </trkpt>
      <trkpt lat="41.83547" lon="9.15885">
        <ele>1571.89</ele>
        <time>2012-05-18T09:34:10Z</time>
      </trkpt>
      <trkpt lat="41.83553" lon="9.15894">
        <ele>1572.37</ele>
        <time>2012-05-18T09:34:16Z</time>
      </trkpt>
      <trkpt lat="41.83557" lon="9.159">
        <ele>1572.85</ele>
        <time>2012-05-18T09:34:21Z</time>
      </trkpt>
      <trkpt lat="41.83566" lon="9.15911">
        <ele>1572.37</ele>
        <time>2012-05-18T09:34:29Z</time>
      </trkpt>
      <trkpt lat="41.83581" lon="9.15931">
        <ele>1575.74</ele>
        <time>2012-05-18T09:34:44Z</time>
      </trkpt>
      <trkpt lat="41.83587" lon="9.15939">
        <ele>1575.26</ele>
        <time>2012-05-18T09:34:53Z</time>
      </trkpt>
      <trkpt lat="41.83592" lon="9.15946">
        <ele>1574.78</ele>
        <time>2012-05-18T09:34:58Z</time>
      </trkpt>
      <trkpt lat="41.83594" lon="9.15951">
        <ele>1574.3</ele>
        <time>2012-05-18T09:35:01Z</time>
      </trkpt>
      <trkpt lat="41.83601" lon="9.15956">
        <ele>1573.82</ele>
        <time>2012-05-18T09:35:06Z</time>
      </trkpt>
      <trkpt lat="41.83605" lon="9.15958">
        <ele>1573.82</ele>
        <time>2012-05-18T09:35:08Z</time>
      </trkpt>
      <trkpt lat="41.83608" lon="9.15962">
        <ele>1573.82</ele>
        <time>2012-05-18T09:35:11Z</time>
      </trkpt>
      <trkpt lat="41.83613" lon="9.15967">
        <ele>1574.3</ele>
        <time>2012-05-18T09:35:15Z</time>
      </trkpt>
      <trkpt lat="41.83633" lon="9.1598">
        <ele>1574.3</ele>
        <time>2012-05-18T09:35:30Z</time>
      </trkpt>
      <trkpt lat="41.83652" lon="9.15989">
        <ele>1573.33</ele>
        <time>2012-05-18T09:35:43Z</time>
      </trkpt>
      <trkpt lat="41.83656" lon="9.15991">
        <ele>1573.82</ele>
        <time>2012-05-18T09:35:46Z</time>
      </trkpt>
      <trkpt lat="41.83677" lon="9.16002">
        <ele>1575.74</ele>
        <time>2012-05-18T09:36:02Z</time>
      </trkpt>
      <trkpt lat="41.83681" lon="9.16004">
        <ele>1575.74</ele>
        <time>2012-05-18T09:36:23Z</time>
      </trkpt>
      <trkpt lat="41.83697" lon="9.16011">
        <ele>1573.82</ele>
        <time>2012-05-18T09:36:35Z</time>
      </trkpt>
      <trkpt lat="41.83705" lon="9.16014">
        <ele>1574.3</ele>
        <time>2012-05-18T09:36:41Z</time>
      </trkpt>
      <trkpt lat="41.83712" lon="9.16018">
        <ele>1574.3</ele>
        <time>2012-05-18T09:36:46Z</time>
      </trkpt>
      <trkpt lat="41.83718" lon="9.16022">
        <ele>1574.3</ele>
        <time>2012-05-18T09:36:51Z</time>
      </trkpt>
      <trkpt lat="41.83734" lon="9.16032">
        <ele>1575.26</ele>
        <time>2012-05-18T09:37:05Z</time>
      </trkpt>
      <trkpt lat="41.83741" lon="9.16037">
        <ele>1574.78</ele>
        <time>2012-05-18T09:37:12Z</time>
      </trkpt>
      <trkpt lat="41.83757" lon="9.16048">
        <ele>1576.7</ele>
        <time>2012-05-18T09:37:26Z</time>
      </trkpt>
      <trkpt lat="41.83769" lon="9.16056">
        <ele>1577.18</ele>
        <time>2012-05-18T09:37:36Z</time>
      </trkpt>
      <trkpt lat="41.83772" lon="9.16059">
        <ele>1578.14</ele>
        <time>2012-05-18T09:37:39Z</time>
      </trkpt>
      <trkpt lat="41.83785" lon="9.16068">
        <ele>1576.7</ele>
        <time>2012-05-18T09:37:51Z</time>
      </trkpt>
      <trkpt lat="41.83793" lon="9.16075">
        <ele>1576.7</ele>
        <time>2012-05-18T09:38:02Z</time>
      </trkpt>
      <trkpt lat="41.83803" lon="9.16078">
        <ele>1576.7</ele>
        <time>2012-05-18T09:38:12Z</time>
      </trkpt>
      <trkpt lat="41.83808" lon="9.16085">
        <ele>1577.18</ele>
        <time>2012-05-18T09:38:19Z</time>
      </trkpt>
      <trkpt lat="41.83812" lon="9.16089">
        <ele>1577.18</ele>
        <time>2012-05-18T09:38:23Z</time>
      </trkpt>
      <trkpt lat="41.83817" lon="9.16091">
        <ele>1577.66</ele>
        <time>2012-05-18T09:38:26Z</time>
      </trkpt>
      <trkpt lat="41.83825" lon="9.161">
        <ele>1579.1</ele>
        <time>2012-05-18T09:38:35Z</time>
      </trkpt>
      <trkpt lat="41.83829" lon="9.16105">
        <ele>1579.58</ele>
        <time>2012-05-18T09:38:40Z</time>
      </trkpt>
      <trkpt lat="41.83833" lon="9.16109">
        <ele>1580.06</ele>
        <time>2012-05-18T09:38:44Z</time>
      </trkpt>
      <trkpt lat="41.83845" lon="9.16119">
        <ele>1579.58</ele>
        <time>2012-05-18T09:38:54Z</time>
      </trkpt>
      <trkpt lat="41.83854" lon="9.16127">
        <ele>1579.58</ele>
        <time>2012-05-18T09:39:02Z</time>
      </trkpt>
      <trkpt lat="41.83857" lon="9.16132">
        <ele>1579.1</ele>
        <time>2012-05-18T09:39:07Z</time>
      </trkpt>
      <trkpt lat="41.83859" lon="9.16134">
        <ele>1579.1</ele>
        <time>2012-05-18T09:39:09Z</time>
      </trkpt>
      <trkpt lat="41.83864" lon="9.16138">
        <ele>1578.62</ele>
        <time>2012-05-18T09:39:13Z</time>
      </trkpt>
      <trkpt lat="41.83868" lon="9.16141">
        <ele>1578.62</ele>
        <time>2012-05-18T09:39:16Z</time>
      </trkpt>
      <trkpt lat="41.83871" lon="9.16144">
        <ele>1579.1</ele>
        <time>2012-05-18T09:39:19Z</time>
      </trkpt>
      <trkpt lat="41.83874" lon="9.16147">
        <ele>1578.62</ele>
        <time>2012-05-18T09:39:22Z</time>
      </trkpt>
      <trkpt lat="41.83883" lon="9.16158">
        <ele>1578.14</ele>
        <time>2012-05-18T09:39:32Z</time>
      </trkpt>
      <trkpt lat="41.83888" lon="9.16165">
        <ele>1578.62</ele>
        <time>2012-05-18T09:39:38Z</time>
      </trkpt>
      <trkpt lat="41.8389" lon="9.16167">
        <ele>1578.62</ele>
        <time>2012-05-18T09:39:40Z</time>
      </trkpt>
      <trkpt lat="41.83903" lon="9.1618">
        <ele>1580.54</ele>
        <time>2012-05-18T09:39:53Z</time>
      </trkpt>
      <trkpt lat="41.83904" lon="9.16184">
        <ele>1580.06</ele>
        <time>2012-05-18T09:39:56Z</time>
      </trkpt>
      <trkpt lat="41.83915" lon="9.16203">
        <ele>1580.06</ele>
        <time>2012-05-18T09:40:09Z</time>
      </trkpt>
      <trkpt lat="41.83919" lon="9.16212">
        <ele>1580.06</ele>
        <time>2012-05-18T09:40:15Z</time>
      </trkpt>
      <trkpt lat="41.83924" lon="9.16216">
        <ele>1580.54</ele>
        <time>2012-05-18T09:40:19Z</time>
      </trkpt>
      <trkpt lat="41.83931" lon="9.16228">
        <ele>1581.51</ele>
        <time>2012-05-18T09:40:28Z</time>
      </trkpt>
      <trkpt lat="41.83935" lon="9.16236">
        <ele>1581.03</ele>
        <time>2012-05-18T09:40:34Z</time>
      </trkpt>
      <trkpt lat="41.83941" lon="9.16246">
        <ele>1580.54</ele>
        <time>2012-05-18T09:40:41Z</time>
      </trkpt>
      <trkpt lat="41.83946" lon="9.16252">
        <ele>1579.58</ele>
        <time>2012-05-18T09:40:46Z</time>
      </trkpt>
      <trkpt lat="41.83962" lon="9.16263">
        <ele>1581.03</ele>
        <time>2012-05-18T09:41:01Z</time>
      </trkpt>
      <trkpt lat="41.83964" lon="9.16266">
        <ele>1581.03</ele>
        <time>2012-05-18T09:41:03Z</time>
      </trkpt>
      <trkpt lat="41.83967" lon="9.16271">
        <ele>1581.99</ele>
        <time>2012-05-18T09:41:07Z</time>
      </trkpt>
      <trkpt lat="41.83972" lon="9.16279">
        <ele>1582.47</ele>
        <time>2012-05-18T09:41:13Z</time>
      </trkpt>
      <trkpt lat="41.83975" lon="9.16284">
        <ele>1582.95</ele>
        <time>2012-05-18T09:41:20Z</time>
      </trkpt>
      <trkpt lat="41.83977" lon="9.16296">
        <ele>1583.91</ele>
        <time>2012-05-18T09:41:28Z</time>
      </trkpt>
      <trkpt lat="41.8398" lon="9.16309">
        <ele>1585.35</ele>
        <time>2012-05-18T09:41:37Z</time>
      </trkpt>
      <trkpt lat="41.83981" lon="9.16313">
        <ele>1585.35</ele>
        <time>2012-05-18T09:41:40Z</time>
      </trkpt>
      <trkpt lat="41.83993" lon="9.16329">
        <ele>1585.35</ele>
        <time>2012-05-18T09:41:53Z</time>
      </trkpt>
      <trkpt lat="41.84" lon="9.16339">
        <ele>1585.83</ele>
        <time>2012-05-18T09:42:06Z</time>
      </trkpt>
      <trkpt lat="41.84001" lon="9.16342">
        <ele>1585.83</ele>
        <time>2012-05-18T09:42:15Z</time>
      </trkpt>
      <trkpt lat="41.84008" lon="9.16349">
        <ele>1585.35</ele>
        <time>2012-05-18T09:42:26Z</time>
      </trkpt>
      <trkpt lat="41.84012" lon="9.16357">
        <ele>1584.87</ele>
        <time>2012-05-18T09:42:31Z</time>
      </trkpt>
      <trkpt lat="41.84016" lon="9.16361">
        <ele>1584.39</ele>
        <time>2012-05-18T09:42:35Z</time>
      </trkpt>
      <trkpt lat="41.84032" lon="9.16374">
        <ele>1588.24</ele>
        <time>2012-05-18T09:42:47Z</time>
      </trkpt>
      <trkpt lat="41.84042" lon="9.16383">
        <ele>1592.56</ele>
        <time>2012-05-18T09:42:59Z</time>
      </trkpt>
      <trkpt lat="41.84049" lon="9.16387">
        <ele>1593.52</ele>
        <time>2012-05-18T09:43:05Z</time>
      </trkpt>
      <trkpt lat="41.84051" lon="9.16391">
        <ele>1593.52</ele>
        <time>2012-05-18T09:43:08Z</time>
      </trkpt>
      <trkpt lat="41.84055" lon="9.16397">
        <ele>1594.48</ele>
        <time>2012-05-18T09:43:13Z</time>
      </trkpt>
      <trkpt lat="41.84062" lon="9.16409">
        <ele>1594.96</ele>
        <time>2012-05-18T09:43:24Z</time>
      </trkpt>
      <trkpt lat="41.84064" lon="9.16411">
        <ele>1595.45</ele>
        <time>2012-05-18T09:43:26Z</time>
      </trkpt>
      <trkpt lat="41.84078" lon="9.1642">
        <ele>1594</ele>
        <time>2012-05-18T09:43:39Z</time>
      </trkpt>
      <trkpt lat="41.84093" lon="9.16427">
        <ele>1593.52</ele>
        <time>2012-05-18T09:43:50Z</time>
      </trkpt>
      <trkpt lat="41.84091" lon="9.16428">
        <ele>1593.52</ele>
        <time>2012-05-18T09:44:05Z</time>
      </trkpt>
      <trkpt lat="41.84091" lon="9.16429">
        <ele>1593.52</ele>
        <time>2012-05-18T09:44:12Z</time>
      </trkpt>
      <trkpt lat="41.84096" lon="9.16429">
        <ele>1593.04</ele>
        <time>2012-05-18T09:44:16Z</time>
      </trkpt>
      <trkpt lat="41.84099" lon="9.16433">
        <ele>1592.56</ele>
        <time>2012-05-18T09:44:19Z</time>
      </trkpt>
      <trkpt lat="41.84106" lon="9.1644">
        <ele>1593.04</ele>
        <time>2012-05-18T09:44:24Z</time>
      </trkpt>
      <trkpt lat="41.8411" lon="9.16452">
        <ele>1593.52</ele>
        <time>2012-05-18T09:44:32Z</time>
      </trkpt>
      <trkpt lat="41.84112" lon="9.16455">
        <ele>1593.04</ele>
        <time>2012-05-18T09:44:35Z</time>
      </trkpt>
      <trkpt lat="41.84123" lon="9.16468">
        <ele>1593.04</ele>
        <time>2012-05-18T09:44:45Z</time>
      </trkpt>
      <trkpt lat="41.84126" lon="9.16476">
        <ele>1592.56</ele>
        <time>2012-05-18T09:44:51Z</time>
      </trkpt>
      <trkpt lat="41.84127" lon="9.16478">
        <ele>1592.56</ele>
        <time>2012-05-18T09:44:53Z</time>
      </trkpt>
      <trkpt lat="41.84134" lon="9.1648">
        <ele>1592.08</ele>
        <time>2012-05-18T09:44:57Z</time>
      </trkpt>
      <trkpt lat="41.84139" lon="9.16484">
        <ele>1592.08</ele>
        <time>2012-05-18T09:45:01Z</time>
      </trkpt>
      <trkpt lat="41.84156" lon="9.16489">
        <ele>1594.96</ele>
        <time>2012-05-18T09:45:13Z</time>
      </trkpt>
      <trkpt lat="41.84162" lon="9.1649">
        <ele>1595.93</ele>
        <time>2012-05-18T09:45:17Z</time>
      </trkpt>
      <trkpt lat="41.84165" lon="9.1649">
        <ele>1595.93</ele>
        <time>2012-05-18T09:45:19Z</time>
      </trkpt>
      <trkpt lat="41.84173" lon="9.16495">
        <ele>1595.93</ele>
        <time>2012-05-18T09:45:26Z</time>
      </trkpt>
      <trkpt lat="41.84184" lon="9.16505">
        <ele>1596.89</ele>
        <time>2012-05-18T09:45:36Z</time>
      </trkpt>
      <trkpt lat="41.8419" lon="9.16507">
        <ele>1596.89</ele>
        <time>2012-05-18T09:45:40Z</time>
      </trkpt>
      <trkpt lat="41.84192" lon="9.16508">
        <ele>1596.89</ele>
        <time>2012-05-18T09:45:42Z</time>
      </trkpt>
      <trkpt lat="41.84204" lon="9.16527">
        <ele>1596.41</ele>
        <time>2012-05-18T09:45:54Z</time>
      </trkpt>
      <trkpt lat="41.84202" lon="9.16544">
        <ele>1596.89</ele>
        <time>2012-05-18T09:46:02Z</time>
      </trkpt>
      <trkpt lat="41.84201" lon="9.16559">
        <ele>1595.45</ele>
        <time>2012-05-18T09:46:10Z</time>
      </trkpt>
      <trkpt lat="41.84202" lon="9.16569">
        <ele>1594.96</ele>
        <time>2012-05-18T09:46:16Z</time>
      </trkpt>
      <trkpt lat="41.84203" lon="9.1658">
        <ele>1593.04</ele>
        <time>2012-05-18T09:46:23Z</time>
      </trkpt>
      <trkpt lat="41.84209" lon="9.16607">
        <ele>1589.2</ele>
        <time>2012-05-18T09:46:39Z</time>
      </trkpt>
      <trkpt lat="41.84211" lon="9.1661">
        <ele>1588.72</ele>
        <time>2012-05-18T09:46:41Z</time>
      </trkpt>
      <trkpt lat="41.84216" lon="9.16621">
        <ele>1588.24</ele>
        <time>2012-05-18T09:46:47Z</time>
      </trkpt>
      <trkpt lat="41.84218" lon="9.16636">
        <ele>1587.75</ele>
        <time>2012-05-18T09:46:56Z</time>
      </trkpt>
      <trkpt lat="41.84226" lon="9.16656">
        <ele>1589.2</ele>
        <time>2012-05-18T09:47:07Z</time>
      </trkpt>
      <trkpt lat="41.84236" lon="9.16672">
        <ele>1591.6</ele>
        <time>2012-05-18T09:47:18Z</time>
      </trkpt>
      <trkpt lat="41.84248" lon="9.16683">
        <ele>1593.52</ele>
        <time>2012-05-18T09:47:30Z</time>
      </trkpt>
      <trkpt lat="41.8425" lon="9.16687">
        <ele>1593.52</ele>
        <time>2012-05-18T09:47:34Z</time>
      </trkpt>
      <trkpt lat="41.84255" lon="9.16694">
        <ele>1594.48</ele>
        <time>2012-05-18T09:47:40Z</time>
      </trkpt>
      <trkpt lat="41.84269" lon="9.16708">
        <ele>1595.45</ele>
        <time>2012-05-18T09:47:52Z</time>
      </trkpt>
      <trkpt lat="41.84274" lon="9.16715">
        <ele>1596.89</ele>
        <time>2012-05-18T09:48:06Z</time>
      </trkpt>
      <trkpt lat="41.84278" lon="9.16719">
        <ele>1597.85</ele>
        <time>2012-05-18T09:48:14Z</time>
      </trkpt>
      <trkpt lat="41.84283" lon="9.16727">
        <ele>1598.33</ele>
        <time>2012-05-18T09:48:20Z</time>
      </trkpt>
      <trkpt lat="41.84294" lon="9.16742">
        <ele>1598.33</ele>
        <time>2012-05-18T09:48:32Z</time>
      </trkpt>
      <trkpt lat="41.84296" lon="9.16746">
        <ele>1598.33</ele>
        <time>2012-05-18T09:48:35Z</time>
      </trkpt>
      <trkpt lat="41.843" lon="9.1675">
        <ele>1598.81</ele>
        <time>2012-05-18T09:48:38Z</time>
      </trkpt>
      <trkpt lat="41.84301" lon="9.16752">
        <ele>1598.81</ele>
        <time>2012-05-18T09:48:40Z</time>
      </trkpt>
      <trkpt lat="41.84311" lon="9.16765">
        <ele>1599.29</ele>
        <time>2012-05-18T09:48:52Z</time>
      </trkpt>
      <trkpt lat="41.84313" lon="9.16768">
        <ele>1599.29</ele>
        <time>2012-05-18T09:48:54Z</time>
      </trkpt>
      <trkpt lat="41.84312" lon="9.16772">
        <ele>1598.81</ele>
        <time>2012-05-18T09:49:11Z</time>
      </trkpt>
      <trkpt lat="41.84313" lon="9.16771">
        <ele>1599.29</ele>
        <time>2012-05-18T09:49:34Z</time>
      </trkpt>
      <trkpt lat="41.84313" lon="9.16772">
        <ele>1598.81</ele>
        <time>2012-05-18T09:50:32Z</time>
      </trkpt>
      <trkpt lat="41.84313" lon="9.16772">
        <ele>1598.81</ele>
        <time>2012-05-18T09:54:49Z</time>
      </trkpt>
      <trkpt lat="41.84315" lon="9.16769">
        <ele>1597.37</ele>
        <time>2012-05-18T09:55:00Z</time>
      </trkpt>
      <trkpt lat="41.84319" lon="9.16771">
        <ele>1595.93</ele>
        <time>2012-05-18T09:55:03Z</time>
      </trkpt>
      <trkpt lat="41.84324" lon="9.16777">
        <ele>1595.45</ele>
        <time>2012-05-18T09:55:08Z</time>
      </trkpt>
      <trkpt lat="41.84328" lon="9.16782">
        <ele>1595.45</ele>
        <time>2012-05-18T09:55:15Z</time>
      </trkpt>
      <trkpt lat="41.84338" lon="9.16809">
        <ele>1596.41</ele>
        <time>2012-05-18T09:55:32Z</time>
      </trkpt>
      <trkpt lat="41.84341" lon="9.16816">
        <ele>1596.41</ele>
        <time>2012-05-18T09:55:37Z</time>
      </trkpt>
      <trkpt lat="41.84344" lon="9.16825">
        <ele>1596.89</ele>
        <time>2012-05-18T09:55:42Z</time>
      </trkpt>
      <trkpt lat="41.84354" lon="9.16849">
        <ele>1596.89</ele>
        <time>2012-05-18T09:55:58Z</time>
      </trkpt>
      <trkpt lat="41.84367" lon="9.16868">
        <ele>1596.89</ele>
        <time>2012-05-18T09:56:13Z</time>
      </trkpt>
      <trkpt lat="41.84371" lon="9.16875">
        <ele>1596.89</ele>
        <time>2012-05-18T09:56:20Z</time>
      </trkpt>
      <trkpt lat="41.8437" lon="9.16884">
        <ele>1597.85</ele>
        <time>2012-05-18T09:56:26Z</time>
      </trkpt>
      <trkpt lat="41.84365" lon="9.16888">
        <ele>1598.33</ele>
        <time>2012-05-18T09:56:40Z</time>
      </trkpt>
      <trkpt lat="41.84366" lon="9.16891">
        <ele>1599.77</ele>
        <time>2012-05-18T09:57:35Z</time>
      </trkpt>
      <trkpt lat="41.84365" lon="9.16891">
        <ele>1600.73</ele>
        <time>2012-05-18T09:58:00Z</time>
      </trkpt>
      <trkpt lat="41.84378" lon="9.16889">
        <ele>1601.69</ele>
        <time>2012-05-18T09:58:13Z</time>
      </trkpt>
      <trkpt lat="41.84387" lon="9.16899">
        <ele>1604.58</ele>
        <time>2012-05-18T09:58:26Z</time>
      </trkpt>
      <trkpt lat="41.84384" lon="9.16898">
        <ele>1605.06</ele>
        <time>2012-05-18T09:58:36Z</time>
      </trkpt>
      <trkpt lat="41.84379" lon="9.16892">
        <ele>1604.58</ele>
        <time>2012-05-18T09:58:42Z</time>
      </trkpt>
      <trkpt lat="41.84365" lon="9.1689">
        <ele>1603.14</ele>
        <time>2012-05-18T09:58:55Z</time>
      </trkpt>
      <trkpt lat="41.84362" lon="9.16891">
        <ele>1602.66</ele>
        <time>2012-05-18T09:59:01Z</time>
      </trkpt>
      <trkpt lat="41.84352" lon="9.16905">
        <ele>1602.66</ele>
        <time>2012-05-18T09:59:14Z</time>
      </trkpt>
      <trkpt lat="41.84348" lon="9.16911">
        <ele>1602.66</ele>
        <time>2012-05-18T09:59:27Z</time>
      </trkpt>
      <trkpt lat="41.84344" lon="9.16914">
        <ele>1602.66</ele>
        <time>2012-05-18T09:59:40Z</time>
      </trkpt>
      <trkpt lat="41.84347" lon="9.16913">
        <ele>1603.62</ele>
        <time>2012-05-18T10:00:10Z</time>
      </trkpt>
      <trkpt lat="41.84345" lon="9.16914">
        <ele>1603.14</ele>
        <time>2012-05-18T10:00:30Z</time>
      </trkpt>
      <trkpt lat="41.84342" lon="9.16914">
        <ele>1602.66</ele>
        <time>2012-05-18T10:00:51Z</time>
      </trkpt>
      <trkpt lat="41.84334" lon="9.16919">
        <ele>1604.1</ele>
        <time>2012-05-18T10:01:04Z</time>
      </trkpt>
      <trkpt lat="41.84331" lon="9.16917">
        <ele>1603.14</ele>
        <time>2012-05-18T10:01:13Z</time>
      </trkpt>
      <trkpt lat="41.84325" lon="9.16915">
        <ele>1602.66</ele>
        <time>2012-05-18T10:01:27Z</time>
      </trkpt>
      <trkpt lat="41.84312" lon="9.16914">
        <ele>1601.69</ele>
        <time>2012-05-18T10:01:42Z</time>
      </trkpt>
      <trkpt lat="41.84307" lon="9.16922">
        <ele>1600.25</ele>
        <time>2012-05-18T10:02:00Z</time>
      </trkpt>
      <trkpt lat="41.8431" lon="9.16927">
        <ele>1599.77</ele>
        <time>2012-05-18T10:02:14Z</time>
      </trkpt>
      <trkpt lat="41.8431" lon="9.16918">
        <ele>1599.29</ele>
        <time>2012-05-18T10:02:35Z</time>
      </trkpt>
      <trkpt lat="41.84303" lon="9.1691">
        <ele>1601.21</ele>
        <time>2012-05-18T10:02:46Z</time>
      </trkpt>
      <trkpt lat="41.84303" lon="9.16908">
        <ele>1601.21</ele>
        <time>2012-05-18T10:02:48Z</time>
      </trkpt>
      <trkpt lat="41.84305" lon="9.16892">
        <ele>1600.73</ele>
        <time>2012-05-18T10:03:00Z</time>
      </trkpt>
      <trkpt lat="41.84302" lon="9.16885">
        <ele>1599.29</ele>
        <time>2012-05-18T10:03:08Z</time>
      </trkpt>
      <trkpt lat="41.84288" lon="9.16867">
        <ele>1599.77</ele>
        <time>2012-05-18T10:03:26Z</time>
      </trkpt>
      <trkpt lat="41.84276" lon="9.1687">
        <ele>1600.73</ele>
        <time>2012-05-18T10:03:41Z</time>
      </trkpt>
      <trkpt lat="41.84274" lon="9.1687">
        <ele>1601.21</ele>
        <time>2012-05-18T10:03:44Z</time>
      </trkpt>
      <trkpt lat="41.8426" lon="9.16871">
        <ele>1600.73</ele>
        <time>2012-05-18T10:03:59Z</time>
      </trkpt>
      <trkpt lat="41.8425" lon="9.16868">
        <ele>1600.25</ele>
        <time>2012-05-18T10:04:13Z</time>
      </trkpt>
      <trkpt lat="41.8424" lon="9.16864">
        <ele>1600.25</ele>
        <time>2012-05-18T10:04:27Z</time>
      </trkpt>
      <trkpt lat="41.84236" lon="9.16869">
        <ele>1600.73</ele>
        <time>2012-05-18T10:04:32Z</time>
      </trkpt>
      <trkpt lat="41.84227" lon="9.16887">
        <ele>1601.69</ele>
        <time>2012-05-18T10:04:47Z</time>
      </trkpt>
      <trkpt lat="41.8422" lon="9.16904">
        <ele>1603.14</ele>
        <time>2012-05-18T10:05:03Z</time>
      </trkpt>
      <trkpt lat="41.84213" lon="9.16918">
        <ele>1603.62</ele>
        <time>2012-05-18T10:05:17Z</time>
      </trkpt>
      <trkpt lat="41.84212" lon="9.16925">
        <ele>1602.17</ele>
        <time>2012-05-18T10:05:30Z</time>
      </trkpt>
      <trkpt lat="41.84203" lon="9.16932">
        <ele>1604.1</ele>
        <time>2012-05-18T10:05:41Z</time>
      </trkpt>
      <trkpt lat="41.84198" lon="9.16938">
        <ele>1603.62</ele>
        <time>2012-05-18T10:05:52Z</time>
      </trkpt>
      <trkpt lat="41.84197" lon="9.16939">
        <ele>1604.1</ele>
        <time>2012-05-18T10:05:53Z</time>
      </trkpt>
      <trkpt lat="41.84184" lon="9.16945">
        <ele>1610.35</ele>
        <time>2012-05-18T10:06:06Z</time>
      </trkpt>
      <trkpt lat="41.8417" lon="9.16945">
        <ele>1614.19</ele>
        <time>2012-05-18T10:06:21Z</time>
      </trkpt>
      <trkpt lat="41.84166" lon="9.16951">
        <ele>1616.11</ele>
        <time>2012-05-18T10:06:34Z</time>
      </trkpt>
      <trkpt lat="41.84161" lon="9.16963">
        <ele>1618.52</ele>
        <time>2012-05-18T10:06:49Z</time>
      </trkpt>
      <trkpt lat="41.84155" lon="9.16976">
        <ele>1619</ele>
        <time>2012-05-18T10:07:04Z</time>
      </trkpt>
      <trkpt lat="41.84149" lon="9.16982">
        <ele>1620.44</ele>
        <time>2012-05-18T10:07:17Z</time>
      </trkpt>
      <trkpt lat="41.84142" lon="9.16989">
        <ele>1621.88</ele>
        <time>2012-05-18T10:08:00Z</time>
      </trkpt>
      <trkpt lat="41.84136" lon="9.16999">
        <ele>1622.36</ele>
        <time>2012-05-18T10:08:12Z</time>
      </trkpt>
      <trkpt lat="41.84137" lon="9.17005">
        <ele>1620.92</ele>
        <time>2012-05-18T10:08:24Z</time>
      </trkpt>
      <trkpt lat="41.84139" lon="9.17008">
        <ele>1620.44</ele>
        <time>2012-05-18T10:08:29Z</time>
      </trkpt>
      <trkpt lat="41.84139" lon="9.1702">
        <ele>1620.44</ele>
        <time>2012-05-18T10:08:42Z</time>
      </trkpt>
      <trkpt lat="41.84134" lon="9.17023">
        <ele>1623.8</ele>
        <time>2012-05-18T10:08:54Z</time>
      </trkpt>
      <trkpt lat="41.84126" lon="9.17025">
        <ele>1627.17</ele>
        <time>2012-05-18T10:09:08Z</time>
      </trkpt>
      <trkpt lat="41.84117" lon="9.17028">
        <ele>1631.49</ele>
        <time>2012-05-18T10:09:22Z</time>
      </trkpt>
      <trkpt lat="41.8411" lon="9.17028">
        <ele>1634.38</ele>
        <time>2012-05-18T10:09:33Z</time>
      </trkpt>
      <trkpt lat="41.84102" lon="9.17028">
        <ele>1635.82</ele>
        <time>2012-05-18T10:09:45Z</time>
      </trkpt>
      <trkpt lat="41.84098" lon="9.17029">
        <ele>1636.3</ele>
        <time>2012-05-18T10:09:59Z</time>
      </trkpt>
      <trkpt lat="41.84098" lon="9.17029">
        <ele>1636.3</ele>
        <time>2012-05-18T10:10:38Z</time>
      </trkpt>
      <trkpt lat="41.84098" lon="9.1703">
        <ele>1636.3</ele>
        <time>2012-05-18T10:10:54Z</time>
      </trkpt>
      <trkpt lat="41.84098" lon="9.17031">
        <ele>1636.78</ele>
        <time>2012-05-18T10:11:34Z</time>
      </trkpt>
      <trkpt lat="41.84096" lon="9.17042">
        <ele>1637.26</ele>
        <time>2012-05-18T10:11:56Z</time>
      </trkpt>
      <trkpt lat="41.84095" lon="9.17042">
        <ele>1637.26</ele>
        <time>2012-05-18T10:12:11Z</time>
      </trkpt>
      <trkpt lat="41.84095" lon="9.17042">
        <ele>1637.26</ele>
        <time>2012-05-18T10:12:35Z</time>
      </trkpt>
      <trkpt lat="41.84095" lon="9.17042">
        <ele>1637.26</ele>
        <time>2012-05-18T10:13:10Z</time>
      </trkpt>
      <trkpt lat="41.84095" lon="9.17043">
        <ele>1637.74</ele>
        <time>2012-05-18T10:14:02Z</time>
      </trkpt>
      <trkpt lat="41.84095" lon="9.17043">
        <ele>1637.74</ele>
        <time>2012-05-18T10:14:49Z</time>
      </trkpt>
      <trkpt lat="41.84095" lon="9.17048">
        <ele>1638.22</ele>
        <time>2012-05-18T10:15:05Z</time>
      </trkpt>
      <trkpt lat="41.84094" lon="9.17053">
        <ele>1637.74</ele>
        <time>2012-05-18T10:15:09Z</time>
      </trkpt>
      <trkpt lat="41.84093" lon="9.17071">
        <ele>1637.26</ele>
        <time>2012-05-18T10:15:22Z</time>
      </trkpt>
      <trkpt lat="41.84093" lon="9.17072">
        <ele>1637.26</ele>
        <time>2012-05-18T10:15:23Z</time>
      </trkpt>
      <trkpt lat="41.84097" lon="9.17079">
        <ele>1636.78</ele>
        <time>2012-05-18T10:15:29Z</time>
      </trkpt>
      <trkpt lat="41.84095" lon="9.17094">
        <ele>1636.78</ele>
        <time>2012-05-18T10:15:44Z</time>
      </trkpt>
      <trkpt lat="41.84094" lon="9.17111">
        <ele>1636.3</ele>
        <time>2012-05-18T10:15:59Z</time>
      </trkpt>
      <trkpt lat="41.84094" lon="9.17114">
        <ele>1636.3</ele>
        <time>2012-05-18T10:16:13Z</time>
      </trkpt>
      <trkpt lat="41.84093" lon="9.17123">
        <ele>1637.26</ele>
        <time>2012-05-18T10:16:28Z</time>
      </trkpt>
      <trkpt lat="41.84093" lon="9.17125">
        <ele>1637.74</ele>
        <time>2012-05-18T10:16:41Z</time>
      </trkpt>
      <trkpt lat="41.84096" lon="9.17139">
        <ele>1639.19</ele>
        <time>2012-05-18T10:16:53Z</time>
      </trkpt>
      <trkpt lat="41.841" lon="9.17154">
        <ele>1643.51</ele>
        <time>2012-05-18T10:17:05Z</time>
      </trkpt>
      <trkpt lat="41.84096" lon="9.17166">
        <ele>1646.4</ele>
        <time>2012-05-18T10:17:17Z</time>
      </trkpt>
      <trkpt lat="41.84096" lon="9.1717">
        <ele>1646.88</ele>
        <time>2012-05-18T10:17:20Z</time>
      </trkpt>
      <trkpt lat="41.84096" lon="9.17175">
        <ele>1647.84</ele>
        <time>2012-05-18T10:17:24Z</time>
      </trkpt>
      <trkpt lat="41.84104" lon="9.17185">
        <ele>1653.12</ele>
        <time>2012-05-18T10:17:38Z</time>
      </trkpt>
      <trkpt lat="41.84105" lon="9.17186">
        <ele>1653.6</ele>
        <time>2012-05-18T10:18:06Z</time>
      </trkpt>
      <trkpt lat="41.84104" lon="9.17187">
        <ele>1656.49</ele>
        <time>2012-05-18T10:18:38Z</time>
      </trkpt>
      <trkpt lat="41.84105" lon="9.1719">
        <ele>1659.85</ele>
        <time>2012-05-18T10:18:54Z</time>
      </trkpt>
      <trkpt lat="41.84105" lon="9.17189">
        <ele>1660.33</ele>
        <time>2012-05-18T10:25:24Z</time>
      </trkpt>
      <trkpt lat="41.84104" lon="9.17187">
        <ele>1660.81</ele>
        <time>2012-05-18T10:25:39Z</time>
      </trkpt>
      <trkpt lat="41.84107" lon="9.17196">
        <ele>1662.26</ele>
        <time>2012-05-18T10:25:47Z</time>
      </trkpt>
      <trkpt lat="41.84104" lon="9.17201">
        <ele>1662.74</ele>
        <time>2012-05-18T10:25:52Z</time>
      </trkpt>
      <trkpt lat="41.84096" lon="9.17217">
        <ele>1662.74</ele>
        <time>2012-05-18T10:26:08Z</time>
      </trkpt>
      <trkpt lat="41.84097" lon="9.17218">
        <ele>1662.74</ele>
        <time>2012-05-18T10:26:09Z</time>
      </trkpt>
      <trkpt lat="41.84098" lon="9.17221">
        <ele>1663.22</ele>
        <time>2012-05-18T10:26:13Z</time>
      </trkpt>
      <trkpt lat="41.84095" lon="9.17229">
        <ele>1665.14</ele>
        <time>2012-05-18T10:26:19Z</time>
      </trkpt>
      <trkpt lat="41.84096" lon="9.17244">
        <ele>1667.54</ele>
        <time>2012-05-18T10:26:32Z</time>
      </trkpt>
      <trkpt lat="41.84099" lon="9.17249">
        <ele>1668.51</ele>
        <time>2012-05-18T10:26:37Z</time>
      </trkpt>
      <trkpt lat="41.84101" lon="9.17251">
        <ele>1668.02</ele>
        <time>2012-05-18T10:26:39Z</time>
      </trkpt>
      <trkpt lat="41.84104" lon="9.17255">
        <ele>1668.02</ele>
        <time>2012-05-18T10:26:43Z</time>
      </trkpt>
      <trkpt lat="41.84112" lon="9.17262">
        <ele>1669.47</ele>
        <time>2012-05-18T10:26:52Z</time>
      </trkpt>
      <trkpt lat="41.84113" lon="9.17266">
        <ele>1670.43</ele>
        <time>2012-05-18T10:26:55Z</time>
      </trkpt>
      <trkpt lat="41.84112" lon="9.17281">
        <ele>1673.31</ele>
        <time>2012-05-18T10:27:10Z</time>
      </trkpt>
      <trkpt lat="41.84113" lon="9.17285">
        <ele>1673.31</ele>
        <time>2012-05-18T10:27:14Z</time>
      </trkpt>
      <trkpt lat="41.84113" lon="9.17288">
        <ele>1673.31</ele>
        <time>2012-05-18T10:27:16Z</time>
      </trkpt>
      <trkpt lat="41.84114" lon="9.17304">
        <ele>1674.27</ele>
        <time>2012-05-18T10:27:28Z</time>
      </trkpt>
      <trkpt lat="41.84114" lon="9.17317">
        <ele>1677.64</ele>
        <time>2012-05-18T10:27:40Z</time>
      </trkpt>
      <trkpt lat="41.84112" lon="9.17332">
        <ele>1679.56</ele>
        <time>2012-05-18T10:27:53Z</time>
      </trkpt>
      <trkpt lat="41.84107" lon="9.17347">
        <ele>1682.93</ele>
        <time>2012-05-18T10:28:06Z</time>
      </trkpt>
      <trkpt lat="41.84109" lon="9.17362">
        <ele>1684.37</ele>
        <time>2012-05-18T10:28:20Z</time>
      </trkpt>
      <trkpt lat="41.84114" lon="9.17372">
        <ele>1685.33</ele>
        <time>2012-05-18T10:28:33Z</time>
      </trkpt>
      <trkpt lat="41.84113" lon="9.17379">
        <ele>1685.33</ele>
        <time>2012-05-18T10:28:47Z</time>
      </trkpt>
      <trkpt lat="41.84113" lon="9.17389">
        <ele>1687.73</ele>
        <time>2012-05-18T10:28:59Z</time>
      </trkpt>
      <trkpt lat="41.84111" lon="9.17402">
        <ele>1690.62</ele>
        <time>2012-05-18T10:29:15Z</time>
      </trkpt>
      <trkpt lat="41.84109" lon="9.17413">
        <ele>1693.98</ele>
        <time>2012-05-18T10:29:31Z</time>
      </trkpt>
      <trkpt lat="41.84106" lon="9.17422">
        <ele>1694.94</ele>
        <time>2012-05-18T10:29:45Z</time>
      </trkpt>
      <trkpt lat="41.84103" lon="9.1743">
        <ele>1694.94</ele>
        <time>2012-05-18T10:30:00Z</time>
      </trkpt>
      <trkpt lat="41.84099" lon="9.1744">
        <ele>1696.86</ele>
        <time>2012-05-18T10:30:14Z</time>
      </trkpt>
      <trkpt lat="41.84093" lon="9.17447">
        <ele>1698.31</ele>
        <time>2012-05-18T10:30:30Z</time>
      </trkpt>
      <trkpt lat="41.84092" lon="9.17456">
        <ele>1700.71</ele>
        <time>2012-05-18T10:30:40Z</time>
      </trkpt>
      <trkpt lat="41.84086" lon="9.17464">
        <ele>1703.11</ele>
        <time>2012-05-18T10:30:55Z</time>
      </trkpt>
      <trkpt lat="41.84086" lon="9.17473">
        <ele>1706.48</ele>
        <time>2012-05-18T10:31:07Z</time>
      </trkpt>
      <trkpt lat="41.84088" lon="9.17479">
        <ele>1708.88</ele>
        <time>2012-05-18T10:31:22Z</time>
      </trkpt>
      <trkpt lat="41.8409" lon="9.17486">
        <ele>1709.84</ele>
        <time>2012-05-18T10:31:34Z</time>
      </trkpt>
      <trkpt lat="41.84085" lon="9.17493">
        <ele>1709.36</ele>
        <time>2012-05-18T10:31:49Z</time>
      </trkpt>
      <trkpt lat="41.84082" lon="9.17501">
        <ele>1711.28</ele>
        <time>2012-05-18T10:31:59Z</time>
      </trkpt>
      <trkpt lat="41.84084" lon="9.17505">
        <ele>1714.17</ele>
        <time>2012-05-18T10:32:11Z</time>
      </trkpt>
      <trkpt lat="41.8409" lon="9.17512">
        <ele>1717.05</ele>
        <time>2012-05-18T10:32:24Z</time>
      </trkpt>
      <trkpt lat="41.84093" lon="9.17522">
        <ele>1718.97</ele>
        <time>2012-05-18T10:32:37Z</time>
      </trkpt>
      <trkpt lat="41.8409" lon="9.1753">
        <ele>1721.38</ele>
        <time>2012-05-18T10:32:49Z</time>
      </trkpt>
      <trkpt lat="41.84093" lon="9.17533">
        <ele>1722.34</ele>
        <time>2012-05-18T10:33:02Z</time>
      </trkpt>
      <trkpt lat="41.8409" lon="9.17535">
        <ele>1723.3</ele>
        <time>2012-05-18T10:33:14Z</time>
      </trkpt>
      <trkpt lat="41.84087" lon="9.17542">
        <ele>1724.74</ele>
        <time>2012-05-18T10:33:27Z</time>
      </trkpt>
      <trkpt lat="41.8409" lon="9.17549">
        <ele>1725.7</ele>
        <time>2012-05-18T10:33:39Z</time>
      </trkpt>
      <trkpt lat="41.84093" lon="9.17556">
        <ele>1727.63</ele>
        <time>2012-05-18T10:33:53Z</time>
      </trkpt>
      <trkpt lat="41.84091" lon="9.1756">
        <ele>1728.59</ele>
        <time>2012-05-18T10:34:07Z</time>
      </trkpt>
      <trkpt lat="41.84091" lon="9.1756">
        <ele>1728.59</ele>
        <time>2012-05-18T10:34:19Z</time>
      </trkpt>
      <trkpt lat="41.8409" lon="9.17561">
        <ele>1729.07</ele>
        <time>2012-05-18T10:34:32Z</time>
      </trkpt>
      <trkpt lat="41.84081" lon="9.17586">
        <ele>1731.95</ele>
        <time>2012-05-18T10:34:47Z</time>
      </trkpt>
      <trkpt lat="41.84078" lon="9.17601">
        <ele>1731.95</ele>
        <time>2012-05-18T10:34:55Z</time>
      </trkpt>
      <trkpt lat="41.84076" lon="9.17607">
        <ele>1732.43</ele>
        <time>2012-05-18T10:35:00Z</time>
      </trkpt>
      <trkpt lat="41.84074" lon="9.17622">
        <ele>1733.88</ele>
        <time>2012-05-18T10:35:13Z</time>
      </trkpt>
      <trkpt lat="41.84074" lon="9.17622">
        <ele>1733.88</ele>
        <time>2012-05-18T10:35:41Z</time>
      </trkpt>
      <trkpt lat="41.84073" lon="9.1762">
        <ele>1735.32</ele>
        <time>2012-05-18T10:36:09Z</time>
      </trkpt>
      <trkpt lat="41.84073" lon="9.17617">
        <ele>1735.8</ele>
        <time>2012-05-18T10:36:14Z</time>
      </trkpt>
      <trkpt lat="41.84075" lon="9.17611">
        <ele>1736.28</ele>
        <time>2012-05-18T10:36:31Z</time>
      </trkpt>
      <trkpt lat="41.84073" lon="9.17616">
        <ele>1735.8</ele>
        <time>2012-05-18T10:37:20Z</time>
      </trkpt>
      <trkpt lat="41.84072" lon="9.17624">
        <ele>1736.28</ele>
        <time>2012-05-18T10:37:26Z</time>
      </trkpt>
      <trkpt lat="41.84072" lon="9.1763">
        <ele>1736.76</ele>
        <time>2012-05-18T10:37:30Z</time>
      </trkpt>
      <trkpt lat="41.84076" lon="9.1765">
        <ele>1739.64</ele>
        <time>2012-05-18T10:37:46Z</time>
      </trkpt>
      <trkpt lat="41.84082" lon="9.17661">
        <ele>1742.05</ele>
        <time>2012-05-18T10:38:04Z</time>
      </trkpt>
      <trkpt lat="41.84088" lon="9.17672">
        <ele>1743.49</ele>
        <time>2012-05-18T10:38:17Z</time>
      </trkpt>
      <trkpt lat="41.84092" lon="9.17677">
        <ele>1743.49</ele>
        <time>2012-05-18T10:38:22Z</time>
      </trkpt>
      <trkpt lat="41.84095" lon="9.17679">
        <ele>1743.49</ele>
        <time>2012-05-18T10:38:25Z</time>
      </trkpt>
      <trkpt lat="41.84105" lon="9.17695">
        <ele>1744.93</ele>
        <time>2012-05-18T10:38:40Z</time>
      </trkpt>
      <trkpt lat="41.84109" lon="9.17702">
        <ele>1743.97</ele>
        <time>2012-05-18T10:38:59Z</time>
      </trkpt>
      <trkpt lat="41.84109" lon="9.17704">
        <ele>1744.45</ele>
        <time>2012-05-18T10:39:05Z</time>
      </trkpt>
      <trkpt lat="41.84108" lon="9.17722">
        <ele>1744.45</ele>
        <time>2012-05-18T10:39:21Z</time>
      </trkpt>
      <trkpt lat="41.84108" lon="9.17727">
        <ele>1743.97</ele>
        <time>2012-05-18T10:39:27Z</time>
      </trkpt>
      <trkpt lat="41.84111" lon="9.17742">
        <ele>1744.93</ele>
        <time>2012-05-18T10:39:39Z</time>
      </trkpt>
      <trkpt lat="41.8411" lon="9.17758">
        <ele>1747.33</ele>
        <time>2012-05-18T10:39:54Z</time>
      </trkpt>
      <trkpt lat="41.84112" lon="9.17767">
        <ele>1748.29</ele>
        <time>2012-05-18T10:40:07Z</time>
      </trkpt>
      <trkpt lat="41.84108" lon="9.17766">
        <ele>1748.78</ele>
        <time>2012-05-18T10:40:22Z</time>
      </trkpt>
      <trkpt lat="41.84108" lon="9.17766">
        <ele>1748.78</ele>
        <time>2012-05-18T10:40:55Z</time>
      </trkpt>
      <trkpt lat="41.84109" lon="9.17766">
        <ele>1748.78</ele>
        <time>2012-05-18T10:41:41Z</time>
      </trkpt>
      <trkpt lat="41.84111" lon="9.17767">
        <ele>1748.78</ele>
        <time>2012-05-18T10:41:44Z</time>
      </trkpt>
      <trkpt lat="41.84113" lon="9.17772">
        <ele>1748.29</ele>
        <time>2012-05-18T10:41:47Z</time>
      </trkpt>
      <trkpt lat="41.84111" lon="9.17786">
        <ele>1750.22</ele>
        <time>2012-05-18T10:41:59Z</time>
      </trkpt>
      <trkpt lat="41.84116" lon="9.17791">
        <ele>1750.22</ele>
        <time>2012-05-18T10:42:06Z</time>
      </trkpt>
      <trkpt lat="41.84122" lon="9.17808">
        <ele>1751.18</ele>
        <time>2012-05-18T10:42:22Z</time>
      </trkpt>
      <trkpt lat="41.84126" lon="9.17816">
        <ele>1751.18</ele>
        <time>2012-05-18T10:42:30Z</time>
      </trkpt>
      <trkpt lat="41.8413" lon="9.17827">
        <ele>1750.7</ele>
        <time>2012-05-18T10:42:45Z</time>
      </trkpt>
      <trkpt lat="41.8413" lon="9.17827">
        <ele>1750.7</ele>
        <time>2012-05-18T10:42:47Z</time>
      </trkpt>
      <trkpt lat="41.84132" lon="9.17849">
        <ele>1751.18</ele>
        <time>2012-05-18T10:43:01Z</time>
      </trkpt>
      <trkpt lat="41.84132" lon="9.17855">
        <ele>1751.18</ele>
        <time>2012-05-18T10:43:06Z</time>
      </trkpt>
      <trkpt lat="41.84135" lon="9.17875">
        <ele>1752.14</ele>
        <time>2012-05-18T10:43:22Z</time>
      </trkpt>
      <trkpt lat="41.84134" lon="9.17883">
        <ele>1752.62</ele>
        <time>2012-05-18T10:43:27Z</time>
      </trkpt>
      <trkpt lat="41.84135" lon="9.17903">
        <ele>1754.06</ele>
        <time>2012-05-18T10:43:43Z</time>
      </trkpt>
      <trkpt lat="41.84136" lon="9.17925">
        <ele>1754.06</ele>
        <time>2012-05-18T10:43:58Z</time>
      </trkpt>
      <trkpt lat="41.84135" lon="9.17941">
        <ele>1754.54</ele>
        <time>2012-05-18T10:44:08Z</time>
      </trkpt>
      <trkpt lat="41.84133" lon="9.17957">
        <ele>1755.99</ele>
        <time>2012-05-18T10:44:23Z</time>
      </trkpt>
      <trkpt lat="41.84133" lon="9.17971">
        <ele>1756.95</ele>
        <time>2012-05-18T10:44:35Z</time>
      </trkpt>
      <trkpt lat="41.84123" lon="9.1799">
        <ele>1755.5</ele>
        <time>2012-05-18T10:44:50Z</time>
      </trkpt>
      <trkpt lat="41.84119" lon="9.18015">
        <ele>1755.5</ele>
        <time>2012-05-18T10:45:08Z</time>
      </trkpt>
      <trkpt lat="41.84119" lon="9.18021">
        <ele>1756.47</ele>
        <time>2012-05-18T10:45:13Z</time>
      </trkpt>
      <trkpt lat="41.84123" lon="9.18039">
        <ele>1757.91</ele>
        <time>2012-05-18T10:45:28Z</time>
      </trkpt>
      <trkpt lat="41.84127" lon="9.18058">
        <ele>1759.83</ele>
        <time>2012-05-18T10:45:43Z</time>
      </trkpt>
      <trkpt lat="41.84129" lon="9.18076">
        <ele>1761.27</ele>
        <time>2012-05-18T10:45:58Z</time>
      </trkpt>
      <trkpt lat="41.84129" lon="9.18085">
        <ele>1762.71</ele>
        <time>2012-05-18T10:46:07Z</time>
      </trkpt>
      <trkpt lat="41.84129" lon="9.1809">
        <ele>1763.2</ele>
        <time>2012-05-18T10:46:24Z</time>
      </trkpt>
      <trkpt lat="41.8413" lon="9.18093">
        <ele>1763.68</ele>
        <time>2012-05-18T10:46:40Z</time>
      </trkpt>
      <trkpt lat="41.8413" lon="9.18094">
        <ele>1763.68</ele>
        <time>2012-05-18T10:47:08Z</time>
      </trkpt>
      <trkpt lat="41.8413" lon="9.18094">
        <ele>1763.68</ele>
        <time>2012-05-18T10:48:05Z</time>
      </trkpt>
      <trkpt lat="41.8413" lon="9.18099">
        <ele>1763.68</ele>
        <time>2012-05-18T10:51:19Z</time>
      </trkpt>
      <trkpt lat="41.84127" lon="9.18099">
        <ele>1764.16</ele>
        <time>2012-05-18T10:51:50Z</time>
      </trkpt>
      <trkpt lat="41.84116" lon="9.18113">
        <ele>1758.39</ele>
        <time>2012-05-18T10:52:07Z</time>
      </trkpt>
      <trkpt lat="41.84107" lon="9.18123">
        <ele>1754.54</ele>
        <time>2012-05-18T10:52:21Z</time>
      </trkpt>
      <trkpt lat="41.84099" lon="9.18129">
        <ele>1750.7</ele>
        <time>2012-05-18T10:52:35Z</time>
      </trkpt>
      <trkpt lat="41.84091" lon="9.18132">
        <ele>1748.29</ele>
        <time>2012-05-18T10:52:49Z</time>
      </trkpt>
      <trkpt lat="41.84088" lon="9.18135">
        <ele>1747.33</ele>
        <time>2012-05-18T10:53:01Z</time>
      </trkpt>
      <trkpt lat="41.84087" lon="9.18139">
        <ele>1745.89</ele>
        <time>2012-05-18T10:53:15Z</time>
      </trkpt>
      <trkpt lat="41.84084" lon="9.18146">
        <ele>1744.93</ele>
        <time>2012-05-18T10:53:20Z</time>
      </trkpt>
      <trkpt lat="41.84075" lon="9.18161">
        <ele>1743.97</ele>
        <time>2012-05-18T10:53:26Z</time>
      </trkpt>
      <trkpt lat="41.8406" lon="9.18194">
        <ele>1747.81</ele>
        <time>2012-05-18T10:53:42Z</time>
      </trkpt>
      <trkpt lat="41.84057" lon="9.18202">
        <ele>1747.81</ele>
        <time>2012-05-18T10:53:54Z</time>
      </trkpt>
      <trkpt lat="41.84056" lon="9.1822">
        <ele>1747.81</ele>
        <time>2012-05-18T10:54:05Z</time>
      </trkpt>
      <trkpt lat="41.84057" lon="9.18227">
        <ele>1746.37</ele>
        <time>2012-05-18T10:54:18Z</time>
      </trkpt>
      <trkpt lat="41.84057" lon="9.18227">
        <ele>1746.37</ele>
        <time>2012-05-18T10:54:29Z</time>
      </trkpt>
      <trkpt lat="41.8405" lon="9.18238">
        <ele>1739.16</ele>
        <time>2012-05-18T10:54:40Z</time>
      </trkpt>
      <trkpt lat="41.84044" lon="9.18244">
        <ele>1737.24</ele>
        <time>2012-05-18T10:54:45Z</time>
      </trkpt>
      <trkpt lat="41.84037" lon="9.18253">
        <ele>1733.39</ele>
        <time>2012-05-18T10:54:52Z</time>
      </trkpt>
      <trkpt lat="41.84027" lon="9.18271">
        <ele>1731.95</ele>
        <time>2012-05-18T10:55:05Z</time>
      </trkpt>
      <trkpt lat="41.84021" lon="9.183">
        <ele>1733.88</ele>
        <time>2012-05-18T10:55:19Z</time>
      </trkpt>
      <trkpt lat="41.84021" lon="9.18306">
        <ele>1735.32</ele>
        <time>2012-05-18T10:55:21Z</time>
      </trkpt>
      <trkpt lat="41.84017" lon="9.18317">
        <ele>1737.24</ele>
        <time>2012-05-18T10:55:30Z</time>
      </trkpt>
      <trkpt lat="41.84017" lon="9.18327">
        <ele>1740.12</ele>
        <time>2012-05-18T10:55:35Z</time>
      </trkpt>
      <trkpt lat="41.84015" lon="9.18342">
        <ele>1742.05</ele>
        <time>2012-05-18T10:55:46Z</time>
      </trkpt>
      <trkpt lat="41.84012" lon="9.18369">
        <ele>1745.41</ele>
        <time>2012-05-18T10:56:02Z</time>
      </trkpt>
      <trkpt lat="41.8402" lon="9.18388">
        <ele>1747.81</ele>
        <time>2012-05-18T10:56:16Z</time>
      </trkpt>
      <trkpt lat="41.84032" lon="9.18406">
        <ele>1750.22</ele>
        <time>2012-05-18T10:56:30Z</time>
      </trkpt>
      <trkpt lat="41.8404" lon="9.18425">
        <ele>1751.66</ele>
        <time>2012-05-18T10:56:42Z</time>
      </trkpt>
      <trkpt lat="41.84049" lon="9.18443">
        <ele>1754.54</ele>
        <time>2012-05-18T10:56:56Z</time>
      </trkpt>
      <trkpt lat="41.8405" lon="9.18448">
        <ele>1755.5</ele>
        <time>2012-05-18T10:57:00Z</time>
      </trkpt>
      <trkpt lat="41.84051" lon="9.18473">
        <ele>1756.95</ele>
        <time>2012-05-18T10:57:18Z</time>
      </trkpt>
      <trkpt lat="41.84052" lon="9.18475">
        <ele>1757.43</ele>
        <time>2012-05-18T10:57:20Z</time>
      </trkpt>
      <trkpt lat="41.84059" lon="9.18495">
        <ele>1757.91</ele>
        <time>2012-05-18T10:57:34Z</time>
      </trkpt>
      <trkpt lat="41.8406" lon="9.18516">
        <ele>1756.47</ele>
        <time>2012-05-18T10:57:49Z</time>
      </trkpt>
      <trkpt lat="41.84062" lon="9.18532">
        <ele>1754.54</ele>
        <time>2012-05-18T10:58:01Z</time>
      </trkpt>
      <trkpt lat="41.84064" lon="9.18546">
        <ele>1754.06</ele>
        <time>2012-05-18T10:58:13Z</time>
      </trkpt>
      <trkpt lat="41.84069" lon="9.18563">
        <ele>1753.58</ele>
        <time>2012-05-18T10:58:27Z</time>
      </trkpt>
      <trkpt lat="41.84071" lon="9.18576">
        <ele>1754.54</ele>
        <time>2012-05-18T10:58:36Z</time>
      </trkpt>
      <trkpt lat="41.84071" lon="9.18585">
        <ele>1756.95</ele>
        <time>2012-05-18T10:58:49Z</time>
      </trkpt>
      <trkpt lat="41.84073" lon="9.18594">
        <ele>1756.95</ele>
        <time>2012-05-18T10:58:59Z</time>
      </trkpt>
      <trkpt lat="41.84074" lon="9.186">
        <ele>1755.99</ele>
        <time>2012-05-18T10:59:14Z</time>
      </trkpt>
      <trkpt lat="41.84072" lon="9.18611">
        <ele>1753.58</ele>
        <time>2012-05-18T10:59:23Z</time>
      </trkpt>
      <trkpt lat="41.84074" lon="9.18627">
        <ele>1752.14</ele>
        <time>2012-05-18T10:59:34Z</time>
      </trkpt>
      <trkpt lat="41.8408" lon="9.18649">
        <ele>1754.06</ele>
        <time>2012-05-18T10:59:49Z</time>
      </trkpt>
      <trkpt lat="41.8408" lon="9.18658">
        <ele>1753.58</ele>
        <time>2012-05-18T10:59:55Z</time>
      </trkpt>
      <trkpt lat="41.84083" lon="9.18674">
        <ele>1753.58</ele>
        <time>2012-05-18T11:00:07Z</time>
      </trkpt>
      <trkpt lat="41.84085" lon="9.18692">
        <ele>1752.14</ele>
        <time>2012-05-18T11:00:20Z</time>
      </trkpt>
      <trkpt lat="41.84089" lon="9.18702">
        <ele>1754.54</ele>
        <time>2012-05-18T11:00:33Z</time>
      </trkpt>
      <trkpt lat="41.8409" lon="9.18711">
        <ele>1755.02</ele>
        <time>2012-05-18T11:00:42Z</time>
      </trkpt>
      <trkpt lat="41.84092" lon="9.18716">
        <ele>1754.54</ele>
        <time>2012-05-18T11:00:48Z</time>
      </trkpt>
      <trkpt lat="41.84097" lon="9.18727">
        <ele>1753.58</ele>
        <time>2012-05-18T11:01:00Z</time>
      </trkpt>
      <trkpt lat="41.841" lon="9.18732">
        <ele>1752.62</ele>
        <time>2012-05-18T11:01:21Z</time>
      </trkpt>
      <trkpt lat="41.84101" lon="9.18734">
        <ele>1752.14</ele>
        <time>2012-05-18T11:01:43Z</time>
      </trkpt>
      <trkpt lat="41.84104" lon="9.18736">
        <ele>1752.62</ele>
        <time>2012-05-18T11:02:14Z</time>
      </trkpt>
      <trkpt lat="41.8411" lon="9.18744">
        <ele>1751.18</ele>
        <time>2012-05-18T11:02:21Z</time>
      </trkpt>
      <trkpt lat="41.84114" lon="9.18747">
        <ele>1750.7</ele>
        <time>2012-05-18T11:02:25Z</time>
      </trkpt>
      <trkpt lat="41.84123" lon="9.18759">
        <ele>1752.62</ele>
        <time>2012-05-18T11:02:38Z</time>
      </trkpt>
      <trkpt lat="41.84129" lon="9.18771">
        <ele>1753.1</ele>
        <time>2012-05-18T11:02:49Z</time>
      </trkpt>
      <trkpt lat="41.84133" lon="9.18776">
        <ele>1754.06</ele>
        <time>2012-05-18T11:02:54Z</time>
      </trkpt>
      <trkpt lat="41.84136" lon="9.18776">
        <ele>1754.06</ele>
        <time>2012-05-18T11:02:58Z</time>
      </trkpt>
      <trkpt lat="41.84144" lon="9.18791">
        <ele>1755.99</ele>
        <time>2012-05-18T11:03:12Z</time>
      </trkpt>
      <trkpt lat="41.84146" lon="9.18797">
        <ele>1755.99</ele>
        <time>2012-05-18T11:03:25Z</time>
      </trkpt>
      <trkpt lat="41.84146" lon="9.18805">
        <ele>1756.95</ele>
        <time>2012-05-18T11:03:38Z</time>
      </trkpt>
      <trkpt lat="41.8414" lon="9.18807">
        <ele>1760.31</ele>
        <time>2012-05-18T11:03:48Z</time>
      </trkpt>
      <trkpt lat="41.8414" lon="9.18807">
        <ele>1760.31</ele>
        <time>2012-05-18T11:03:50Z</time>
      </trkpt>
      <trkpt lat="41.84135" lon="9.18818">
        <ele>1760.79</ele>
        <time>2012-05-18T11:04:03Z</time>
      </trkpt>
      <trkpt lat="41.84132" lon="9.18823">
        <ele>1759.35</ele>
        <time>2012-05-18T11:04:15Z</time>
      </trkpt>
      <trkpt lat="41.8413" lon="9.1883">
        <ele>1759.35</ele>
        <time>2012-05-18T11:04:27Z</time>
      </trkpt>
      <trkpt lat="41.84123" lon="9.18846">
        <ele>1762.71</ele>
        <time>2012-05-18T11:04:38Z</time>
      </trkpt>
      <trkpt lat="41.84123" lon="9.18859">
        <ele>1765.12</ele>
        <time>2012-05-18T11:04:50Z</time>
      </trkpt>
      <trkpt lat="41.84124" lon="9.18867">
        <ele>1768</ele>
        <time>2012-05-18T11:04:54Z</time>
      </trkpt>
      <trkpt lat="41.84132" lon="9.1888">
        <ele>1770.89</ele>
        <time>2012-05-18T11:05:06Z</time>
      </trkpt>
      <trkpt lat="41.84133" lon="9.1889">
        <ele>1772.81</ele>
        <time>2012-05-18T11:05:20Z</time>
      </trkpt>
      <trkpt lat="41.84138" lon="9.18901">
        <ele>1773.77</ele>
        <time>2012-05-18T11:05:32Z</time>
      </trkpt>
      <trkpt lat="41.8414" lon="9.18905">
        <ele>1773.29</ele>
        <time>2012-05-18T11:05:36Z</time>
      </trkpt>
      <trkpt lat="41.84148" lon="9.18919">
        <ele>1774.25</ele>
        <time>2012-05-18T11:05:51Z</time>
      </trkpt>
      <trkpt lat="41.84145" lon="9.18933">
        <ele>1771.85</ele>
        <time>2012-05-18T11:06:04Z</time>
      </trkpt>
      <trkpt lat="41.84147" lon="9.18945">
        <ele>1774.73</ele>
        <time>2012-05-18T11:06:18Z</time>
      </trkpt>
      <trkpt lat="41.84147" lon="9.18947">
        <ele>1776.17</ele>
        <time>2012-05-18T11:06:52Z</time>
      </trkpt>
      <trkpt lat="41.84145" lon="9.18948">
        <ele>1778.1</ele>
        <time>2012-05-18T11:07:32Z</time>
      </trkpt>
      <trkpt lat="41.84142" lon="9.18959">
        <ele>1781.94</ele>
        <time>2012-05-18T11:07:44Z</time>
      </trkpt>
      <trkpt lat="41.84136" lon="9.18965">
        <ele>1785.31</ele>
        <time>2012-05-18T11:08:00Z</time>
      </trkpt>
      <trkpt lat="41.84135" lon="9.18969">
        <ele>1786.75</ele>
        <time>2012-05-18T11:08:17Z</time>
      </trkpt>
      <trkpt lat="41.84136" lon="9.1897">
        <ele>1786.75</ele>
        <time>2012-05-18T11:08:35Z</time>
      </trkpt>
      <trkpt lat="41.84135" lon="9.18971">
        <ele>1787.23</ele>
        <time>2012-05-18T11:08:56Z</time>
      </trkpt>
      <trkpt lat="41.84137" lon="9.18972">
        <ele>1787.71</ele>
        <time>2012-05-18T11:09:26Z</time>
      </trkpt>
      <trkpt lat="41.84137" lon="9.18971">
        <ele>1787.71</ele>
        <time>2012-05-18T11:10:03Z</time>
      </trkpt>
      <trkpt lat="41.84137" lon="9.18971">
        <ele>1787.71</ele>
        <time>2012-05-18T11:10:59Z</time>
      </trkpt>
      <trkpt lat="41.84132" lon="9.18971">
        <ele>1789.63</ele>
        <time>2012-05-18T11:11:26Z</time>
      </trkpt>
      <trkpt lat="41.84123" lon="9.18967">
        <ele>1793.96</ele>
        <time>2012-05-18T11:11:36Z</time>
      </trkpt>
      <trkpt lat="41.84122" lon="9.18973">
        <ele>1796.36</ele>
        <time>2012-05-18T11:11:48Z</time>
      </trkpt>
      <trkpt lat="41.84122" lon="9.18977">
        <ele>1797.32</ele>
        <time>2012-05-18T11:12:00Z</time>
      </trkpt>
      <trkpt lat="41.84118" lon="9.18983">
        <ele>1799.73</ele>
        <time>2012-05-18T11:12:11Z</time>
      </trkpt>
      <trkpt lat="41.84114" lon="9.18991">
        <ele>1803.09</ele>
        <time>2012-05-18T11:12:24Z</time>
      </trkpt>
      <trkpt lat="41.84112" lon="9.19003">
        <ele>1805.01</ele>
        <time>2012-05-18T11:12:38Z</time>
      </trkpt>
      <trkpt lat="41.8411" lon="9.19008">
        <ele>1806.45</ele>
        <time>2012-05-18T11:12:51Z</time>
      </trkpt>
      <trkpt lat="41.84111" lon="9.19016">
        <ele>1807.42</ele>
        <time>2012-05-18T11:13:03Z</time>
      </trkpt>
      <trkpt lat="41.84116" lon="9.19023">
        <ele>1807.9</ele>
        <time>2012-05-18T11:13:15Z</time>
      </trkpt>
      <trkpt lat="41.8412" lon="9.19032">
        <ele>1807.9</ele>
        <time>2012-05-18T11:13:27Z</time>
      </trkpt>
      <trkpt lat="41.84117" lon="9.19037">
        <ele>1809.82</ele>
        <time>2012-05-18T11:13:42Z</time>
      </trkpt>
      <trkpt lat="41.8412" lon="9.19045">
        <ele>1811.26</ele>
        <time>2012-05-18T11:13:56Z</time>
      </trkpt>
      <trkpt lat="41.84116" lon="9.19052">
        <ele>1813.18</ele>
        <time>2012-05-18T11:14:10Z</time>
      </trkpt>
      <trkpt lat="41.84114" lon="9.19057">
        <ele>1815.59</ele>
        <time>2012-05-18T11:14:23Z</time>
      </trkpt>
      <trkpt lat="41.84112" lon="9.19064">
        <ele>1818.47</ele>
        <time>2012-05-18T11:14:35Z</time>
      </trkpt>
      <trkpt lat="41.84108" lon="9.19069">
        <ele>1821.84</ele>
        <time>2012-05-18T11:14:50Z</time>
      </trkpt>
      <trkpt lat="41.84108" lon="9.19076">
        <ele>1824.24</ele>
        <time>2012-05-18T11:15:04Z</time>
      </trkpt>
      <trkpt lat="41.8411" lon="9.19085">
        <ele>1828.08</ele>
        <time>2012-05-18T11:15:16Z</time>
      </trkpt>
      <trkpt lat="41.8411" lon="9.19093">
        <ele>1829.53</ele>
        <time>2012-05-18T11:15:30Z</time>
      </trkpt>
      <trkpt lat="41.84111" lon="9.19102">
        <ele>1831.45</ele>
        <time>2012-05-18T11:15:45Z</time>
      </trkpt>
      <trkpt lat="41.84113" lon="9.19106">
        <ele>1830.49</ele>
        <time>2012-05-18T11:16:27Z</time>
      </trkpt>
      <trkpt lat="41.84113" lon="9.1912">
        <ele>1827.12</ele>
        <time>2012-05-18T11:16:39Z</time>
      </trkpt>
      <trkpt lat="41.84116" lon="9.19126">
        <ele>1827.6</ele>
        <time>2012-05-18T11:16:54Z</time>
      </trkpt>
      <trkpt lat="41.84119" lon="9.19133">
        <ele>1829.05</ele>
        <time>2012-05-18T11:17:08Z</time>
      </trkpt>
      <trkpt lat="41.84125" lon="9.19135">
        <ele>1829.05</ele>
        <time>2012-05-18T11:17:21Z</time>
      </trkpt>
      <trkpt lat="41.84126" lon="9.19139">
        <ele>1831.45</ele>
        <time>2012-05-18T11:18:02Z</time>
      </trkpt>
      <trkpt lat="41.84129" lon="9.1915">
        <ele>1835.29</ele>
        <time>2012-05-18T11:18:16Z</time>
      </trkpt>
      <trkpt lat="41.84131" lon="9.1916">
        <ele>1839.14</ele>
        <time>2012-05-18T11:18:29Z</time>
      </trkpt>
      <trkpt lat="41.84138" lon="9.19168">
        <ele>1842.98</ele>
        <time>2012-05-18T11:18:44Z</time>
      </trkpt>
      <trkpt lat="41.84142" lon="9.19174">
        <ele>1843.47</ele>
        <time>2012-05-18T11:18:56Z</time>
      </trkpt>
      <trkpt lat="41.84149" lon="9.19182">
        <ele>1845.39</ele>
        <time>2012-05-18T11:19:11Z</time>
      </trkpt>
      <trkpt lat="41.84154" lon="9.19194">
        <ele>1848.27</ele>
        <time>2012-05-18T11:19:26Z</time>
      </trkpt>
      <trkpt lat="41.84161" lon="9.19205">
        <ele>1850.19</ele>
        <time>2012-05-18T11:19:40Z</time>
      </trkpt>
      <trkpt lat="41.84168" lon="9.19221">
        <ele>1851.64</ele>
        <time>2012-05-18T11:19:56Z</time>
      </trkpt>
      <trkpt lat="41.84168" lon="9.19227">
        <ele>1852.6</ele>
        <time>2012-05-18T11:20:00Z</time>
      </trkpt>
      <trkpt lat="41.8417" lon="9.19236">
        <ele>1853.08</ele>
        <time>2012-05-18T11:20:09Z</time>
      </trkpt>
      <trkpt lat="41.84176" lon="9.19251">
        <ele>1855</ele>
        <time>2012-05-18T11:20:24Z</time>
      </trkpt>
      <trkpt lat="41.8418" lon="9.19266">
        <ele>1857.89</ele>
        <time>2012-05-18T11:20:40Z</time>
      </trkpt>
      <trkpt lat="41.84184" lon="9.19282">
        <ele>1857.89</ele>
        <time>2012-05-18T11:20:55Z</time>
      </trkpt>
      <trkpt lat="41.84188" lon="9.1929">
        <ele>1857.89</ele>
        <time>2012-05-18T11:21:03Z</time>
      </trkpt>
      <trkpt lat="41.84192" lon="9.19295">
        <ele>1858.37</ele>
        <time>2012-05-18T11:21:10Z</time>
      </trkpt>
      <trkpt lat="41.84194" lon="9.19297">
        <ele>1857.89</ele>
        <time>2012-05-18T11:21:12Z</time>
      </trkpt>
      <trkpt lat="41.84205" lon="9.19319">
        <ele>1859.81</ele>
        <time>2012-05-18T11:21:32Z</time>
      </trkpt>
      <trkpt lat="41.84211" lon="9.19324">
        <ele>1860.29</ele>
        <time>2012-05-18T11:21:44Z</time>
      </trkpt>
      <trkpt lat="41.84212" lon="9.19324">
        <ele>1859.81</ele>
        <time>2012-05-18T11:21:46Z</time>
      </trkpt>
      <trkpt lat="41.84224" lon="9.19333">
        <ele>1861.73</ele>
        <time>2012-05-18T11:22:01Z</time>
      </trkpt>
      <trkpt lat="41.8423" lon="9.19346">
        <ele>1863.17</ele>
        <time>2012-05-18T11:22:14Z</time>
      </trkpt>
      <trkpt lat="41.84233" lon="9.19347">
        <ele>1863.17</ele>
        <time>2012-05-18T11:22:18Z</time>
      </trkpt>
      <trkpt lat="41.84238" lon="9.19349">
        <ele>1863.65</ele>
        <time>2012-05-18T11:22:24Z</time>
      </trkpt>
      <trkpt lat="41.84241" lon="9.19355">
        <ele>1864.61</ele>
        <time>2012-05-18T11:22:30Z</time>
      </trkpt>
      <trkpt lat="41.84253" lon="9.19363">
        <ele>1867.02</ele>
        <time>2012-05-18T11:22:45Z</time>
      </trkpt>
      <trkpt lat="41.84258" lon="9.19364">
        <ele>1868.46</ele>
        <time>2012-05-18T11:22:50Z</time>
      </trkpt>
      <trkpt lat="41.8426" lon="9.19364">
        <ele>1868.94</ele>
        <time>2012-05-18T11:22:52Z</time>
      </trkpt>
      <trkpt lat="41.8427" lon="9.19375">
        <ele>1871.34</ele>
        <time>2012-05-18T11:23:07Z</time>
      </trkpt>
      <trkpt lat="41.84277" lon="9.1938">
        <ele>1872.3</ele>
        <time>2012-05-18T11:23:15Z</time>
      </trkpt>
      <trkpt lat="41.84285" lon="9.19384">
        <ele>1872.79</ele>
        <time>2012-05-18T11:23:24Z</time>
      </trkpt>
      <trkpt lat="41.843" lon="9.19388">
        <ele>1872.3</ele>
        <time>2012-05-18T11:23:39Z</time>
      </trkpt>
      <trkpt lat="41.84305" lon="9.1939">
        <ele>1872.3</ele>
        <time>2012-05-18T11:23:44Z</time>
      </trkpt>
      <trkpt lat="41.84316" lon="9.194">
        <ele>1872.3</ele>
        <time>2012-05-18T11:23:57Z</time>
      </trkpt>
      <trkpt lat="41.84328" lon="9.19405">
        <ele>1873.75</ele>
        <time>2012-05-18T11:24:11Z</time>
      </trkpt>
      <trkpt lat="41.84331" lon="9.19407">
        <ele>1874.23</ele>
        <time>2012-05-18T11:24:14Z</time>
      </trkpt>
      <trkpt lat="41.84341" lon="9.19421">
        <ele>1874.71</ele>
        <time>2012-05-18T11:24:28Z</time>
      </trkpt>
      <trkpt lat="41.84346" lon="9.19431">
        <ele>1876.63</ele>
        <time>2012-05-18T11:24:40Z</time>
      </trkpt>
      <trkpt lat="41.84354" lon="9.19441">
        <ele>1879.51</ele>
        <time>2012-05-18T11:24:53Z</time>
      </trkpt>
      <trkpt lat="41.84358" lon="9.19442">
        <ele>1880</ele>
        <time>2012-05-18T11:24:58Z</time>
      </trkpt>
      <trkpt lat="41.84366" lon="9.19449">
        <ele>1880.96</ele>
        <time>2012-05-18T11:25:13Z</time>
      </trkpt>
      <trkpt lat="41.84367" lon="9.19452">
        <ele>1881.44</ele>
        <time>2012-05-18T11:25:15Z</time>
      </trkpt>
      <trkpt lat="41.84367" lon="9.19454">
        <ele>1881.44</ele>
        <time>2012-05-18T11:25:17Z</time>
      </trkpt>
      <trkpt lat="41.84365" lon="9.19472">
        <ele>1883.36</ele>
        <time>2012-05-18T11:25:33Z</time>
      </trkpt>
      <trkpt lat="41.84364" lon="9.19487">
        <ele>1884.8</ele>
        <time>2012-05-18T11:25:48Z</time>
      </trkpt>
      <trkpt lat="41.84371" lon="9.19496">
        <ele>1886.24</ele>
        <time>2012-05-18T11:26:02Z</time>
      </trkpt>
      <trkpt lat="41.84373" lon="9.19498">
        <ele>1886.72</ele>
        <time>2012-05-18T11:26:05Z</time>
      </trkpt>
      <trkpt lat="41.84384" lon="9.19506">
        <ele>1889.61</ele>
        <time>2012-05-18T11:26:19Z</time>
      </trkpt>
      <trkpt lat="41.84394" lon="9.19522">
        <ele>1890.57</ele>
        <time>2012-05-18T11:26:34Z</time>
      </trkpt>
      <trkpt lat="41.84399" lon="9.19533">
        <ele>1891.53</ele>
        <time>2012-05-18T11:26:47Z</time>
      </trkpt>
      <trkpt lat="41.84405" lon="9.19546">
        <ele>1892.97</ele>
        <time>2012-05-18T11:27:03Z</time>
      </trkpt>
      <trkpt lat="41.84405" lon="9.19546">
        <ele>1892.97</ele>
        <time>2012-05-18T11:27:36Z</time>
      </trkpt>
      <trkpt lat="41.84405" lon="9.19546">
        <ele>1892.97</ele>
        <time>2012-05-18T11:28:00Z</time>
      </trkpt>
      <trkpt lat="41.84405" lon="9.19548">
        <ele>1892.49</ele>
        <time>2012-05-18T11:28:41Z</time>
      </trkpt>
      <trkpt lat="41.84405" lon="9.19549">
        <ele>1892.49</ele>
        <time>2012-05-18T11:29:24Z</time>
      </trkpt>
      <trkpt lat="41.84406" lon="9.19551">
        <ele>1890.57</ele>
        <time>2012-05-18T11:31:39Z</time>
      </trkpt>
      <trkpt lat="41.84407" lon="9.19553">
        <ele>1890.09</ele>
        <time>2012-05-18T11:31:41Z</time>
      </trkpt>
      <trkpt lat="41.84407" lon="9.19557">
        <ele>1889.13</ele>
        <time>2012-05-18T11:31:51Z</time>
      </trkpt>
      <trkpt lat="41.84415" lon="9.19574">
        <ele>1889.61</ele>
        <time>2012-05-18T11:32:07Z</time>
      </trkpt>
      <trkpt lat="41.84426" lon="9.19588">
        <ele>1891.05</ele>
        <time>2012-05-18T11:32:22Z</time>
      </trkpt>
      <trkpt lat="41.84433" lon="9.19606">
        <ele>1892.01</ele>
        <time>2012-05-18T11:32:36Z</time>
      </trkpt>
      <trkpt lat="41.84438" lon="9.19625">
        <ele>1893.45</ele>
        <time>2012-05-18T11:32:50Z</time>
      </trkpt>
      <trkpt lat="41.8444" lon="9.19645">
        <ele>1895.38</ele>
        <time>2012-05-18T11:33:05Z</time>
      </trkpt>
      <trkpt lat="41.84438" lon="9.19655">
        <ele>1896.34</ele>
        <time>2012-05-18T11:33:17Z</time>
      </trkpt>
      <trkpt lat="41.84436" lon="9.1967">
        <ele>1897.78</ele>
        <time>2012-05-18T11:33:30Z</time>
      </trkpt>
      <trkpt lat="41.84435" lon="9.19674">
        <ele>1898.74</ele>
        <time>2012-05-18T11:33:46Z</time>
      </trkpt>
      <trkpt lat="41.84435" lon="9.19675">
        <ele>1898.74</ele>
        <time>2012-05-18T11:34:00Z</time>
      </trkpt>
      <trkpt lat="41.84434" lon="9.19677">
        <ele>1899.7</ele>
        <time>2012-05-18T11:34:12Z</time>
      </trkpt>
      <trkpt lat="41.84432" lon="9.19689">
        <ele>1903.55</ele>
        <time>2012-05-18T11:34:27Z</time>
      </trkpt>
      <trkpt lat="41.84433" lon="9.19696">
        <ele>1905.95</ele>
        <time>2012-05-18T11:34:41Z</time>
      </trkpt>
      <trkpt lat="41.84429" lon="9.19702">
        <ele>1907.39</ele>
        <time>2012-05-18T11:34:54Z</time>
      </trkpt>
      <trkpt lat="41.84424" lon="9.19709">
        <ele>1910.76</ele>
        <time>2012-05-18T11:35:08Z</time>
      </trkpt>
      <trkpt lat="41.84419" lon="9.19716">
        <ele>1911.24</ele>
        <time>2012-05-18T11:35:22Z</time>
      </trkpt>
      <trkpt lat="41.84417" lon="9.19727">
        <ele>1912.68</ele>
        <time>2012-05-18T11:35:36Z</time>
      </trkpt>
      <trkpt lat="41.84413" lon="9.19738">
        <ele>1915.56</ele>
        <time>2012-05-18T11:35:51Z</time>
      </trkpt>
      <trkpt lat="41.84409" lon="9.19752">
        <ele>1917.01</ele>
        <time>2012-05-18T11:36:06Z</time>
      </trkpt>
      <trkpt lat="41.84408" lon="9.19762">
        <ele>1921.33</ele>
        <time>2012-05-18T11:36:21Z</time>
      </trkpt>
      <trkpt lat="41.84409" lon="9.19767">
        <ele>1923.25</ele>
        <time>2012-05-18T11:36:35Z</time>
      </trkpt>
      <trkpt lat="41.84409" lon="9.19776">
        <ele>1927.1</ele>
        <time>2012-05-18T11:36:51Z</time>
      </trkpt>
      <trkpt lat="41.84406" lon="9.1979">
        <ele>1929.5</ele>
        <time>2012-05-18T11:37:04Z</time>
      </trkpt>
      <trkpt lat="41.84407" lon="9.19802">
        <ele>1930.95</ele>
        <time>2012-05-18T11:37:16Z</time>
      </trkpt>
      <trkpt lat="41.84412" lon="9.19816">
        <ele>1932.87</ele>
        <time>2012-05-18T11:37:31Z</time>
      </trkpt>
      <trkpt lat="41.84415" lon="9.1982">
        <ele>1933.35</ele>
        <time>2012-05-18T11:37:37Z</time>
      </trkpt>
      <trkpt lat="41.84421" lon="9.19832">
        <ele>1934.31</ele>
        <time>2012-05-18T11:37:51Z</time>
      </trkpt>
      <trkpt lat="41.84421" lon="9.19833">
        <ele>1934.31</ele>
        <time>2012-05-18T11:37:52Z</time>
      </trkpt>
      <trkpt lat="41.8443" lon="9.19842">
        <ele>1934.31</ele>
        <time>2012-05-18T11:38:05Z</time>
      </trkpt>
      <trkpt lat="41.84432" lon="9.19857">
        <ele>1936.71</ele>
        <time>2012-05-18T11:38:18Z</time>
      </trkpt>
      <trkpt lat="41.84435" lon="9.19861">
        <ele>1937.67</ele>
        <time>2012-05-18T11:38:31Z</time>
      </trkpt>
      <trkpt lat="41.84442" lon="9.19872">
        <ele>1940.56</ele>
        <time>2012-05-18T11:38:43Z</time>
      </trkpt>
      <trkpt lat="41.84446" lon="9.19884">
        <ele>1943.92</ele>
        <time>2012-05-18T11:38:57Z</time>
      </trkpt>
      <trkpt lat="41.84448" lon="9.1989">
        <ele>1945.85</ele>
        <time>2012-05-18T11:39:10Z</time>
      </trkpt>
      <trkpt lat="41.84448" lon="9.1989">
        <ele>1945.85</ele>
        <time>2012-05-18T11:39:24Z</time>
      </trkpt>
      <trkpt lat="41.84448" lon="9.1989">
        <ele>1945.85</ele>
        <time>2012-05-18T11:39:37Z</time>
      </trkpt>
      <trkpt lat="41.84447" lon="9.19899">
        <ele>1946.33</ele>
        <time>2012-05-18T11:39:46Z</time>
      </trkpt>
      <trkpt lat="41.84449" lon="9.19919">
        <ele>1947.29</ele>
        <time>2012-05-18T11:39:59Z</time>
      </trkpt>
      <trkpt lat="41.84449" lon="9.1992">
        <ele>1947.29</ele>
        <time>2012-05-18T11:40:20Z</time>
      </trkpt>
      <trkpt lat="41.8445" lon="9.1993">
        <ele>1948.25</ele>
        <time>2012-05-18T11:40:35Z</time>
      </trkpt>
      <trkpt lat="41.84449" lon="9.19934">
        <ele>1949.21</ele>
        <time>2012-05-18T11:40:47Z</time>
      </trkpt>
      <trkpt lat="41.84449" lon="9.19935">
        <ele>1949.21</ele>
        <time>2012-05-18T11:41:39Z</time>
      </trkpt>
      <trkpt lat="41.84446" lon="9.19947">
        <ele>1950.17</ele>
        <time>2012-05-18T11:42:20Z</time>
      </trkpt>
      <trkpt lat="41.84449" lon="9.19958">
        <ele>1953.06</ele>
        <time>2012-05-18T11:42:32Z</time>
      </trkpt>
      <trkpt lat="41.84451" lon="9.19959">
        <ele>1953.54</ele>
        <time>2012-05-18T11:42:34Z</time>
      </trkpt>
      <trkpt lat="41.84458" lon="9.1997">
        <ele>1957.86</ele>
        <time>2012-05-18T11:42:49Z</time>
      </trkpt>
      <trkpt lat="41.84459" lon="9.19978">
        <ele>1958.82</ele>
        <time>2012-05-18T11:43:03Z</time>
      </trkpt>
      <trkpt lat="41.84461" lon="9.19987">
        <ele>1961.23</ele>
        <time>2012-05-18T11:43:15Z</time>
      </trkpt>
      <trkpt lat="41.84463" lon="9.19999">
        <ele>1963.15</ele>
        <time>2012-05-18T11:43:30Z</time>
      </trkpt>
      <trkpt lat="41.84463" lon="9.20001">
        <ele>1963.63</ele>
        <time>2012-05-18T11:43:49Z</time>
      </trkpt>
      <trkpt lat="41.84462" lon="9.20009">
        <ele>1964.59</ele>
        <time>2012-05-18T11:44:04Z</time>
      </trkpt>
      <trkpt lat="41.84463" lon="9.20017">
        <ele>1969.4</ele>
        <time>2012-05-18T11:44:17Z</time>
      </trkpt>
      <trkpt lat="41.84462" lon="9.20024">
        <ele>1971.32</ele>
        <time>2012-05-18T11:44:30Z</time>
      </trkpt>
      <trkpt lat="41.84457" lon="9.20033">
        <ele>1973.72</ele>
        <time>2012-05-18T11:44:46Z</time>
      </trkpt>
      <trkpt lat="41.84459" lon="9.20038">
        <ele>1976.13</ele>
        <time>2012-05-18T11:45:02Z</time>
      </trkpt>
      <trkpt lat="41.84464" lon="9.20048">
        <ele>1978.53</ele>
        <time>2012-05-18T11:45:14Z</time>
      </trkpt>
      <trkpt lat="41.84465" lon="9.20051">
        <ele>1979.01</ele>
        <time>2012-05-18T11:45:27Z</time>
      </trkpt>
      <trkpt lat="41.84466" lon="9.20063">
        <ele>1980.93</ele>
        <time>2012-05-18T11:45:41Z</time>
      </trkpt>
      <trkpt lat="41.84465" lon="9.20066">
        <ele>1981.9</ele>
        <time>2012-05-18T11:46:00Z</time>
      </trkpt>
      <trkpt lat="41.84465" lon="9.20066">
        <ele>1982.38</ele>
        <time>2012-05-18T11:49:54Z</time>
      </trkpt>
      <trkpt lat="41.84465" lon="9.20066">
        <ele>1982.38</ele>
        <time>2012-05-18T11:50:59Z</time>
      </trkpt>
      <trkpt lat="41.84465" lon="9.20075">
        <ele>1984.78</ele>
        <time>2012-05-18T11:51:20Z</time>
      </trkpt>
      <trkpt lat="41.84467" lon="9.20078">
        <ele>1984.78</ele>
        <time>2012-05-18T11:51:23Z</time>
      </trkpt>
      <trkpt lat="41.84469" lon="9.20086">
        <ele>1986.22</ele>
        <time>2012-05-18T11:51:35Z</time>
      </trkpt>
      <trkpt lat="41.84469" lon="9.201">
        <ele>1987.66</ele>
        <time>2012-05-18T11:51:48Z</time>
      </trkpt>
      <trkpt lat="41.84468" lon="9.20107">
        <ele>1990.07</ele>
        <time>2012-05-18T11:52:01Z</time>
      </trkpt>
      <trkpt lat="41.84468" lon="9.20116">
        <ele>1991.03</ele>
        <time>2012-05-18T11:52:14Z</time>
      </trkpt>
      <trkpt lat="41.84471" lon="9.20129">
        <ele>1992.47</ele>
        <time>2012-05-18T11:52:26Z</time>
      </trkpt>
      <trkpt lat="41.84476" lon="9.20135">
        <ele>1994.87</ele>
        <time>2012-05-18T11:52:34Z</time>
      </trkpt>
      <trkpt lat="41.84482" lon="9.20143">
        <ele>1997.28</ele>
        <time>2012-05-18T11:52:46Z</time>
      </trkpt>
      <trkpt lat="41.84482" lon="9.20154">
        <ele>1999.2</ele>
        <time>2012-05-18T11:52:58Z</time>
      </trkpt>
      <trkpt lat="41.84483" lon="9.20155">
        <ele>1999.2</ele>
        <time>2012-05-18T11:52:59Z</time>
      </trkpt>
      <trkpt lat="41.84488" lon="9.2017">
        <ele>1999.2</ele>
        <time>2012-05-18T11:53:13Z</time>
      </trkpt>
      <trkpt lat="41.84489" lon="9.20171">
        <ele>1999.2</ele>
        <time>2012-05-18T11:53:14Z</time>
      </trkpt>
      <trkpt lat="41.84491" lon="9.20173">
        <ele>1999.2</ele>
        <time>2012-05-18T11:53:17Z</time>
      </trkpt>
      <trkpt lat="41.84494" lon="9.20179">
        <ele>2000.64</ele>
        <time>2012-05-18T11:53:22Z</time>
      </trkpt>
      <trkpt lat="41.84496" lon="9.20182">
        <ele>2000.64</ele>
        <time>2012-05-18T11:53:25Z</time>
      </trkpt>
      <trkpt lat="41.84498" lon="9.20193">
        <ele>2001.6</ele>
        <time>2012-05-18T11:53:39Z</time>
      </trkpt>
      <trkpt lat="41.84499" lon="9.20201">
        <ele>2003.04</ele>
        <time>2012-05-18T11:53:46Z</time>
      </trkpt>
      <trkpt lat="41.84504" lon="9.20215">
        <ele>2005.45</ele>
        <time>2012-05-18T11:54:00Z</time>
      </trkpt>
      <trkpt lat="41.84508" lon="9.20222">
        <ele>2005.45</ele>
        <time>2012-05-18T11:54:07Z</time>
      </trkpt>
      <trkpt lat="41.84509" lon="9.20226">
        <ele>2005.93</ele>
        <time>2012-05-18T11:54:10Z</time>
      </trkpt>
      <trkpt lat="41.84515" lon="9.20241">
        <ele>2005.45</ele>
        <time>2012-05-18T11:54:24Z</time>
      </trkpt>
      <trkpt lat="41.84523" lon="9.20251">
        <ele>2005.45</ele>
        <time>2012-05-18T11:54:37Z</time>
      </trkpt>
      <trkpt lat="41.8453" lon="9.20259">
        <ele>2005.45</ele>
        <time>2012-05-18T11:54:49Z</time>
      </trkpt>
      <trkpt lat="41.84535" lon="9.20266">
        <ele>2004.97</ele>
        <time>2012-05-18T11:54:58Z</time>
      </trkpt>
      <trkpt lat="41.84538" lon="9.20267">
        <ele>2004.49</ele>
        <time>2012-05-18T11:55:01Z</time>
      </trkpt>
      <trkpt lat="41.84551" lon="9.2028">
        <ele>2004.49</ele>
        <time>2012-05-18T11:55:16Z</time>
      </trkpt>
      <trkpt lat="41.84563" lon="9.20292">
        <ele>2005.93</ele>
        <time>2012-05-18T11:55:30Z</time>
      </trkpt>
      <trkpt lat="41.84573" lon="9.20302">
        <ele>2007.37</ele>
        <time>2012-05-18T11:55:43Z</time>
      </trkpt>
      <trkpt lat="41.84577" lon="9.20303">
        <ele>2007.85</ele>
        <time>2012-05-18T11:55:47Z</time>
      </trkpt>
      <trkpt lat="41.8459" lon="9.20316">
        <ele>2010.25</ele>
        <time>2012-05-18T11:56:02Z</time>
      </trkpt>
      <trkpt lat="41.84602" lon="9.20328">
        <ele>2014.58</ele>
        <time>2012-05-18T11:56:16Z</time>
      </trkpt>
      <trkpt lat="41.84604" lon="9.2033">
        <ele>2014.58</ele>
        <time>2012-05-18T11:56:18Z</time>
      </trkpt>
      <trkpt lat="41.84609" lon="9.20341">
        <ele>2018.43</ele>
        <time>2012-05-18T11:56:29Z</time>
      </trkpt>
      <trkpt lat="41.84607" lon="9.20348">
        <ele>2020.83</ele>
        <time>2012-05-18T11:56:38Z</time>
      </trkpt>
      <trkpt lat="41.84603" lon="9.20358">
        <ele>2023.23</ele>
        <time>2012-05-18T11:56:51Z</time>
      </trkpt>
      <trkpt lat="41.84603" lon="9.20361">
        <ele>2023.71</ele>
        <time>2012-05-18T11:56:54Z</time>
      </trkpt>
      <trkpt lat="41.84605" lon="9.20368">
        <ele>2024.19</ele>
        <time>2012-05-18T11:57:08Z</time>
      </trkpt>
      <trkpt lat="41.84605" lon="9.20368">
        <ele>2024.19</ele>
        <time>2012-05-18T11:57:30Z</time>
      </trkpt>
      <trkpt lat="41.84603" lon="9.20367">
        <ele>2024.67</ele>
        <time>2012-05-18T12:03:14Z</time>
      </trkpt>
      <trkpt lat="41.84602" lon="9.20366">
        <ele>2024.67</ele>
        <time>2012-05-18T12:03:33Z</time>
      </trkpt>
      <trkpt lat="41.84602" lon="9.20366">
        <ele>2024.67</ele>
        <time>2012-05-18T12:04:19Z</time>
      </trkpt>
      <trkpt lat="41.84602" lon="9.20366">
        <ele>2024.19</ele>
        <time>2012-05-18T12:06:55Z</time>
      </trkpt>
      <trkpt lat="41.84602" lon="9.20366">
        <ele>2024.19</ele>
        <time>2012-05-18T12:07:08Z</time>
      </trkpt>
      <trkpt lat="41.84602" lon="9.20366">
        <ele>2024.19</ele>
        <time>2012-05-18T12:07:24Z</time>
      </trkpt>
      <trkpt lat="41.84602" lon="9.20366">
        <ele>2024.19</ele>
        <time>2012-05-18T12:07:44Z</time>
      </trkpt>
      <trkpt lat="41.84602" lon="9.20366">
        <ele>2024.19</ele>
        <time>2012-05-18T12:07:45Z</time>
      </trkpt>
      <trkpt lat="41.84605" lon="9.20366">
        <ele>2024.19</ele>
        <time>2012-05-18T12:07:48Z</time>
      </trkpt>
      <trkpt lat="41.84609" lon="9.20367">
        <ele>2024.19</ele>
        <time>2012-05-18T12:07:51Z</time>
      </trkpt>
      <trkpt lat="41.84614" lon="9.20368">
        <ele>2023.71</ele>
        <time>2012-05-18T12:07:55Z</time>
      </trkpt>
      <trkpt lat="41.84622" lon="9.20372">
        <ele>2023.71</ele>
        <time>2012-05-18T12:08:01Z</time>
      </trkpt>
      <trkpt lat="41.84625" lon="9.20374">
        <ele>2023.23</ele>
        <time>2012-05-18T12:08:03Z</time>
      </trkpt>
      <trkpt lat="41.84632" lon="9.20377">
        <ele>2022.75</ele>
        <time>2012-05-18T12:08:09Z</time>
      </trkpt>
      <trkpt lat="41.84636" lon="9.20377">
        <ele>2021.79</ele>
        <time>2012-05-18T12:08:14Z</time>
      </trkpt>
      <trkpt lat="41.84639" lon="9.20379">
        <ele>2022.27</ele>
        <time>2012-05-18T12:08:17Z</time>
      </trkpt>
      <trkpt lat="41.84641" lon="9.20378">
        <ele>2022.27</ele>
        <time>2012-05-18T12:08:19Z</time>
      </trkpt>
      <trkpt lat="41.84652" lon="9.2038">
        <ele>2023.71</ele>
        <time>2012-05-18T12:08:32Z</time>
      </trkpt>
      <trkpt lat="41.84654" lon="9.20379">
        <ele>2023.71</ele>
        <time>2012-05-18T12:08:34Z</time>
      </trkpt>
      <trkpt lat="41.8466" lon="9.20375">
        <ele>2022.75</ele>
        <time>2012-05-18T12:08:49Z</time>
      </trkpt>
      <trkpt lat="41.84668" lon="9.20377">
        <ele>2021.79</ele>
        <time>2012-05-18T12:08:59Z</time>
      </trkpt>
      <trkpt lat="41.84678" lon="9.20381">
        <ele>2020.35</ele>
        <time>2012-05-18T12:09:12Z</time>
      </trkpt>
      <trkpt lat="41.84687" lon="9.20384">
        <ele>2022.27</ele>
        <time>2012-05-18T12:09:24Z</time>
      </trkpt>
      <trkpt lat="41.84691" lon="9.20384">
        <ele>2022.27</ele>
        <time>2012-05-18T12:09:28Z</time>
      </trkpt>
      <trkpt lat="41.84699" lon="9.20386">
        <ele>2022.75</ele>
        <time>2012-05-18T12:09:41Z</time>
      </trkpt>
      <trkpt lat="41.84704" lon="9.20388">
        <ele>2023.71</ele>
        <time>2012-05-18T12:09:51Z</time>
      </trkpt>
      <trkpt lat="41.84707" lon="9.20389">
        <ele>2024.19</ele>
        <time>2012-05-18T12:10:03Z</time>
      </trkpt>
      <trkpt lat="41.84712" lon="9.20391">
        <ele>2024.67</ele>
        <time>2012-05-18T12:10:15Z</time>
      </trkpt>
      <trkpt lat="41.84715" lon="9.20398">
        <ele>2026.6</ele>
        <time>2012-05-18T12:10:26Z</time>
      </trkpt>
      <trkpt lat="41.8472" lon="9.20401">
        <ele>2028.52</ele>
        <time>2012-05-18T12:10:35Z</time>
      </trkpt>
      <trkpt lat="41.84723" lon="9.20406">
        <ele>2029.96</ele>
        <time>2012-05-18T12:10:49Z</time>
      </trkpt>
      <trkpt lat="41.84723" lon="9.20407">
        <ele>2030.44</ele>
        <time>2012-05-18T12:11:02Z</time>
      </trkpt>
      <trkpt lat="41.84721" lon="9.20409">
        <ele>2031.88</ele>
        <time>2012-05-18T12:11:14Z</time>
      </trkpt>
      <trkpt lat="41.84723" lon="9.20415">
        <ele>2034.77</ele>
        <time>2012-05-18T12:11:24Z</time>
      </trkpt>
      <trkpt lat="41.84723" lon="9.20415">
        <ele>2034.77</ele>
        <time>2012-05-18T12:11:37Z</time>
      </trkpt>
      <trkpt lat="41.84723" lon="9.20415">
        <ele>2034.77</ele>
        <time>2012-05-18T12:11:50Z</time>
      </trkpt>
      <trkpt lat="41.84723" lon="9.20415">
        <ele>2034.77</ele>
        <time>2012-05-18T12:12:03Z</time>
      </trkpt>
      <trkpt lat="41.84723" lon="9.20415">
        <ele>2034.77</ele>
        <time>2012-05-18T12:12:18Z</time>
      </trkpt>
      <trkpt lat="41.84725" lon="9.20417">
        <ele>2035.25</ele>
        <time>2012-05-18T12:12:31Z</time>
      </trkpt>
      <trkpt lat="41.84733" lon="9.20425">
        <ele>2040.54</ele>
        <time>2012-05-18T12:12:44Z</time>
      </trkpt>
      <trkpt lat="41.8474" lon="9.20439">
        <ele>2043.9</ele>
        <time>2012-05-18T12:12:57Z</time>
      </trkpt>
      <trkpt lat="41.84746" lon="9.20442">
        <ele>2046.78</ele>
        <time>2012-05-18T12:13:10Z</time>
      </trkpt>
      <trkpt lat="41.8475" lon="9.20449">
        <ele>2047.26</ele>
        <time>2012-05-18T12:13:29Z</time>
      </trkpt>
      <trkpt lat="41.84757" lon="9.20463">
        <ele>2048.71</ele>
        <time>2012-05-18T12:13:41Z</time>
      </trkpt>
      <trkpt lat="41.84758" lon="9.20463">
        <ele>2049.19</ele>
        <time>2012-05-18T12:13:42Z</time>
      </trkpt>
      <trkpt lat="41.84765" lon="9.20473">
        <ele>2051.59</ele>
        <time>2012-05-18T12:13:54Z</time>
      </trkpt>
      <trkpt lat="41.84767" lon="9.20474">
        <ele>2052.55</ele>
        <time>2012-05-18T12:13:56Z</time>
      </trkpt>
      <trkpt lat="41.84777" lon="9.20483">
        <ele>2055.92</ele>
        <time>2012-05-18T12:14:10Z</time>
      </trkpt>
      <trkpt lat="41.84788" lon="9.20488">
        <ele>2058.8</ele>
        <time>2012-05-18T12:14:22Z</time>
      </trkpt>
      <trkpt lat="41.84789" lon="9.20489">
        <ele>2059.28</ele>
        <time>2012-05-18T12:14:23Z</time>
      </trkpt>
      <trkpt lat="41.84797" lon="9.20496">
        <ele>2062.65</ele>
        <time>2012-05-18T12:14:36Z</time>
      </trkpt>
      <trkpt lat="41.848" lon="9.20503">
        <ele>2066.49</ele>
        <time>2012-05-18T12:14:48Z</time>
      </trkpt>
      <trkpt lat="41.84805" lon="9.20513">
        <ele>2072.26</ele>
        <time>2012-05-18T12:15:03Z</time>
      </trkpt>
      <trkpt lat="41.84804" lon="9.20518">
        <ele>2074.18</ele>
        <time>2012-05-18T12:15:15Z</time>
      </trkpt>
      <trkpt lat="41.84812" lon="9.20523">
        <ele>2074.66</ele>
        <time>2012-05-18T12:15:28Z</time>
      </trkpt>
      <trkpt lat="41.84814" lon="9.20522">
        <ele>2074.66</ele>
        <time>2012-05-18T12:15:31Z</time>
      </trkpt>
      <trkpt lat="41.8482" lon="9.20533">
        <ele>2074.66</ele>
        <time>2012-05-18T12:15:44Z</time>
      </trkpt>
      <trkpt lat="41.84822" lon="9.20539">
        <ele>2076.59</ele>
        <time>2012-05-18T12:15:56Z</time>
      </trkpt>
      <trkpt lat="41.84826" lon="9.2054">
        <ele>2077.07</ele>
        <time>2012-05-18T12:16:01Z</time>
      </trkpt>
      <trkpt lat="41.84835" lon="9.20548">
        <ele>2077.55</ele>
        <time>2012-05-18T12:16:12Z</time>
      </trkpt>
      <trkpt lat="41.84841" lon="9.20554">
        <ele>2077.55</ele>
        <time>2012-05-18T12:16:21Z</time>
      </trkpt>
      <trkpt lat="41.84844" lon="9.20567">
        <ele>2079.47</ele>
        <time>2012-05-18T12:16:34Z</time>
      </trkpt>
      <trkpt lat="41.84843" lon="9.20569">
        <ele>2080.43</ele>
        <time>2012-05-18T12:16:38Z</time>
      </trkpt>
      <trkpt lat="41.8484" lon="9.20572">
        <ele>2082.35</ele>
        <time>2012-05-18T12:16:51Z</time>
      </trkpt>
      <trkpt lat="41.84852" lon="9.20571">
        <ele>2081.87</ele>
        <time>2012-05-18T12:17:06Z</time>
      </trkpt>
      <trkpt lat="41.84852" lon="9.20568">
        <ele>2082.83</ele>
        <time>2012-05-18T12:17:35Z</time>
      </trkpt>
      <trkpt lat="41.84853" lon="9.20573">
        <ele>2082.83</ele>
        <time>2012-05-18T12:18:04Z</time>
      </trkpt>
      <trkpt lat="41.84856" lon="9.20573">
        <ele>2083.31</ele>
        <time>2012-05-18T12:18:15Z</time>
      </trkpt>
      <trkpt lat="41.8486" lon="9.20573">
        <ele>2086.2</ele>
        <time>2012-05-18T12:18:28Z</time>
      </trkpt>
      <trkpt lat="41.84865" lon="9.20579">
        <ele>2086.68</ele>
        <time>2012-05-18T12:18:39Z</time>
      </trkpt>
      <trkpt lat="41.8487" lon="9.20581">
        <ele>2085.24</ele>
        <time>2012-05-18T12:18:48Z</time>
      </trkpt>
      <trkpt lat="41.84874" lon="9.20591">
        <ele>2084.28</ele>
        <time>2012-05-18T12:18:58Z</time>
      </trkpt>
      <trkpt lat="41.84878" lon="9.20596">
        <ele>2084.28</ele>
        <time>2012-05-18T12:19:13Z</time>
      </trkpt>
      <trkpt lat="41.84884" lon="9.20605">
        <ele>2086.2</ele>
        <time>2012-05-18T12:19:26Z</time>
      </trkpt>
      <trkpt lat="41.84885" lon="9.2061">
        <ele>2088.6</ele>
        <time>2012-05-18T12:19:38Z</time>
      </trkpt>
      <trkpt lat="41.84884" lon="9.20612">
        <ele>2090.04</ele>
        <time>2012-05-18T12:19:47Z</time>
      </trkpt>
      <trkpt lat="41.84885" lon="9.20615">
        <ele>2093.89</ele>
        <time>2012-05-18T12:19:59Z</time>
      </trkpt>
      <trkpt lat="41.84888" lon="9.20617">
        <ele>2095.33</ele>
        <time>2012-05-18T12:20:06Z</time>
      </trkpt>
      <trkpt lat="41.84887" lon="9.20625">
        <ele>2095.81</ele>
        <time>2012-05-18T12:20:19Z</time>
      </trkpt>
      <trkpt lat="41.84892" lon="9.20625">
        <ele>2096.77</ele>
        <time>2012-05-18T12:20:31Z</time>
      </trkpt>
      <trkpt lat="41.84897" lon="9.20626">
        <ele>2098.21</ele>
        <time>2012-05-18T12:20:42Z</time>
      </trkpt>
      <trkpt lat="41.849" lon="9.20625">
        <ele>2098.21</ele>
        <time>2012-05-18T12:20:48Z</time>
      </trkpt>
      <trkpt lat="41.84905" lon="9.20633">
        <ele>2099.18</ele>
        <time>2012-05-18T12:21:00Z</time>
      </trkpt>
      <trkpt lat="41.84905" lon="9.20637">
        <ele>2101.58</ele>
        <time>2012-05-18T12:21:12Z</time>
      </trkpt>
      <trkpt lat="41.84909" lon="9.20639">
        <ele>2103.5</ele>
        <time>2012-05-18T12:21:22Z</time>
      </trkpt>
      <trkpt lat="41.84911" lon="9.20643">
        <ele>2105.42</ele>
        <time>2012-05-18T12:21:34Z</time>
      </trkpt>
      <trkpt lat="41.84916" lon="9.20645">
        <ele>2107.35</ele>
        <time>2012-05-18T12:21:46Z</time>
      </trkpt>
      <trkpt lat="41.84923" lon="9.20652">
        <ele>2108.79</ele>
        <time>2012-05-18T12:21:57Z</time>
      </trkpt>
      <trkpt lat="41.84926" lon="9.2066">
        <ele>2109.75</ele>
        <time>2012-05-18T12:22:04Z</time>
      </trkpt>
      <trkpt lat="41.84928" lon="9.20662">
        <ele>2109.75</ele>
        <time>2012-05-18T12:22:07Z</time>
      </trkpt>
      <trkpt lat="41.8493" lon="9.20664">
        <ele>2110.23</ele>
        <time>2012-05-18T12:22:10Z</time>
      </trkpt>
      <trkpt lat="41.84933" lon="9.20668">
        <ele>2111.19</ele>
        <time>2012-05-18T12:22:14Z</time>
      </trkpt>
      <trkpt lat="41.84937" lon="9.20674">
        <ele>2115.52</ele>
        <time>2012-05-18T12:22:27Z</time>
      </trkpt>
      <trkpt lat="41.84933" lon="9.2068">
        <ele>2119.84</ele>
        <time>2012-05-18T12:22:40Z</time>
      </trkpt>
      <trkpt lat="41.84938" lon="9.20683">
        <ele>2120.32</ele>
        <time>2012-05-18T12:22:52Z</time>
      </trkpt>
      <trkpt lat="41.84941" lon="9.20691">
        <ele>2122.25</ele>
        <time>2012-05-18T12:23:04Z</time>
      </trkpt>
      <trkpt lat="41.84943" lon="9.20697">
        <ele>2121.77</ele>
        <time>2012-05-18T12:23:10Z</time>
      </trkpt>
      <trkpt lat="41.8495" lon="9.20706">
        <ele>2124.65</ele>
        <time>2012-05-18T12:23:23Z</time>
      </trkpt>
      <trkpt lat="41.84958" lon="9.20714">
        <ele>2124.65</ele>
        <time>2012-05-18T12:23:36Z</time>
      </trkpt>
      <trkpt lat="41.84961" lon="9.20726">
        <ele>2127.05</ele>
        <time>2012-05-18T12:23:50Z</time>
      </trkpt>
      <trkpt lat="41.84959" lon="9.20737">
        <ele>2129.94</ele>
        <time>2012-05-18T12:24:02Z</time>
      </trkpt>
      <trkpt lat="41.84953" lon="9.20741">
        <ele>2135.23</ele>
        <time>2012-05-18T12:24:17Z</time>
      </trkpt>
      <trkpt lat="41.84949" lon="9.20737">
        <ele>2138.59</ele>
        <time>2012-05-18T12:24:30Z</time>
      </trkpt>
      <trkpt lat="41.84948" lon="9.20736">
        <ele>2139.07</ele>
        <time>2012-05-18T12:24:45Z</time>
      </trkpt>
      <trkpt lat="41.84945" lon="9.20734">
        <ele>2137.63</ele>
        <time>2012-05-18T12:27:36Z</time>
      </trkpt>
      <trkpt lat="41.84945" lon="9.20736">
        <ele>2135.71</ele>
        <time>2012-05-18T12:27:55Z</time>
      </trkpt>
      <trkpt lat="41.84945" lon="9.20736">
        <ele>2136.19</ele>
        <time>2012-05-18T12:28:17Z</time>
      </trkpt>
      <trkpt lat="41.84947" lon="9.20735">
        <ele>2135.71</ele>
        <time>2012-05-18T12:29:48Z</time>
      </trkpt>
      <trkpt lat="41.84947" lon="9.20735">
        <ele>2135.71</ele>
        <time>2012-05-18T12:30:10Z</time>
      </trkpt>
      <trkpt lat="41.84947" lon="9.20735">
        <ele>2135.71</ele>
        <time>2012-05-18T12:32:31Z</time>
      </trkpt>
      <trkpt lat="41.84947" lon="9.20736">
        <ele>2136.67</ele>
        <time>2012-05-18T12:36:02Z</time>
      </trkpt>
      <trkpt lat="41.84947" lon="9.20735">
        <ele>2137.63</ele>
        <time>2012-05-18T12:36:35Z</time>
      </trkpt>
      <trkpt lat="41.84947" lon="9.20735">
        <ele>2137.63</ele>
        <time>2012-05-18T12:36:59Z</time>
      </trkpt>
      <trkpt lat="41.8495" lon="9.2074">
        <ele>2137.15</ele>
        <time>2012-05-18T12:37:19Z</time>
      </trkpt>
      <trkpt lat="41.84958" lon="9.20742">
        <ele>2134.74</ele>
        <time>2012-05-18T12:37:29Z</time>
      </trkpt>
      <trkpt lat="41.84964" lon="9.20738">
        <ele>2134.26</ele>
        <time>2012-05-18T12:37:35Z</time>
      </trkpt>
      <trkpt lat="41.84979" lon="9.20728">
        <ele>2130.42</ele>
        <time>2012-05-18T12:37:49Z</time>
      </trkpt>
      <trkpt lat="41.84988" lon="9.20726">
        <ele>2130.42</ele>
        <time>2012-05-18T12:38:01Z</time>
      </trkpt>
      <trkpt lat="41.84988" lon="9.20726">
        <ele>2130.42</ele>
        <time>2012-05-18T12:38:22Z</time>
      </trkpt>
      <trkpt lat="41.84988" lon="9.20725">
        <ele>2130.42</ele>
        <time>2012-05-18T12:38:42Z</time>
      </trkpt>
      <trkpt lat="41.84987" lon="9.20727">
        <ele>2130.9</ele>
        <time>2012-05-18T12:38:53Z</time>
      </trkpt>
      <trkpt lat="41.84987" lon="9.2073">
        <ele>2131.38</ele>
        <time>2012-05-18T12:38:55Z</time>
      </trkpt>
      <trkpt lat="41.84985" lon="9.20736">
        <ele>2131.38</ele>
        <time>2012-05-18T12:39:02Z</time>
      </trkpt>
      <trkpt lat="41.84993" lon="9.20749">
        <ele>2129.46</ele>
        <time>2012-05-18T12:39:15Z</time>
      </trkpt>
      <trkpt lat="41.84999" lon="9.20759">
        <ele>2128.98</ele>
        <time>2012-05-18T12:39:24Z</time>
      </trkpt>
      <trkpt lat="41.85005" lon="9.20762">
        <ele>2127.53</ele>
        <time>2012-05-18T12:39:30Z</time>
      </trkpt>
      <trkpt lat="41.85011" lon="9.20778">
        <ele>2128.02</ele>
        <time>2012-05-18T12:39:42Z</time>
      </trkpt>
      <trkpt lat="41.85012" lon="9.20779">
        <ele>2128.02</ele>
        <time>2012-05-18T12:39:43Z</time>
      </trkpt>
      <trkpt lat="41.85015" lon="9.20787">
        <ele>2128.5</ele>
        <time>2012-05-18T12:39:56Z</time>
      </trkpt>
      <trkpt lat="41.85014" lon="9.20786">
        <ele>2128.98</ele>
        <time>2012-05-18T12:40:18Z</time>
      </trkpt>
      <trkpt lat="41.85016" lon="9.20778">
        <ele>2129.94</ele>
        <time>2012-05-18T12:40:29Z</time>
      </trkpt>
      <trkpt lat="41.85019" lon="9.20774">
        <ele>2129.46</ele>
        <time>2012-05-18T12:40:33Z</time>
      </trkpt>
      <trkpt lat="41.85019" lon="9.20772">
        <ele>2128.98</ele>
        <time>2012-05-18T12:40:35Z</time>
      </trkpt>
      <trkpt lat="41.85023" lon="9.20768">
        <ele>2128.98</ele>
        <time>2012-05-18T12:40:40Z</time>
      </trkpt>
      <trkpt lat="41.85028" lon="9.20763">
        <ele>2128.02</ele>
        <time>2012-05-18T12:40:56Z</time>
      </trkpt>
      <trkpt lat="41.85028" lon="9.20764">
        <ele>2127.53</ele>
        <time>2012-05-18T12:41:31Z</time>
      </trkpt>
      <trkpt lat="41.85032" lon="9.20769">
        <ele>2127.05</ele>
        <time>2012-05-18T12:41:37Z</time>
      </trkpt>
      <trkpt lat="41.85043" lon="9.20775">
        <ele>2125.61</ele>
        <time>2012-05-18T12:41:50Z</time>
      </trkpt>
      <trkpt lat="41.85044" lon="9.20777">
        <ele>2125.13</ele>
        <time>2012-05-18T12:41:52Z</time>
      </trkpt>
      <trkpt lat="41.85048" lon="9.20782">
        <ele>2125.13</ele>
        <time>2012-05-18T12:41:58Z</time>
      </trkpt>
      <trkpt lat="41.85053" lon="9.2079">
        <ele>2128.5</ele>
        <time>2012-05-18T12:42:11Z</time>
      </trkpt>
      <trkpt lat="41.85054" lon="9.20793">
        <ele>2129.46</ele>
        <time>2012-05-18T12:42:27Z</time>
      </trkpt>
      <trkpt lat="41.85052" lon="9.20788">
        <ele>2129.94</ele>
        <time>2012-05-18T12:42:43Z</time>
      </trkpt>
      <trkpt lat="41.85051" lon="9.20788">
        <ele>2129.94</ele>
        <time>2012-05-18T12:42:44Z</time>
      </trkpt>
      <trkpt lat="41.85041" lon="9.20779">
        <ele>2127.05</ele>
        <time>2012-05-18T12:42:58Z</time>
      </trkpt>
      <trkpt lat="41.85035" lon="9.20775">
        <ele>2126.09</ele>
        <time>2012-05-18T12:43:10Z</time>
      </trkpt>
      <trkpt lat="41.85032" lon="9.20774">
        <ele>2126.57</ele>
        <time>2012-05-18T12:43:14Z</time>
      </trkpt>
      <trkpt lat="41.8502" lon="9.2077">
        <ele>2128.5</ele>
        <time>2012-05-18T12:43:28Z</time>
      </trkpt>
      <trkpt lat="41.85013" lon="9.20762">
        <ele>2128.02</ele>
        <time>2012-05-18T12:43:38Z</time>
      </trkpt>
      <trkpt lat="41.85009" lon="9.2075">
        <ele>2128.02</ele>
        <time>2012-05-18T12:43:48Z</time>
      </trkpt>
      <trkpt lat="41.85004" lon="9.20745">
        <ele>2128.98</ele>
        <time>2012-05-18T12:43:54Z</time>
      </trkpt>
      <trkpt lat="41.8499" lon="9.20739">
        <ele>2129.94</ele>
        <time>2012-05-18T12:44:09Z</time>
      </trkpt>
      <trkpt lat="41.84988" lon="9.20737">
        <ele>2130.42</ele>
        <time>2012-05-18T12:44:12Z</time>
      </trkpt>
      <trkpt lat="41.84973" lon="9.20731">
        <ele>2130.42</ele>
        <time>2012-05-18T12:44:25Z</time>
      </trkpt>
      <trkpt lat="41.84972" lon="9.2073">
        <ele>2130.42</ele>
        <time>2012-05-18T12:44:26Z</time>
      </trkpt>
      <trkpt lat="41.84963" lon="9.20723">
        <ele>2128.98</ele>
        <time>2012-05-18T12:44:40Z</time>
      </trkpt>
      <trkpt lat="41.84962" lon="9.20721">
        <ele>2128.98</ele>
        <time>2012-05-18T12:45:45Z</time>
      </trkpt>
      <trkpt lat="41.84959" lon="9.20719">
        <ele>2128.98</ele>
        <time>2012-05-18T12:45:51Z</time>
      </trkpt>
      <trkpt lat="41.84948" lon="9.20706">
        <ele>2127.05</ele>
        <time>2012-05-18T12:46:05Z</time>
      </trkpt>
      <trkpt lat="41.84939" lon="9.20694">
        <ele>2124.65</ele>
        <time>2012-05-18T12:46:19Z</time>
      </trkpt>
      <trkpt lat="41.84937" lon="9.20691">
        <ele>2123.69</ele>
        <time>2012-05-18T12:46:22Z</time>
      </trkpt>
      <trkpt lat="41.84934" lon="9.20685">
        <ele>2121.77</ele>
        <time>2012-05-18T12:46:34Z</time>
      </trkpt>
      <trkpt lat="41.8493" lon="9.20678">
        <ele>2120.32</ele>
        <time>2012-05-18T12:46:46Z</time>
      </trkpt>
      <trkpt lat="41.84929" lon="9.20672">
        <ele>2118.88</ele>
        <time>2012-05-18T12:47:01Z</time>
      </trkpt>
      <trkpt lat="41.84928" lon="9.20666">
        <ele>2118.88</ele>
        <time>2012-05-18T12:47:09Z</time>
      </trkpt>
      <trkpt lat="41.84927" lon="9.20665">
        <ele>2118.4</ele>
        <time>2012-05-18T12:47:11Z</time>
      </trkpt>
      <trkpt lat="41.84922" lon="9.20663">
        <ele>2118.4</ele>
        <time>2012-05-18T12:47:15Z</time>
      </trkpt>
      <trkpt lat="41.84921" lon="9.20661">
        <ele>2118.4</ele>
        <time>2012-05-18T12:47:17Z</time>
      </trkpt>
      <trkpt lat="41.84917" lon="9.20647">
        <ele>2115.04</ele>
        <time>2012-05-18T12:47:32Z</time>
      </trkpt>
      <trkpt lat="41.84916" lon="9.20647">
        <ele>2115.04</ele>
        <time>2012-05-18T12:47:57Z</time>
      </trkpt>
      <trkpt lat="41.84916" lon="9.20647">
        <ele>2115.04</ele>
        <time>2012-05-18T12:48:07Z</time>
      </trkpt>
      <trkpt lat="41.84911" lon="9.20645">
        <ele>2114.08</ele>
        <time>2012-05-18T12:48:19Z</time>
      </trkpt>
      <trkpt lat="41.84909" lon="9.2064">
        <ele>2112.63</ele>
        <time>2012-05-18T12:48:29Z</time>
      </trkpt>
      <trkpt lat="41.84905" lon="9.20637">
        <ele>2111.19</ele>
        <time>2012-05-18T12:48:40Z</time>
      </trkpt>
      <trkpt lat="41.84903" lon="9.20634">
        <ele>2108.79</ele>
        <time>2012-05-18T12:48:52Z</time>
      </trkpt>
      <trkpt lat="41.84899" lon="9.20628">
        <ele>2105.91</ele>
        <time>2012-05-18T12:49:05Z</time>
      </trkpt>
      <trkpt lat="41.84893" lon="9.20628">
        <ele>2104.46</ele>
        <time>2012-05-18T12:49:18Z</time>
      </trkpt>
      <trkpt lat="41.8489" lon="9.20624">
        <ele>2103.5</ele>
        <time>2012-05-18T12:49:32Z</time>
      </trkpt>
      <trkpt lat="41.84886" lon="9.20619">
        <ele>2101.1</ele>
        <time>2012-05-18T12:49:46Z</time>
      </trkpt>
      <trkpt lat="41.84882" lon="9.20617">
        <ele>2099.66</ele>
        <time>2012-05-18T12:49:59Z</time>
      </trkpt>
      <trkpt lat="41.84881" lon="9.20613">
        <ele>2096.77</ele>
        <time>2012-05-18T12:50:10Z</time>
      </trkpt>
      <trkpt lat="41.84883" lon="9.20606">
        <ele>2092.93</ele>
        <time>2012-05-18T12:50:23Z</time>
      </trkpt>
      <trkpt lat="41.84883" lon="9.20604">
        <ele>2091.97</ele>
        <time>2012-05-18T12:50:28Z</time>
      </trkpt>
      <trkpt lat="41.8488" lon="9.20602">
        <ele>2091.97</ele>
        <time>2012-05-18T12:50:32Z</time>
      </trkpt>
      <trkpt lat="41.84877" lon="9.20598">
        <ele>2091.49</ele>
        <time>2012-05-18T12:50:37Z</time>
      </trkpt>
      <trkpt lat="41.84869" lon="9.20582">
        <ele>2090.52</ele>
        <time>2012-05-18T12:50:50Z</time>
      </trkpt>
      <trkpt lat="41.84864" lon="9.20579">
        <ele>2089.56</ele>
        <time>2012-05-18T12:50:57Z</time>
      </trkpt>
      <trkpt lat="41.84859" lon="9.20575">
        <ele>2089.08</ele>
        <time>2012-05-18T12:51:10Z</time>
      </trkpt>
      <trkpt lat="41.84856" lon="9.20573">
        <ele>2089.56</ele>
        <time>2012-05-18T12:51:25Z</time>
      </trkpt>
      <trkpt lat="41.84851" lon="9.20569">
        <ele>2087.16</ele>
        <time>2012-05-18T12:51:37Z</time>
      </trkpt>
      <trkpt lat="41.84851" lon="9.20569">
        <ele>2087.16</ele>
        <time>2012-05-18T12:51:44Z</time>
      </trkpt>
      <trkpt lat="41.84849" lon="9.2057">
        <ele>2087.16</ele>
        <time>2012-05-18T12:51:52Z</time>
      </trkpt>
      <trkpt lat="41.84849" lon="9.20569">
        <ele>2087.16</ele>
        <time>2012-05-18T12:52:05Z</time>
      </trkpt>
      <trkpt lat="41.84849" lon="9.20569">
        <ele>2088.6</ele>
        <time>2012-05-18T12:54:50Z</time>
      </trkpt>
      <trkpt lat="41.8485" lon="9.20569">
        <ele>2089.08</ele>
        <time>2012-05-18T12:57:31Z</time>
      </trkpt>
      <trkpt lat="41.8485" lon="9.2057">
        <ele>2090.04</ele>
        <time>2012-05-18T13:02:20Z</time>
      </trkpt>
      <trkpt lat="41.8485" lon="9.20569">
        <ele>2091.49</ele>
        <time>2012-05-18T13:07:44Z</time>
      </trkpt>
      <trkpt lat="41.8485" lon="9.2057">
        <ele>2091.49</ele>
        <time>2012-05-18T13:13:12Z</time>
      </trkpt>
      <trkpt lat="41.84851" lon="9.20569">
        <ele>2091</ele>
        <time>2012-05-18T13:14:27Z</time>
      </trkpt>
      <trkpt lat="41.8485" lon="9.20569">
        <ele>2091.97</ele>
        <time>2012-05-18T13:15:25Z</time>
      </trkpt>
      <trkpt lat="41.8485" lon="9.20571">
        <ele>2090.04</ele>
        <time>2012-05-18T13:15:53Z</time>
      </trkpt>
      <trkpt lat="41.84849" lon="9.20572">
        <ele>2088.12</ele>
        <time>2012-05-18T13:16:11Z</time>
      </trkpt>
      <trkpt lat="41.84849" lon="9.20572">
        <ele>2087.16</ele>
        <time>2012-05-18T13:16:29Z</time>
      </trkpt>
      <trkpt lat="41.8485" lon="9.20571">
        <ele>2086.68</ele>
        <time>2012-05-18T13:17:13Z</time>
      </trkpt>
      <trkpt lat="41.84848" lon="9.20572">
        <ele>2085.24</ele>
        <time>2012-05-18T13:17:27Z</time>
      </trkpt>
      <trkpt lat="41.84846" lon="9.20572">
        <ele>2083.79</ele>
        <time>2012-05-18T13:18:16Z</time>
      </trkpt>
      <trkpt lat="41.84845" lon="9.20571">
        <ele>2083.79</ele>
        <time>2012-05-18T13:18:23Z</time>
      </trkpt>
      <trkpt lat="41.84842" lon="9.20565">
        <ele>2084.76</ele>
        <time>2012-05-18T13:18:28Z</time>
      </trkpt>
      <trkpt lat="41.84841" lon="9.20559">
        <ele>2085.72</ele>
        <time>2012-05-18T13:18:34Z</time>
      </trkpt>
      <trkpt lat="41.84826" lon="9.20542">
        <ele>2086.2</ele>
        <time>2012-05-18T13:18:50Z</time>
      </trkpt>
      <trkpt lat="41.84822" lon="9.20538">
        <ele>2085.24</ele>
        <time>2012-05-18T13:19:02Z</time>
      </trkpt>
      <trkpt lat="41.84819" lon="9.20533">
        <ele>2084.76</ele>
        <time>2012-05-18T13:19:07Z</time>
      </trkpt>
      <trkpt lat="41.84816" lon="9.20528">
        <ele>2083.79</ele>
        <time>2012-05-18T13:19:12Z</time>
      </trkpt>
      <trkpt lat="41.8481" lon="9.20522">
        <ele>2080.43</ele>
        <time>2012-05-18T13:19:23Z</time>
      </trkpt>
      <trkpt lat="41.848" lon="9.20516">
        <ele>2078.99</ele>
        <time>2012-05-18T13:19:36Z</time>
      </trkpt>
      <trkpt lat="41.8479" lon="9.20506">
        <ele>2077.55</ele>
        <time>2012-05-18T13:19:49Z</time>
      </trkpt>
      <trkpt lat="41.84787" lon="9.20502">
        <ele>2076.1</ele>
        <time>2012-05-18T13:19:54Z</time>
      </trkpt>
      <trkpt lat="41.84777" lon="9.20494">
        <ele>2070.82</ele>
        <time>2012-05-18T13:20:09Z</time>
      </trkpt>
      <trkpt lat="41.84773" lon="9.20489">
        <ele>2069.86</ele>
        <time>2012-05-18T13:20:14Z</time>
      </trkpt>
      <trkpt lat="41.84773" lon="9.20485">
        <ele>2069.38</ele>
        <time>2012-05-18T13:20:30Z</time>
      </trkpt>
      <trkpt lat="41.84781" lon="9.20494">
        <ele>2068.89</ele>
        <time>2012-05-18T13:20:45Z</time>
      </trkpt>
      <trkpt lat="41.84783" lon="9.20499">
        <ele>2069.86</ele>
        <time>2012-05-18T13:20:52Z</time>
      </trkpt>
      <trkpt lat="41.84789" lon="9.20503">
        <ele>2070.82</ele>
        <time>2012-05-18T13:21:09Z</time>
      </trkpt>
      <trkpt lat="41.84789" lon="9.20502">
        <ele>2070.82</ele>
        <time>2012-05-18T13:21:16Z</time>
      </trkpt>
      <trkpt lat="41.84787" lon="9.205">
        <ele>2070.34</ele>
        <time>2012-05-18T13:21:19Z</time>
      </trkpt>
      <trkpt lat="41.8478" lon="9.20493">
        <ele>2066.97</ele>
        <time>2012-05-18T13:21:31Z</time>
      </trkpt>
      <trkpt lat="41.8478" lon="9.20493">
        <ele>2066.49</ele>
        <time>2012-05-18T13:21:32Z</time>
      </trkpt>
      <trkpt lat="41.8477" lon="9.20482">
        <ele>2066.97</ele>
        <time>2012-05-18T13:21:45Z</time>
      </trkpt>
      <trkpt lat="41.84761" lon="9.20473">
        <ele>2065.53</ele>
        <time>2012-05-18T13:21:57Z</time>
      </trkpt>
      <trkpt lat="41.84757" lon="9.20464">
        <ele>2063.61</ele>
        <time>2012-05-18T13:22:12Z</time>
      </trkpt>
      <trkpt lat="41.8475" lon="9.20458">
        <ele>2063.13</ele>
        <time>2012-05-18T13:22:23Z</time>
      </trkpt>
      <trkpt lat="41.84745" lon="9.20452">
        <ele>2061.68</ele>
        <time>2012-05-18T13:22:36Z</time>
      </trkpt>
      <trkpt lat="41.8474" lon="9.20451">
        <ele>2059.76</ele>
        <time>2012-05-18T13:22:49Z</time>
      </trkpt>
      <trkpt lat="41.84734" lon="9.20446">
        <ele>2056.88</ele>
        <time>2012-05-18T13:23:04Z</time>
      </trkpt>
      <trkpt lat="41.84732" lon="9.20443">
        <ele>2053.99</ele>
        <time>2012-05-18T13:23:18Z</time>
      </trkpt>
      <trkpt lat="41.84731" lon="9.20434">
        <ele>2052.07</ele>
        <time>2012-05-18T13:23:31Z</time>
      </trkpt>
      <trkpt lat="41.8473" lon="9.20427">
        <ele>2050.63</ele>
        <time>2012-05-18T13:23:46Z</time>
      </trkpt>
      <trkpt lat="41.84727" lon="9.20424">
        <ele>2050.15</ele>
        <time>2012-05-18T13:23:57Z</time>
      </trkpt>
      <trkpt lat="41.84727" lon="9.20418">
        <ele>2047.26</ele>
        <time>2012-05-18T13:24:08Z</time>
      </trkpt>
      <trkpt lat="41.84726" lon="9.20413">
        <ele>2044.38</ele>
        <time>2012-05-18T13:24:20Z</time>
      </trkpt>
      <trkpt lat="41.84726" lon="9.20407">
        <ele>2041.5</ele>
        <time>2012-05-18T13:24:31Z</time>
      </trkpt>
      <trkpt lat="41.84724" lon="9.20403">
        <ele>2040.05</ele>
        <time>2012-05-18T13:24:43Z</time>
      </trkpt>
      <trkpt lat="41.84714" lon="9.20398">
        <ele>2035.73</ele>
        <time>2012-05-18T13:24:55Z</time>
      </trkpt>
      <trkpt lat="41.84705" lon="9.20394">
        <ele>2031.88</ele>
        <time>2012-05-18T13:25:10Z</time>
      </trkpt>
      <trkpt lat="41.84697" lon="9.20388">
        <ele>2029.96</ele>
        <time>2012-05-18T13:25:22Z</time>
      </trkpt>
      <trkpt lat="41.84695" lon="9.20387">
        <ele>2029.48</ele>
        <time>2012-05-18T13:25:24Z</time>
      </trkpt>
      <trkpt lat="41.84685" lon="9.20382">
        <ele>2028.52</ele>
        <time>2012-05-18T13:25:36Z</time>
      </trkpt>
      <trkpt lat="41.84673" lon="9.20376">
        <ele>2029</ele>
        <time>2012-05-18T13:25:46Z</time>
      </trkpt>
      <trkpt lat="41.84659" lon="9.20376">
        <ele>2031.4</ele>
        <time>2012-05-18T13:25:57Z</time>
      </trkpt>
      <trkpt lat="41.84655" lon="9.20376">
        <ele>2032.36</ele>
        <time>2012-05-18T13:26:02Z</time>
      </trkpt>
      <trkpt lat="41.84643" lon="9.20375">
        <ele>2032.84</ele>
        <time>2012-05-18T13:26:13Z</time>
      </trkpt>
      <trkpt lat="41.84631" lon="9.20373">
        <ele>2032.84</ele>
        <time>2012-05-18T13:26:25Z</time>
      </trkpt>
      <trkpt lat="41.84625" lon="9.20373">
        <ele>2032.36</ele>
        <time>2012-05-18T13:26:30Z</time>
      </trkpt>
      <trkpt lat="41.84621" lon="9.20373">
        <ele>2031.88</ele>
        <time>2012-05-18T13:26:33Z</time>
      </trkpt>
      <trkpt lat="41.84617" lon="9.20373">
        <ele>2030.92</ele>
        <time>2012-05-18T13:26:36Z</time>
      </trkpt>
      <trkpt lat="41.84606" lon="9.20367">
        <ele>2029.48</ele>
        <time>2012-05-18T13:26:49Z</time>
      </trkpt>
      <trkpt lat="41.84605" lon="9.20366">
        <ele>2029.48</ele>
        <time>2012-05-18T13:27:12Z</time>
      </trkpt>
      <trkpt lat="41.84605" lon="9.20366">
        <ele>2029.48</ele>
        <time>2012-05-18T13:27:22Z</time>
      </trkpt>
      <trkpt lat="41.84605" lon="9.20356">
        <ele>2027.08</ele>
        <time>2012-05-18T13:27:33Z</time>
      </trkpt>
      <trkpt lat="41.84605" lon="9.20353">
        <ele>2025.15</ele>
        <time>2012-05-18T13:27:38Z</time>
      </trkpt>
      <trkpt lat="41.84608" lon="9.20347">
        <ele>2019.87</ele>
        <time>2012-05-18T13:27:49Z</time>
      </trkpt>
      <trkpt lat="41.84605" lon="9.20338">
        <ele>2013.14</ele>
        <time>2012-05-18T13:28:01Z</time>
      </trkpt>
      <trkpt lat="41.84601" lon="9.20331">
        <ele>2013.14</ele>
        <time>2012-05-18T13:28:06Z</time>
      </trkpt>
      <trkpt lat="41.84595" lon="9.20324">
        <ele>2012.18</ele>
        <time>2012-05-18T13:28:14Z</time>
      </trkpt>
      <trkpt lat="41.84584" lon="9.20311">
        <ele>2012.18</ele>
        <time>2012-05-18T13:28:25Z</time>
      </trkpt>
      <trkpt lat="41.84585" lon="9.20309">
        <ele>2012.18</ele>
        <time>2012-05-18T13:28:27Z</time>
      </trkpt>
      <trkpt lat="41.84586" lon="9.20305">
        <ele>2011.22</ele>
        <time>2012-05-18T13:28:31Z</time>
      </trkpt>
      <trkpt lat="41.84578" lon="9.203">
        <ele>2009.77</ele>
        <time>2012-05-18T13:28:39Z</time>
      </trkpt>
      <trkpt lat="41.84571" lon="9.20296">
        <ele>2009.29</ele>
        <time>2012-05-18T13:28:45Z</time>
      </trkpt>
      <trkpt lat="41.84562" lon="9.20293">
        <ele>2010.73</ele>
        <time>2012-05-18T13:28:53Z</time>
      </trkpt>
      <trkpt lat="41.8456" lon="9.20291">
        <ele>2011.22</ele>
        <time>2012-05-18T13:28:55Z</time>
      </trkpt>
      <trkpt lat="41.84551" lon="9.20283">
        <ele>2010.25</ele>
        <time>2012-05-18T13:29:03Z</time>
      </trkpt>
      <trkpt lat="41.84539" lon="9.20271">
        <ele>2005.93</ele>
        <time>2012-05-18T13:29:15Z</time>
      </trkpt>
      <trkpt lat="41.84536" lon="9.20268">
        <ele>2005.93</ele>
        <time>2012-05-18T13:29:19Z</time>
      </trkpt>
      <trkpt lat="41.84532" lon="9.20263">
        <ele>2006.89</ele>
        <time>2012-05-18T13:29:27Z</time>
      </trkpt>
      <trkpt lat="41.84521" lon="9.20251">
        <ele>2010.25</ele>
        <time>2012-05-18T13:29:39Z</time>
      </trkpt>
      <trkpt lat="41.84513" lon="9.2024">
        <ele>2011.22</ele>
        <time>2012-05-18T13:29:50Z</time>
      </trkpt>
      <trkpt lat="41.84507" lon="9.20223">
        <ele>2010.73</ele>
        <time>2012-05-18T13:30:03Z</time>
      </trkpt>
      <trkpt lat="41.84502" lon="9.20213">
        <ele>2008.33</ele>
        <time>2012-05-18T13:30:13Z</time>
      </trkpt>
      <trkpt lat="41.845" lon="9.20205">
        <ele>2006.41</ele>
        <time>2012-05-18T13:30:20Z</time>
      </trkpt>
      <trkpt lat="41.84501" lon="9.20189">
        <ele>2005.45</ele>
        <time>2012-05-18T13:30:29Z</time>
      </trkpt>
      <trkpt lat="41.84493" lon="9.20175">
        <ele>2005.45</ele>
        <time>2012-05-18T13:30:42Z</time>
      </trkpt>
      <trkpt lat="41.84492" lon="9.20174">
        <ele>2005.45</ele>
        <time>2012-05-18T13:30:43Z</time>
      </trkpt>
      <trkpt lat="41.84489" lon="9.20167">
        <ele>2006.41</ele>
        <time>2012-05-18T13:30:49Z</time>
      </trkpt>
      <trkpt lat="41.84484" lon="9.20158">
        <ele>2006.89</ele>
        <time>2012-05-18T13:30:57Z</time>
      </trkpt>
      <trkpt lat="41.84482" lon="9.20146">
        <ele>2004.97</ele>
        <time>2012-05-18T13:31:10Z</time>
      </trkpt>
      <trkpt lat="41.84474" lon="9.20135">
        <ele>2005.45</ele>
        <time>2012-05-18T13:31:21Z</time>
      </trkpt>
      <trkpt lat="41.84469" lon="9.20123">
        <ele>2004.01</ele>
        <time>2012-05-18T13:31:32Z</time>
      </trkpt>
      <trkpt lat="41.84463" lon="9.20107">
        <ele>2000.64</ele>
        <time>2012-05-18T13:31:44Z</time>
      </trkpt>
      <trkpt lat="41.84462" lon="9.20104">
        <ele>1999.2</ele>
        <time>2012-05-18T13:31:52Z</time>
      </trkpt>
      <trkpt lat="41.84467" lon="9.20099">
        <ele>1996.32</ele>
        <time>2012-05-18T13:32:05Z</time>
      </trkpt>
      <trkpt lat="41.84466" lon="9.20087">
        <ele>1994.39</ele>
        <time>2012-05-18T13:32:16Z</time>
      </trkpt>
      <trkpt lat="41.84464" lon="9.20075">
        <ele>1991.99</ele>
        <time>2012-05-18T13:32:29Z</time>
      </trkpt>
      <trkpt lat="41.84462" lon="9.20066">
        <ele>1991.51</ele>
        <time>2012-05-18T13:32:44Z</time>
      </trkpt>
      <trkpt lat="41.84462" lon="9.2006">
        <ele>1989.59</ele>
        <time>2012-05-18T13:32:56Z</time>
      </trkpt>
      <trkpt lat="41.84461" lon="9.20051">
        <ele>1989.1</ele>
        <time>2012-05-18T13:33:06Z</time>
      </trkpt>
      <trkpt lat="41.84456" lon="9.20038">
        <ele>1986.7</ele>
        <time>2012-05-18T13:33:17Z</time>
      </trkpt>
      <trkpt lat="41.84458" lon="9.20031">
        <ele>1986.7</ele>
        <time>2012-05-18T13:33:30Z</time>
      </trkpt>
      <trkpt lat="41.84458" lon="9.2003">
        <ele>1985.74</ele>
        <time>2012-05-18T13:33:33Z</time>
      </trkpt>
      <trkpt lat="41.8446" lon="9.20023">
        <ele>1984.78</ele>
        <time>2012-05-18T13:33:46Z</time>
      </trkpt>
      <trkpt lat="41.8446" lon="9.20015">
        <ele>1982.86</ele>
        <time>2012-05-18T13:34:03Z</time>
      </trkpt>
      <trkpt lat="41.84462" lon="9.20005">
        <ele>1981.41</ele>
        <time>2012-05-18T13:34:14Z</time>
      </trkpt>
      <trkpt lat="41.84462" lon="9.19997">
        <ele>1979.97</ele>
        <time>2012-05-18T13:34:30Z</time>
      </trkpt>
      <trkpt lat="41.84459" lon="9.19984">
        <ele>1975.65</ele>
        <time>2012-05-18T13:34:45Z</time>
      </trkpt>
      <trkpt lat="41.84459" lon="9.19973">
        <ele>1973.72</ele>
        <time>2012-05-18T13:35:00Z</time>
      </trkpt>
      <trkpt lat="41.8446" lon="9.19972">
        <ele>1973.72</ele>
        <time>2012-05-18T13:35:14Z</time>
      </trkpt>
      <trkpt lat="41.84458" lon="9.19964">
        <ele>1970.84</ele>
        <time>2012-05-18T13:35:31Z</time>
      </trkpt>
      <trkpt lat="41.84452" lon="9.19953">
        <ele>1966.51</ele>
        <time>2012-05-18T13:35:41Z</time>
      </trkpt>
      <trkpt lat="41.84446" lon="9.19943">
        <ele>1962.67</ele>
        <time>2012-05-18T13:35:55Z</time>
      </trkpt>
      <trkpt lat="41.84446" lon="9.19939">
        <ele>1960.75</ele>
        <time>2012-05-18T13:36:06Z</time>
      </trkpt>
      <trkpt lat="41.84445" lon="9.19926">
        <ele>1958.82</ele>
        <time>2012-05-18T13:36:20Z</time>
      </trkpt>
      <trkpt lat="41.84445" lon="9.19915">
        <ele>1956.9</ele>
        <time>2012-05-18T13:36:31Z</time>
      </trkpt>
      <trkpt lat="41.84447" lon="9.19908">
        <ele>1953.54</ele>
        <time>2012-05-18T13:36:43Z</time>
      </trkpt>
      <trkpt lat="41.84447" lon="9.19906">
        <ele>1952.57</ele>
        <time>2012-05-18T13:36:48Z</time>
      </trkpt>
      <trkpt lat="41.84447" lon="9.19901">
        <ele>1951.13</ele>
        <time>2012-05-18T13:36:59Z</time>
      </trkpt>
      <trkpt lat="41.84446" lon="9.19889">
        <ele>1947.77</ele>
        <time>2012-05-18T13:37:11Z</time>
      </trkpt>
      <trkpt lat="41.84443" lon="9.19879">
        <ele>1947.77</ele>
        <time>2012-05-18T13:37:22Z</time>
      </trkpt>
      <trkpt lat="41.84436" lon="9.19866">
        <ele>1946.81</ele>
        <time>2012-05-18T13:37:34Z</time>
      </trkpt>
      <trkpt lat="41.84435" lon="9.19861">
        <ele>1943.92</ele>
        <time>2012-05-18T13:37:48Z</time>
      </trkpt>
      <trkpt lat="41.84427" lon="9.19844">
        <ele>1940.56</ele>
        <time>2012-05-18T13:37:59Z</time>
      </trkpt>
      <trkpt lat="41.84418" lon="9.19829">
        <ele>1938.16</ele>
        <time>2012-05-18T13:38:11Z</time>
      </trkpt>
      <trkpt lat="41.84415" lon="9.19818">
        <ele>1934.79</ele>
        <time>2012-05-18T13:38:25Z</time>
      </trkpt>
      <trkpt lat="41.84409" lon="9.19804">
        <ele>1932.87</ele>
        <time>2012-05-18T13:38:38Z</time>
      </trkpt>
      <trkpt lat="41.84404" lon="9.198">
        <ele>1932.87</ele>
        <time>2012-05-18T13:38:45Z</time>
      </trkpt>
      <trkpt lat="41.84404" lon="9.19793">
        <ele>1930.95</ele>
        <time>2012-05-18T13:38:56Z</time>
      </trkpt>
      <trkpt lat="41.84406" lon="9.19779">
        <ele>1929.02</ele>
        <time>2012-05-18T13:39:08Z</time>
      </trkpt>
      <trkpt lat="41.84407" lon="9.1977">
        <ele>1927.1</ele>
        <time>2012-05-18T13:39:21Z</time>
      </trkpt>
      <trkpt lat="41.84405" lon="9.19759">
        <ele>1925.66</ele>
        <time>2012-05-18T13:39:33Z</time>
      </trkpt>
      <trkpt lat="41.84406" lon="9.19755">
        <ele>1925.18</ele>
        <time>2012-05-18T13:39:39Z</time>
      </trkpt>
      <trkpt lat="41.8441" lon="9.19748">
        <ele>1923.74</ele>
        <time>2012-05-18T13:39:47Z</time>
      </trkpt>
      <trkpt lat="41.8441" lon="9.19744">
        <ele>1923.25</ele>
        <time>2012-05-18T13:39:50Z</time>
      </trkpt>
      <trkpt lat="41.84412" lon="9.19741">
        <ele>1922.77</ele>
        <time>2012-05-18T13:39:52Z</time>
      </trkpt>
      <trkpt lat="41.84418" lon="9.19729">
        <ele>1920.37</ele>
        <time>2012-05-18T13:40:05Z</time>
      </trkpt>
      <trkpt lat="41.84422" lon="9.19725">
        <ele>1919.41</ele>
        <time>2012-05-18T13:40:12Z</time>
      </trkpt>
      <trkpt lat="41.84425" lon="9.1972">
        <ele>1915.56</ele>
        <time>2012-05-18T13:40:24Z</time>
      </trkpt>
      <trkpt lat="41.84425" lon="9.19717">
        <ele>1914.6</ele>
        <time>2012-05-18T13:40:39Z</time>
      </trkpt>
      <trkpt lat="41.84428" lon="9.19707">
        <ele>1911.72</ele>
        <time>2012-05-18T13:40:49Z</time>
      </trkpt>
      <trkpt lat="41.8443" lon="9.19701">
        <ele>1910.28</ele>
        <time>2012-05-18T13:41:01Z</time>
      </trkpt>
      <trkpt lat="41.8443" lon="9.19689">
        <ele>1906.43</ele>
        <time>2012-05-18T13:41:13Z</time>
      </trkpt>
      <trkpt lat="41.84433" lon="9.19681">
        <ele>1904.51</ele>
        <time>2012-05-18T13:41:20Z</time>
      </trkpt>
      <trkpt lat="41.84437" lon="9.19674">
        <ele>1903.55</ele>
        <time>2012-05-18T13:41:26Z</time>
      </trkpt>
      <trkpt lat="41.84439" lon="9.19653">
        <ele>1900.66</ele>
        <time>2012-05-18T13:41:38Z</time>
      </trkpt>
      <trkpt lat="41.84438" lon="9.19643">
        <ele>1900.18</ele>
        <time>2012-05-18T13:41:44Z</time>
      </trkpt>
      <trkpt lat="41.84438" lon="9.19629">
        <ele>1900.66</ele>
        <time>2012-05-18T13:41:54Z</time>
      </trkpt>
      <trkpt lat="41.84433" lon="9.19606">
        <ele>1899.22</ele>
        <time>2012-05-18T13:42:09Z</time>
      </trkpt>
      <trkpt lat="41.84423" lon="9.19585">
        <ele>1897.78</ele>
        <time>2012-05-18T13:42:23Z</time>
      </trkpt>
      <trkpt lat="41.84415" lon="9.19573">
        <ele>1896.82</ele>
        <time>2012-05-18T13:42:34Z</time>
      </trkpt>
      <trkpt lat="41.84408" lon="9.19559">
        <ele>1893.93</ele>
        <time>2012-05-18T13:42:46Z</time>
      </trkpt>
      <trkpt lat="41.844" lon="9.19542">
        <ele>1894.9</ele>
        <time>2012-05-18T13:42:58Z</time>
      </trkpt>
      <trkpt lat="41.84392" lon="9.19522">
        <ele>1894.9</ele>
        <time>2012-05-18T13:43:10Z</time>
      </trkpt>
      <trkpt lat="41.84384" lon="9.19509">
        <ele>1895.86</ele>
        <time>2012-05-18T13:43:22Z</time>
      </trkpt>
      <trkpt lat="41.84375" lon="9.19503">
        <ele>1897.3</ele>
        <time>2012-05-18T13:43:31Z</time>
      </trkpt>
      <trkpt lat="41.84368" lon="9.19493">
        <ele>1896.82</ele>
        <time>2012-05-18T13:43:45Z</time>
      </trkpt>
      <trkpt lat="41.84365" lon="9.19483">
        <ele>1893.45</ele>
        <time>2012-05-18T13:44:21Z</time>
      </trkpt>
      <trkpt lat="41.84365" lon="9.19484">
        <ele>1892.97</ele>
        <time>2012-05-18T13:45:55Z</time>
      </trkpt>
      <trkpt lat="41.8437" lon="9.19475">
        <ele>1889.61</ele>
        <time>2012-05-18T13:46:05Z</time>
      </trkpt>
      <trkpt lat="41.8437" lon="9.19466">
        <ele>1888.65</ele>
        <time>2012-05-18T13:46:12Z</time>
      </trkpt>
      <trkpt lat="41.8437" lon="9.19461">
        <ele>1887.69</ele>
        <time>2012-05-18T13:46:17Z</time>
      </trkpt>
      <trkpt lat="41.84369" lon="9.19454">
        <ele>1885.76</ele>
        <time>2012-05-18T13:46:21Z</time>
      </trkpt>
      <trkpt lat="41.8436" lon="9.19443">
        <ele>1882.88</ele>
        <time>2012-05-18T13:46:30Z</time>
      </trkpt>
      <trkpt lat="41.84353" lon="9.19439">
        <ele>1881.44</ele>
        <time>2012-05-18T13:46:36Z</time>
      </trkpt>
      <trkpt lat="41.84344" lon="9.19428">
        <ele>1879.03</ele>
        <time>2012-05-18T13:46:48Z</time>
      </trkpt>
      <trkpt lat="41.84333" lon="9.19412">
        <ele>1878.07</ele>
        <time>2012-05-18T13:47:02Z</time>
      </trkpt>
      <trkpt lat="41.84332" lon="9.19411">
        <ele>1878.07</ele>
        <time>2012-05-18T13:47:03Z</time>
      </trkpt>
      <trkpt lat="41.84326" lon="9.19406">
        <ele>1877.11</ele>
        <time>2012-05-18T13:47:10Z</time>
      </trkpt>
      <trkpt lat="41.8431" lon="9.19398">
        <ele>1876.63</ele>
        <time>2012-05-18T13:47:24Z</time>
      </trkpt>
      <trkpt lat="41.84296" lon="9.19389">
        <ele>1877.11</ele>
        <time>2012-05-18T13:47:38Z</time>
      </trkpt>
      <trkpt lat="41.84281" lon="9.19385">
        <ele>1876.63</ele>
        <time>2012-05-18T13:47:50Z</time>
      </trkpt>
      <trkpt lat="41.84269" lon="9.19376">
        <ele>1875.19</ele>
        <time>2012-05-18T13:48:03Z</time>
      </trkpt>
      <trkpt lat="41.84259" lon="9.19368">
        <ele>1876.15</ele>
        <time>2012-05-18T13:48:15Z</time>
      </trkpt>
      <trkpt lat="41.84254" lon="9.19367">
        <ele>1877.59</ele>
        <time>2012-05-18T13:48:19Z</time>
      </trkpt>
      <trkpt lat="41.84241" lon="9.19352">
        <ele>1879.51</ele>
        <time>2012-05-18T13:48:32Z</time>
      </trkpt>
      <trkpt lat="41.84229" lon="9.19345">
        <ele>1878.07</ele>
        <time>2012-05-18T13:48:43Z</time>
      </trkpt>
      <trkpt lat="41.84226" lon="9.19341">
        <ele>1875.67</ele>
        <time>2012-05-18T13:48:48Z</time>
      </trkpt>
      <trkpt lat="41.84215" lon="9.19325">
        <ele>1872.79</ele>
        <time>2012-05-18T13:49:03Z</time>
      </trkpt>
      <trkpt lat="41.84204" lon="9.19322">
        <ele>1868.94</ele>
        <time>2012-05-18T13:49:15Z</time>
      </trkpt>
      <trkpt lat="41.84203" lon="9.19316">
        <ele>1867.5</ele>
        <time>2012-05-18T13:49:19Z</time>
      </trkpt>
      <trkpt lat="41.84194" lon="9.19299">
        <ele>1866.06</ele>
        <time>2012-05-18T13:49:32Z</time>
      </trkpt>
      <trkpt lat="41.84183" lon="9.19282">
        <ele>1864.61</ele>
        <time>2012-05-18T13:49:45Z</time>
      </trkpt>
      <trkpt lat="41.8418" lon="9.19271">
        <ele>1862.21</ele>
        <time>2012-05-18T13:49:56Z</time>
      </trkpt>
      <trkpt lat="41.84175" lon="9.19251">
        <ele>1859.81</ele>
        <time>2012-05-18T13:50:10Z</time>
      </trkpt>
      <trkpt lat="41.84172" lon="9.19243">
        <ele>1858.85</ele>
        <time>2012-05-18T13:50:17Z</time>
      </trkpt>
      <trkpt lat="41.84166" lon="9.19223">
        <ele>1856.44</ele>
        <time>2012-05-18T13:50:31Z</time>
      </trkpt>
      <trkpt lat="41.84163" lon="9.19208">
        <ele>1853.08</ele>
        <time>2012-05-18T13:50:43Z</time>
      </trkpt>
      <trkpt lat="41.84155" lon="9.19196">
        <ele>1851.64</ele>
        <time>2012-05-18T13:50:53Z</time>
      </trkpt>
      <trkpt lat="41.84152" lon="9.19188">
        <ele>1850.19</ele>
        <time>2012-05-18T13:51:03Z</time>
      </trkpt>
      <trkpt lat="41.84145" lon="9.1918">
        <ele>1850.68</ele>
        <time>2012-05-18T13:51:14Z</time>
      </trkpt>
      <trkpt lat="41.84135" lon="9.1917">
        <ele>1849.71</ele>
        <time>2012-05-18T13:51:28Z</time>
      </trkpt>
      <trkpt lat="41.84131" lon="9.19162">
        <ele>1846.83</ele>
        <time>2012-05-18T13:51:39Z</time>
      </trkpt>
      <trkpt lat="41.84131" lon="9.19161">
        <ele>1845.87</ele>
        <time>2012-05-18T13:51:40Z</time>
      </trkpt>
      <trkpt lat="41.84133" lon="9.19157">
        <ele>1843.95</ele>
        <time>2012-05-18T13:51:43Z</time>
      </trkpt>
      <trkpt lat="41.84127" lon="9.19145">
        <ele>1841.54</ele>
        <time>2012-05-18T13:51:52Z</time>
      </trkpt>
      <trkpt lat="41.84127" lon="9.19135">
        <ele>1835.29</ele>
        <time>2012-05-18T13:52:03Z</time>
      </trkpt>
      <trkpt lat="41.84121" lon="9.19134">
        <ele>1833.85</ele>
        <time>2012-05-18T13:52:14Z</time>
      </trkpt>
      <trkpt lat="41.84117" lon="9.19126">
        <ele>1832.89</ele>
        <time>2012-05-18T13:52:34Z</time>
      </trkpt>
      <trkpt lat="41.84116" lon="9.19114">
        <ele>1830.97</ele>
        <time>2012-05-18T13:52:43Z</time>
      </trkpt>
      <trkpt lat="41.84116" lon="9.19111">
        <ele>1830.49</ele>
        <time>2012-05-18T13:52:45Z</time>
      </trkpt>
      <trkpt lat="41.84107" lon="9.191">
        <ele>1830.97</ele>
        <time>2012-05-18T13:52:57Z</time>
      </trkpt>
      <trkpt lat="41.84108" lon="9.19094">
        <ele>1830.97</ele>
        <time>2012-05-18T13:53:04Z</time>
      </trkpt>
      <trkpt lat="41.84107" lon="9.19087">
        <ele>1829.53</ele>
        <time>2012-05-18T13:53:14Z</time>
      </trkpt>
      <trkpt lat="41.84107" lon="9.19083">
        <ele>1829.05</ele>
        <time>2012-05-18T13:53:48Z</time>
      </trkpt>
      <trkpt lat="41.84108" lon="9.19072">
        <ele>1827.6</ele>
        <time>2012-05-18T13:54:00Z</time>
      </trkpt>
      <trkpt lat="41.84111" lon="9.19066">
        <ele>1825.68</ele>
        <time>2012-05-18T13:54:12Z</time>
      </trkpt>
      <trkpt lat="41.84111" lon="9.19056">
        <ele>1824.72</ele>
        <time>2012-05-18T13:54:27Z</time>
      </trkpt>
      <trkpt lat="41.84115" lon="9.19049">
        <ele>1820.87</ele>
        <time>2012-05-18T13:54:40Z</time>
      </trkpt>
      <trkpt lat="41.84115" lon="9.19042">
        <ele>1817.03</ele>
        <time>2012-05-18T13:54:51Z</time>
      </trkpt>
      <trkpt lat="41.84117" lon="9.19036">
        <ele>1813.18</ele>
        <time>2012-05-18T13:55:02Z</time>
      </trkpt>
      <trkpt lat="41.84117" lon="9.19031">
        <ele>1811.74</ele>
        <time>2012-05-18T13:55:15Z</time>
      </trkpt>
      <trkpt lat="41.84109" lon="9.1902">
        <ele>1812.7</ele>
        <time>2012-05-18T13:55:28Z</time>
      </trkpt>
      <trkpt lat="41.84108" lon="9.19009">
        <ele>1813.66</ele>
        <time>2012-05-18T13:55:39Z</time>
      </trkpt>
      <trkpt lat="41.84112" lon="9.18995">
        <ele>1809.82</ele>
        <time>2012-05-18T13:55:54Z</time>
      </trkpt>
      <trkpt lat="41.84112" lon="9.18989">
        <ele>1807.42</ele>
        <time>2012-05-18T13:56:02Z</time>
      </trkpt>
      <trkpt lat="41.84119" lon="9.18987">
        <ele>1805.01</ele>
        <time>2012-05-18T13:56:17Z</time>
      </trkpt>
      <trkpt lat="41.84119" lon="9.18983">
        <ele>1803.57</ele>
        <time>2012-05-18T13:56:24Z</time>
      </trkpt>
      <trkpt lat="41.84119" lon="9.18974">
        <ele>1802.61</ele>
        <time>2012-05-18T13:56:37Z</time>
      </trkpt>
      <trkpt lat="41.8412" lon="9.18968">
        <ele>1802.13</ele>
        <time>2012-05-18T13:56:42Z</time>
      </trkpt>
      <trkpt lat="41.84133" lon="9.18965">
        <ele>1801.65</ele>
        <time>2012-05-18T13:56:55Z</time>
      </trkpt>
      <trkpt lat="41.84137" lon="9.18965">
        <ele>1800.69</ele>
        <time>2012-05-18T13:57:05Z</time>
      </trkpt>
      <trkpt lat="41.84144" lon="9.1896">
        <ele>1794.92</ele>
        <time>2012-05-18T13:57:17Z</time>
      </trkpt>
      <trkpt lat="41.84146" lon="9.18955">
        <ele>1793.96</ele>
        <time>2012-05-18T13:57:30Z</time>
      </trkpt>
      <trkpt lat="41.84147" lon="9.18949">
        <ele>1790.59</ele>
        <time>2012-05-18T13:57:36Z</time>
      </trkpt>
      <trkpt lat="41.84146" lon="9.18945">
        <ele>1789.63</ele>
        <time>2012-05-18T13:57:47Z</time>
      </trkpt>
      <trkpt lat="41.84151" lon="9.18932">
        <ele>1786.27</ele>
        <time>2012-05-18T13:57:59Z</time>
      </trkpt>
      <trkpt lat="41.84151" lon="9.1892">
        <ele>1783.38</ele>
        <time>2012-05-18T13:58:09Z</time>
      </trkpt>
      <trkpt lat="41.84147" lon="9.18915">
        <ele>1782.9</ele>
        <time>2012-05-18T13:58:13Z</time>
      </trkpt>
      <trkpt lat="41.84143" lon="9.18901">
        <ele>1782.42</ele>
        <time>2012-05-18T13:58:27Z</time>
      </trkpt>
      <trkpt lat="41.84142" lon="9.18892">
        <ele>1780.02</ele>
        <time>2012-05-18T13:58:37Z</time>
      </trkpt>
      <trkpt lat="41.8414" lon="9.18884">
        <ele>1776.17</ele>
        <time>2012-05-18T13:58:48Z</time>
      </trkpt>
      <trkpt lat="41.84137" lon="9.18884">
        <ele>1774.73</ele>
        <time>2012-05-18T13:58:51Z</time>
      </trkpt>
      <trkpt lat="41.84123" lon="9.18872">
        <ele>1771.85</ele>
        <time>2012-05-18T13:59:06Z</time>
      </trkpt>
      <trkpt lat="41.8412" lon="9.18863">
        <ele>1773.29</ele>
        <time>2012-05-18T13:59:14Z</time>
      </trkpt>
      <trkpt lat="41.84119" lon="9.18858">
        <ele>1774.25</ele>
        <time>2012-05-18T13:59:17Z</time>
      </trkpt>
      <trkpt lat="41.84122" lon="9.18854">
        <ele>1774.25</ele>
        <time>2012-05-18T13:59:21Z</time>
      </trkpt>
      <trkpt lat="41.84127" lon="9.18842">
        <ele>1773.29</ele>
        <time>2012-05-18T13:59:33Z</time>
      </trkpt>
      <trkpt lat="41.84128" lon="9.1884">
        <ele>1773.29</ele>
        <time>2012-05-18T13:59:35Z</time>
      </trkpt>
      <trkpt lat="41.84129" lon="9.18838">
        <ele>1772.81</ele>
        <time>2012-05-18T13:59:37Z</time>
      </trkpt>
      <trkpt lat="41.84132" lon="9.18823">
        <ele>1769.44</ele>
        <time>2012-05-18T13:59:51Z</time>
      </trkpt>
      <trkpt lat="41.84136" lon="9.18816">
        <ele>1766.08</ele>
        <time>2012-05-18T14:00:01Z</time>
      </trkpt>
      <trkpt lat="41.84141" lon="9.18812">
        <ele>1764.16</ele>
        <time>2012-05-18T14:00:13Z</time>
      </trkpt>
      <trkpt lat="41.84146" lon="9.18806">
        <ele>1759.83</ele>
        <time>2012-05-18T14:00:26Z</time>
      </trkpt>
      <trkpt lat="41.84147" lon="9.18803">
        <ele>1758.39</ele>
        <time>2012-05-18T14:00:34Z</time>
      </trkpt>
      <trkpt lat="41.84138" lon="9.18791">
        <ele>1757.43</ele>
        <time>2012-05-18T14:00:46Z</time>
      </trkpt>
      <trkpt lat="41.84132" lon="9.18784">
        <ele>1756.95</ele>
        <time>2012-05-18T14:00:55Z</time>
      </trkpt>
      <trkpt lat="41.84126" lon="9.18772">
        <ele>1757.91</ele>
        <time>2012-05-18T14:01:05Z</time>
      </trkpt>
      <trkpt lat="41.84122" lon="9.18763">
        <ele>1755.99</ele>
        <time>2012-05-18T14:01:15Z</time>
      </trkpt>
      <trkpt lat="41.84114" lon="9.18754">
        <ele>1753.58</ele>
        <time>2012-05-18T14:01:27Z</time>
      </trkpt>
      <trkpt lat="41.84113" lon="9.18752">
        <ele>1754.06</ele>
        <time>2012-05-18T14:01:29Z</time>
      </trkpt>
      <trkpt lat="41.84108" lon="9.18746">
        <ele>1753.58</ele>
        <time>2012-05-18T14:01:40Z</time>
      </trkpt>
      <trkpt lat="41.84105" lon="9.18743">
        <ele>1753.1</ele>
        <time>2012-05-18T14:02:00Z</time>
      </trkpt>
      <trkpt lat="41.84102" lon="9.18738">
        <ele>1750.22</ele>
        <time>2012-05-18T14:02:10Z</time>
      </trkpt>
      <trkpt lat="41.84102" lon="9.18736">
        <ele>1748.78</ele>
        <time>2012-05-18T14:02:30Z</time>
      </trkpt>
      <trkpt lat="41.84101" lon="9.18735">
        <ele>1748.29</ele>
        <time>2012-05-18T14:03:48Z</time>
      </trkpt>
      <trkpt lat="41.841" lon="9.18734">
        <ele>1748.78</ele>
        <time>2012-05-18T14:03:50Z</time>
      </trkpt>
      <trkpt lat="41.84096" lon="9.18728">
        <ele>1749.74</ele>
        <time>2012-05-18T14:03:54Z</time>
      </trkpt>
      <trkpt lat="41.84092" lon="9.18716">
        <ele>1751.18</ele>
        <time>2012-05-18T14:04:02Z</time>
      </trkpt>
      <trkpt lat="41.84086" lon="9.18702">
        <ele>1753.58</ele>
        <time>2012-05-18T14:04:13Z</time>
      </trkpt>
      <trkpt lat="41.84084" lon="9.18691">
        <ele>1752.62</ele>
        <time>2012-05-18T14:04:23Z</time>
      </trkpt>
      <trkpt lat="41.84081" lon="9.18678">
        <ele>1752.14</ele>
        <time>2012-05-18T14:04:33Z</time>
      </trkpt>
      <trkpt lat="41.8408" lon="9.1867">
        <ele>1752.14</ele>
        <time>2012-05-18T14:04:38Z</time>
      </trkpt>
      <trkpt lat="41.84077" lon="9.18663">
        <ele>1752.14</ele>
        <time>2012-05-18T14:04:43Z</time>
      </trkpt>
      <trkpt lat="41.84075" lon="9.18647">
        <ele>1752.62</ele>
        <time>2012-05-18T14:04:54Z</time>
      </trkpt>
      <trkpt lat="41.84073" lon="9.18637">
        <ele>1752.62</ele>
        <time>2012-05-18T14:05:01Z</time>
      </trkpt>
      <trkpt lat="41.8407" lon="9.18617">
        <ele>1754.06</ele>
        <time>2012-05-18T14:05:13Z</time>
      </trkpt>
      <trkpt lat="41.84067" lon="9.186">
        <ele>1752.62</ele>
        <time>2012-05-18T14:05:26Z</time>
      </trkpt>
      <trkpt lat="41.84069" lon="9.18588">
        <ele>1750.7</ele>
        <time>2012-05-18T14:05:38Z</time>
      </trkpt>
      <trkpt lat="41.84071" lon="9.18585">
        <ele>1750.7</ele>
        <time>2012-05-18T14:05:41Z</time>
      </trkpt>
      <trkpt lat="41.84069" lon="9.18571">
        <ele>1751.18</ele>
        <time>2012-05-18T14:05:50Z</time>
      </trkpt>
      <trkpt lat="41.84069" lon="9.18556">
        <ele>1750.7</ele>
        <time>2012-05-18T14:06:02Z</time>
      </trkpt>
      <trkpt lat="41.84064" lon="9.18549">
        <ele>1751.18</ele>
        <time>2012-05-18T14:06:14Z</time>
      </trkpt>
      <trkpt lat="41.84061" lon="9.18535">
        <ele>1752.14</ele>
        <time>2012-05-18T14:06:25Z</time>
      </trkpt>
      <trkpt lat="41.8406" lon="9.18522">
        <ele>1752.62</ele>
        <time>2012-05-18T14:06:35Z</time>
      </trkpt>
      <trkpt lat="41.84057" lon="9.18514">
        <ele>1753.58</ele>
        <time>2012-05-18T14:06:41Z</time>
      </trkpt>
      <trkpt lat="41.84057" lon="9.18508">
        <ele>1754.54</ele>
        <time>2012-05-18T14:06:45Z</time>
      </trkpt>
      <trkpt lat="41.84057" lon="9.185">
        <ele>1753.58</ele>
        <time>2012-05-18T14:06:50Z</time>
      </trkpt>
      <trkpt lat="41.84056" lon="9.18497">
        <ele>1753.58</ele>
        <time>2012-05-18T14:06:52Z</time>
      </trkpt>
      <trkpt lat="41.84049" lon="9.18478">
        <ele>1753.1</ele>
        <time>2012-05-18T14:07:04Z</time>
      </trkpt>
      <trkpt lat="41.84049" lon="9.18454">
        <ele>1752.14</ele>
        <time>2012-05-18T14:07:19Z</time>
      </trkpt>
      <trkpt lat="41.84049" lon="9.18452">
        <ele>1751.66</ele>
        <time>2012-05-18T14:07:20Z</time>
      </trkpt>
      <trkpt lat="41.84047" lon="9.18443">
        <ele>1751.18</ele>
        <time>2012-05-18T14:07:27Z</time>
      </trkpt>
      <trkpt lat="41.84038" lon="9.18426">
        <ele>1751.66</ele>
        <time>2012-05-18T14:07:40Z</time>
      </trkpt>
      <trkpt lat="41.84031" lon="9.18407">
        <ele>1750.7</ele>
        <time>2012-05-18T14:07:53Z</time>
      </trkpt>
      <trkpt lat="41.84021" lon="9.18392">
        <ele>1750.7</ele>
        <time>2012-05-18T14:08:04Z</time>
      </trkpt>
      <trkpt lat="41.84015" lon="9.18373">
        <ele>1750.22</ele>
        <time>2012-05-18T14:08:16Z</time>
      </trkpt>
      <trkpt lat="41.84015" lon="9.18371">
        <ele>1750.22</ele>
        <time>2012-05-18T14:08:17Z</time>
      </trkpt>
      <trkpt lat="41.84017" lon="9.18357">
        <ele>1750.22</ele>
        <time>2012-05-18T14:08:26Z</time>
      </trkpt>
      <trkpt lat="41.84018" lon="9.18347">
        <ele>1750.22</ele>
        <time>2012-05-18T14:08:33Z</time>
      </trkpt>
      <trkpt lat="41.84018" lon="9.18344">
        <ele>1749.74</ele>
        <time>2012-05-18T14:08:35Z</time>
      </trkpt>
      <trkpt lat="41.84017" lon="9.18329">
        <ele>1748.78</ele>
        <time>2012-05-18T14:08:45Z</time>
      </trkpt>
      <trkpt lat="41.84019" lon="9.18323">
        <ele>1746.37</ele>
        <time>2012-05-18T14:08:50Z</time>
      </trkpt>
      <trkpt lat="41.84021" lon="9.18299">
        <ele>1739.64</ele>
        <time>2012-05-18T14:09:04Z</time>
      </trkpt>
      <trkpt lat="41.84022" lon="9.18297">
        <ele>1739.16</ele>
        <time>2012-05-18T14:09:05Z</time>
      </trkpt>
      <trkpt lat="41.84022" lon="9.18292">
        <ele>1738.68</ele>
        <time>2012-05-18T14:09:07Z</time>
      </trkpt>
      <trkpt lat="41.84025" lon="9.18282">
        <ele>1738.2</ele>
        <time>2012-05-18T14:09:12Z</time>
      </trkpt>
      <trkpt lat="41.84032" lon="9.18272">
        <ele>1737.72</ele>
        <time>2012-05-18T14:09:20Z</time>
      </trkpt>
      <trkpt lat="41.84044" lon="9.1826">
        <ele>1737.24</ele>
        <time>2012-05-18T14:09:31Z</time>
      </trkpt>
      <trkpt lat="41.84047" lon="9.18255">
        <ele>1736.76</ele>
        <time>2012-05-18T14:09:36Z</time>
      </trkpt>
      <trkpt lat="41.84052" lon="9.18241">
        <ele>1736.28</ele>
        <time>2012-05-18T14:09:49Z</time>
      </trkpt>
      <trkpt lat="41.84054" lon="9.18227">
        <ele>1742.05</ele>
        <time>2012-05-18T14:10:01Z</time>
      </trkpt>
      <trkpt lat="41.84054" lon="9.18226">
        <ele>1742.05</ele>
        <time>2012-05-18T14:10:02Z</time>
      </trkpt>
      <trkpt lat="41.84057" lon="9.18211">
        <ele>1744.45</ele>
        <time>2012-05-18T14:10:15Z</time>
      </trkpt>
      <trkpt lat="41.84064" lon="9.18196">
        <ele>1744.45</ele>
        <time>2012-05-18T14:10:29Z</time>
      </trkpt>
      <trkpt lat="41.84069" lon="9.1819">
        <ele>1743.97</ele>
        <time>2012-05-18T14:10:36Z</time>
      </trkpt>
      <trkpt lat="41.84075" lon="9.18169">
        <ele>1743.49</ele>
        <time>2012-05-18T14:10:53Z</time>
      </trkpt>
      <trkpt lat="41.84083" lon="9.18155">
        <ele>1745.89</ele>
        <time>2012-05-18T14:11:07Z</time>
      </trkpt>
      <trkpt lat="41.84088" lon="9.18146">
        <ele>1748.29</ele>
        <time>2012-05-18T14:11:19Z</time>
      </trkpt>
      <trkpt lat="41.84092" lon="9.18142">
        <ele>1749.26</ele>
        <time>2012-05-18T14:11:25Z</time>
      </trkpt>
      <trkpt lat="41.84104" lon="9.1813">
        <ele>1750.22</ele>
        <time>2012-05-18T14:11:41Z</time>
      </trkpt>
      <trkpt lat="41.84116" lon="9.18117">
        <ele>1754.06</ele>
        <time>2012-05-18T14:11:56Z</time>
      </trkpt>
      <trkpt lat="41.84126" lon="9.18105">
        <ele>1755.99</ele>
        <time>2012-05-18T14:12:11Z</time>
      </trkpt>
      <trkpt lat="41.84127" lon="9.18103">
        <ele>1755.99</ele>
        <time>2012-05-18T14:12:13Z</time>
      </trkpt>
      <trkpt lat="41.84127" lon="9.18086">
        <ele>1758.87</ele>
        <time>2012-05-18T14:12:26Z</time>
      </trkpt>
      <trkpt lat="41.84129" lon="9.18082">
        <ele>1759.35</ele>
        <time>2012-05-18T14:12:39Z</time>
      </trkpt>
      <trkpt lat="41.84129" lon="9.18083">
        <ele>1761.27</ele>
        <time>2012-05-18T14:12:53Z</time>
      </trkpt>
      <trkpt lat="41.84129" lon="9.18082">
        <ele>1761.75</ele>
        <time>2012-05-18T14:13:08Z</time>
      </trkpt>
      <trkpt lat="41.84132" lon="9.1808">
        <ele>1761.27</ele>
        <time>2012-05-18T14:13:27Z</time>
      </trkpt>
      <trkpt lat="41.84131" lon="9.18081">
        <ele>1761.75</ele>
        <time>2012-05-18T14:14:15Z</time>
      </trkpt>
      <trkpt lat="41.84131" lon="9.18081">
        <ele>1762.23</ele>
        <time>2012-05-18T14:14:34Z</time>
      </trkpt>
      <trkpt lat="41.8413" lon="9.18078">
        <ele>1762.71</ele>
        <time>2012-05-18T14:15:01Z</time>
      </trkpt>
      <trkpt lat="41.8413" lon="9.18075">
        <ele>1762.71</ele>
        <time>2012-05-18T14:15:17Z</time>
      </trkpt>
      <trkpt lat="41.84129" lon="9.18066">
        <ele>1762.23</ele>
        <time>2012-05-18T14:15:29Z</time>
      </trkpt>
      <trkpt lat="41.84128" lon="9.18064">
        <ele>1762.23</ele>
        <time>2012-05-18T14:15:31Z</time>
      </trkpt>
      <trkpt lat="41.84124" lon="9.18048">
        <ele>1760.79</ele>
        <time>2012-05-18T14:15:44Z</time>
      </trkpt>
      <trkpt lat="41.84119" lon="9.18029">
        <ele>1760.79</ele>
        <time>2012-05-18T14:15:58Z</time>
      </trkpt>
      <trkpt lat="41.84119" lon="9.18019">
        <ele>1760.79</ele>
        <time>2012-05-18T14:16:13Z</time>
      </trkpt>
      <trkpt lat="41.8412" lon="9.1801">
        <ele>1759.35</ele>
        <time>2012-05-18T14:16:26Z</time>
      </trkpt>
      <trkpt lat="41.8412" lon="9.18009">
        <ele>1759.35</ele>
        <time>2012-05-18T14:16:27Z</time>
      </trkpt>
      <trkpt lat="41.84121" lon="9.18004">
        <ele>1759.83</ele>
        <time>2012-05-18T14:16:30Z</time>
      </trkpt>
      <trkpt lat="41.84123" lon="9.17993">
        <ele>1758.87</ele>
        <time>2012-05-18T14:16:38Z</time>
      </trkpt>
      <trkpt lat="41.8413" lon="9.17976">
        <ele>1757.91</ele>
        <time>2012-05-18T14:16:52Z</time>
      </trkpt>
      <trkpt lat="41.84132" lon="9.17969">
        <ele>1757.91</ele>
        <time>2012-05-18T14:17:03Z</time>
      </trkpt>
      <trkpt lat="41.84132" lon="9.17962">
        <ele>1758.87</ele>
        <time>2012-05-18T14:17:08Z</time>
      </trkpt>
      <trkpt lat="41.84138" lon="9.17952">
        <ele>1759.35</ele>
        <time>2012-05-18T14:17:17Z</time>
      </trkpt>
      <trkpt lat="41.84137" lon="9.17946">
        <ele>1759.83</ele>
        <time>2012-05-18T14:17:20Z</time>
      </trkpt>
      <trkpt lat="41.84139" lon="9.17936">
        <ele>1759.83</ele>
        <time>2012-05-18T14:17:35Z</time>
      </trkpt>
      <trkpt lat="41.84139" lon="9.17931">
        <ele>1758.87</ele>
        <time>2012-05-18T14:17:38Z</time>
      </trkpt>
      <trkpt lat="41.84138" lon="9.17923">
        <ele>1759.83</ele>
        <time>2012-05-18T14:17:42Z</time>
      </trkpt>
      <trkpt lat="41.84137" lon="9.17901">
        <ele>1758.39</ele>
        <time>2012-05-18T14:17:56Z</time>
      </trkpt>
      <trkpt lat="41.84136" lon="9.17884">
        <ele>1756.47</ele>
        <time>2012-05-18T14:18:08Z</time>
      </trkpt>
      <trkpt lat="41.84135" lon="9.17863">
        <ele>1754.06</ele>
        <time>2012-05-18T14:18:21Z</time>
      </trkpt>
      <trkpt lat="41.84134" lon="9.17855">
        <ele>1753.1</ele>
        <time>2012-05-18T14:18:26Z</time>
      </trkpt>
      <trkpt lat="41.84133" lon="9.17833">
        <ele>1751.66</ele>
        <time>2012-05-18T14:18:41Z</time>
      </trkpt>
      <trkpt lat="41.84133" lon="9.17832">
        <ele>1751.66</ele>
        <time>2012-05-18T14:18:42Z</time>
      </trkpt>
      <trkpt lat="41.84131" lon="9.17828">
        <ele>1752.14</ele>
        <time>2012-05-18T14:19:02Z</time>
      </trkpt>
      <trkpt lat="41.84134" lon="9.17822">
        <ele>1752.14</ele>
        <time>2012-05-18T14:19:19Z</time>
      </trkpt>
      <trkpt lat="41.84134" lon="9.1782">
        <ele>1752.62</ele>
        <time>2012-05-18T14:19:32Z</time>
      </trkpt>
      <trkpt lat="41.84134" lon="9.17815">
        <ele>1752.62</ele>
        <time>2012-05-18T14:19:52Z</time>
      </trkpt>
      <trkpt lat="41.84135" lon="9.17811">
        <ele>1753.1</ele>
        <time>2012-05-18T14:19:58Z</time>
      </trkpt>
      <trkpt lat="41.84143" lon="9.17797">
        <ele>1749.26</ele>
        <time>2012-05-18T14:20:11Z</time>
      </trkpt>
      <trkpt lat="41.8415" lon="9.17785">
        <ele>1748.29</ele>
        <time>2012-05-18T14:20:19Z</time>
      </trkpt>
      <trkpt lat="41.84159" lon="9.17785">
        <ele>1747.81</ele>
        <time>2012-05-18T14:20:26Z</time>
      </trkpt>
      <trkpt lat="41.84178" lon="9.17796">
        <ele>1745.89</ele>
        <time>2012-05-18T14:20:40Z</time>
      </trkpt>
      <trkpt lat="41.84184" lon="9.178">
        <ele>1744.45</ele>
        <time>2012-05-18T14:20:46Z</time>
      </trkpt>
      <trkpt lat="41.84193" lon="9.17803">
        <ele>1743.49</ele>
        <time>2012-05-18T14:20:54Z</time>
      </trkpt>
      <trkpt lat="41.84201" lon="9.17795">
        <ele>1742.05</ele>
        <time>2012-05-18T14:21:06Z</time>
      </trkpt>
      <trkpt lat="41.84203" lon="9.17795">
        <ele>1742.05</ele>
        <time>2012-05-18T14:21:08Z</time>
      </trkpt>
      <trkpt lat="41.84217" lon="9.17788">
        <ele>1738.2</ele>
        <time>2012-05-18T14:21:24Z</time>
      </trkpt>
      <trkpt lat="41.84226" lon="9.17781">
        <ele>1736.28</ele>
        <time>2012-05-18T14:21:35Z</time>
      </trkpt>
      <trkpt lat="41.84238" lon="9.17774">
        <ele>1736.76</ele>
        <time>2012-05-18T14:21:45Z</time>
      </trkpt>
      <trkpt lat="41.84246" lon="9.17762">
        <ele>1736.76</ele>
        <time>2012-05-18T14:21:56Z</time>
      </trkpt>
      <trkpt lat="41.84259" lon="9.17759">
        <ele>1737.24</ele>
        <time>2012-05-18T14:22:07Z</time>
      </trkpt>
      <trkpt lat="41.84267" lon="9.17755">
        <ele>1738.68</ele>
        <time>2012-05-18T14:22:13Z</time>
      </trkpt>
      <trkpt lat="41.8427" lon="9.17753">
        <ele>1738.68</ele>
        <time>2012-05-18T14:22:16Z</time>
      </trkpt>
      <trkpt lat="41.84278" lon="9.17748">
        <ele>1738.68</ele>
        <time>2012-05-18T14:22:23Z</time>
      </trkpt>
      <trkpt lat="41.84284" lon="9.17742">
        <ele>1739.16</ele>
        <time>2012-05-18T14:22:29Z</time>
      </trkpt>
      <trkpt lat="41.84289" lon="9.17737">
        <ele>1737.72</ele>
        <time>2012-05-18T14:22:34Z</time>
      </trkpt>
      <trkpt lat="41.84299" lon="9.17728">
        <ele>1737.72</ele>
        <time>2012-05-18T14:22:43Z</time>
      </trkpt>
      <trkpt lat="41.84305" lon="9.17723">
        <ele>1737.24</ele>
        <time>2012-05-18T14:22:49Z</time>
      </trkpt>
      <trkpt lat="41.84321" lon="9.17714">
        <ele>1737.24</ele>
        <time>2012-05-18T14:23:04Z</time>
      </trkpt>
      <trkpt lat="41.84322" lon="9.17713">
        <ele>1738.2</ele>
        <time>2012-05-18T14:23:50Z</time>
      </trkpt>
      <trkpt lat="41.84323" lon="9.17711">
        <ele>1739.16</ele>
        <time>2012-05-18T14:24:12Z</time>
      </trkpt>
      <trkpt lat="41.84326" lon="9.17702">
        <ele>1740.6</ele>
        <time>2012-05-18T14:24:19Z</time>
      </trkpt>
      <trkpt lat="41.84327" lon="9.17698">
        <ele>1740.12</ele>
        <time>2012-05-18T14:24:22Z</time>
      </trkpt>
      <trkpt lat="41.84326" lon="9.17683">
        <ele>1738.2</ele>
        <time>2012-05-18T14:24:33Z</time>
      </trkpt>
      <trkpt lat="41.84323" lon="9.17675">
        <ele>1737.24</ele>
        <time>2012-05-18T14:24:44Z</time>
      </trkpt>
      <trkpt lat="41.84321" lon="9.17664">
        <ele>1735.32</ele>
        <time>2012-05-18T14:24:50Z</time>
      </trkpt>
      <trkpt lat="41.84317" lon="9.17643">
        <ele>1734.84</ele>
        <time>2012-05-18T14:25:03Z</time>
      </trkpt>
      <trkpt lat="41.84317" lon="9.1764">
        <ele>1735.32</ele>
        <time>2012-05-18T14:25:06Z</time>
      </trkpt>
      <trkpt lat="41.84314" lon="9.17619">
        <ele>1733.88</ele>
        <time>2012-05-18T14:25:21Z</time>
      </trkpt>
      <trkpt lat="41.84313" lon="9.17607">
        <ele>1732.91</ele>
        <time>2012-05-18T14:25:29Z</time>
      </trkpt>
      <trkpt lat="41.84312" lon="9.17601">
        <ele>1731.47</ele>
        <time>2012-05-18T14:25:33Z</time>
      </trkpt>
      <trkpt lat="41.84307" lon="9.17581">
        <ele>1730.03</ele>
        <time>2012-05-18T14:25:47Z</time>
      </trkpt>
      <trkpt lat="41.84304" lon="9.17573">
        <ele>1729.55</ele>
        <time>2012-05-18T14:25:54Z</time>
      </trkpt>
      <trkpt lat="41.84304" lon="9.1757">
        <ele>1729.07</ele>
        <time>2012-05-18T14:25:56Z</time>
      </trkpt>
      <trkpt lat="41.84301" lon="9.17552">
        <ele>1727.63</ele>
        <time>2012-05-18T14:26:09Z</time>
      </trkpt>
      <trkpt lat="41.84296" lon="9.17536">
        <ele>1727.63</ele>
        <time>2012-05-18T14:26:21Z</time>
      </trkpt>
      <trkpt lat="41.84295" lon="9.17532">
        <ele>1726.67</ele>
        <time>2012-05-18T14:26:36Z</time>
      </trkpt>
      <trkpt lat="41.84295" lon="9.17526">
        <ele>1726.67</ele>
        <time>2012-05-18T14:26:54Z</time>
      </trkpt>
      <trkpt lat="41.84296" lon="9.17511">
        <ele>1721.38</ele>
        <time>2012-05-18T14:27:07Z</time>
      </trkpt>
      <trkpt lat="41.84298" lon="9.17506">
        <ele>1720.9</ele>
        <time>2012-05-18T14:27:12Z</time>
      </trkpt>
      <trkpt lat="41.843" lon="9.17504">
        <ele>1720.9</ele>
        <time>2012-05-18T14:27:14Z</time>
      </trkpt>
      <trkpt lat="41.84303" lon="9.17495">
        <ele>1720.42</ele>
        <time>2012-05-18T14:27:22Z</time>
      </trkpt>
      <trkpt lat="41.84309" lon="9.17487">
        <ele>1719.94</ele>
        <time>2012-05-18T14:27:31Z</time>
      </trkpt>
      <trkpt lat="41.84309" lon="9.17477">
        <ele>1719.94</ele>
        <time>2012-05-18T14:27:39Z</time>
      </trkpt>
      <trkpt lat="41.84313" lon="9.17467">
        <ele>1718.49</ele>
        <time>2012-05-18T14:27:48Z</time>
      </trkpt>
      <trkpt lat="41.84315" lon="9.17456">
        <ele>1715.61</ele>
        <time>2012-05-18T14:28:04Z</time>
      </trkpt>
      <trkpt lat="41.84317" lon="9.17453">
        <ele>1714.17</ele>
        <time>2012-05-18T14:28:10Z</time>
      </trkpt>
      <trkpt lat="41.84321" lon="9.17442">
        <ele>1710.8</ele>
        <time>2012-05-18T14:28:22Z</time>
      </trkpt>
      <trkpt lat="41.84327" lon="9.17438">
        <ele>1709.36</ele>
        <time>2012-05-18T14:28:27Z</time>
      </trkpt>
      <trkpt lat="41.84336" lon="9.17422">
        <ele>1707.44</ele>
        <time>2012-05-18T14:28:41Z</time>
      </trkpt>
      <trkpt lat="41.84337" lon="9.17418">
        <ele>1706</ele>
        <time>2012-05-18T14:28:45Z</time>
      </trkpt>
      <trkpt lat="41.84336" lon="9.17408">
        <ele>1703.59</ele>
        <time>2012-05-18T14:28:51Z</time>
      </trkpt>
      <trkpt lat="41.84337" lon="9.17402">
        <ele>1703.11</ele>
        <time>2012-05-18T14:28:56Z</time>
      </trkpt>
      <trkpt lat="41.84337" lon="9.17398">
        <ele>1702.63</ele>
        <time>2012-05-18T14:28:59Z</time>
      </trkpt>
      <trkpt lat="41.84339" lon="9.17393">
        <ele>1701.67</ele>
        <time>2012-05-18T14:29:04Z</time>
      </trkpt>
      <trkpt lat="41.84334" lon="9.1737">
        <ele>1698.31</ele>
        <time>2012-05-18T14:29:18Z</time>
      </trkpt>
      <trkpt lat="41.84333" lon="9.17358">
        <ele>1696.38</ele>
        <time>2012-05-18T14:29:28Z</time>
      </trkpt>
      <trkpt lat="41.84332" lon="9.17352">
        <ele>1695.9</ele>
        <time>2012-05-18T14:29:32Z</time>
      </trkpt>
      <trkpt lat="41.84332" lon="9.17342">
        <ele>1694.46</ele>
        <time>2012-05-18T14:29:39Z</time>
      </trkpt>
      <trkpt lat="41.84327" lon="9.17329">
        <ele>1693.02</ele>
        <time>2012-05-18T14:29:49Z</time>
      </trkpt>
      <trkpt lat="41.84325" lon="9.17319">
        <ele>1691.58</ele>
        <time>2012-05-18T14:29:57Z</time>
      </trkpt>
      <trkpt lat="41.8432" lon="9.17301">
        <ele>1689.65</ele>
        <time>2012-05-18T14:30:10Z</time>
      </trkpt>
      <trkpt lat="41.84319" lon="9.1729">
        <ele>1687.25</ele>
        <time>2012-05-18T14:30:20Z</time>
      </trkpt>
      <trkpt lat="41.84321" lon="9.17285">
        <ele>1686.77</ele>
        <time>2012-05-18T14:30:24Z</time>
      </trkpt>
      <trkpt lat="41.84317" lon="9.17268">
        <ele>1685.33</ele>
        <time>2012-05-18T14:30:36Z</time>
      </trkpt>
      <trkpt lat="41.84313" lon="9.17257">
        <ele>1683.41</ele>
        <time>2012-05-18T14:30:47Z</time>
      </trkpt>
      <trkpt lat="41.84313" lon="9.17244">
        <ele>1681</ele>
        <time>2012-05-18T14:31:01Z</time>
      </trkpt>
      <trkpt lat="41.84318" lon="9.17232">
        <ele>1679.56</ele>
        <time>2012-05-18T14:31:12Z</time>
      </trkpt>
      <trkpt lat="41.84319" lon="9.17226">
        <ele>1678.12</ele>
        <time>2012-05-18T14:31:17Z</time>
      </trkpt>
      <trkpt lat="41.8432" lon="9.17221">
        <ele>1677.64</ele>
        <time>2012-05-18T14:31:21Z</time>
      </trkpt>
      <trkpt lat="41.84319" lon="9.17212">
        <ele>1675.23</ele>
        <time>2012-05-18T14:31:32Z</time>
      </trkpt>
      <trkpt lat="41.84318" lon="9.1721">
        <ele>1675.23</ele>
        <time>2012-05-18T14:31:40Z</time>
      </trkpt>
      <trkpt lat="41.84319" lon="9.17207">
        <ele>1674.75</ele>
        <time>2012-05-18T14:31:43Z</time>
      </trkpt>
      <trkpt lat="41.8432" lon="9.17196">
        <ele>1672.35</ele>
        <time>2012-05-18T14:31:54Z</time>
      </trkpt>
      <trkpt lat="41.84321" lon="9.17189">
        <ele>1669.95</ele>
        <time>2012-05-18T14:32:02Z</time>
      </trkpt>
      <trkpt lat="41.84323" lon="9.1718">
        <ele>1668.02</ele>
        <time>2012-05-18T14:32:11Z</time>
      </trkpt>
      <trkpt lat="41.8433" lon="9.1717">
        <ele>1662.26</ele>
        <time>2012-05-18T14:32:25Z</time>
      </trkpt>
      <trkpt lat="41.84329" lon="9.17168">
        <ele>1660.33</ele>
        <time>2012-05-18T14:32:46Z</time>
      </trkpt>
      <trkpt lat="41.84335" lon="9.17162">
        <ele>1659.37</ele>
        <time>2012-05-18T14:33:04Z</time>
      </trkpt>
      <trkpt lat="41.84336" lon="9.17158">
        <ele>1658.89</ele>
        <time>2012-05-18T14:33:16Z</time>
      </trkpt>
      <trkpt lat="41.84338" lon="9.17152">
        <ele>1656.97</ele>
        <time>2012-05-18T14:33:29Z</time>
      </trkpt>
      <trkpt lat="41.8434" lon="9.17148">
        <ele>1655.05</ele>
        <time>2012-05-18T14:33:42Z</time>
      </trkpt>
      <trkpt lat="41.84346" lon="9.17139">
        <ele>1651.68</ele>
        <time>2012-05-18T14:33:54Z</time>
      </trkpt>
      <trkpt lat="41.84346" lon="9.1713">
        <ele>1649.76</ele>
        <time>2012-05-18T14:34:08Z</time>
      </trkpt>
      <trkpt lat="41.84347" lon="9.17127">
        <ele>1649.28</ele>
        <time>2012-05-18T14:34:24Z</time>
      </trkpt>
      <trkpt lat="41.84347" lon="9.17122">
        <ele>1649.76</ele>
        <time>2012-05-18T14:34:41Z</time>
      </trkpt>
      <trkpt lat="41.84343" lon="9.17106">
        <ele>1649.76</ele>
        <time>2012-05-18T14:34:54Z</time>
      </trkpt>
      <trkpt lat="41.84346" lon="9.17099">
        <ele>1648.32</ele>
        <time>2012-05-18T14:35:01Z</time>
      </trkpt>
      <trkpt lat="41.84356" lon="9.17094">
        <ele>1646.88</ele>
        <time>2012-05-18T14:35:10Z</time>
      </trkpt>
      <trkpt lat="41.84358" lon="9.17082">
        <ele>1642.07</ele>
        <time>2012-05-18T14:35:22Z</time>
      </trkpt>
      <trkpt lat="41.84356" lon="9.17074">
        <ele>1639.67</ele>
        <time>2012-05-18T14:35:30Z</time>
      </trkpt>
      <trkpt lat="41.84359" lon="9.1706">
        <ele>1635.82</ele>
        <time>2012-05-18T14:35:43Z</time>
      </trkpt>
      <trkpt lat="41.8436" lon="9.17059">
        <ele>1635.34</ele>
        <time>2012-05-18T14:35:45Z</time>
      </trkpt>
      <trkpt lat="41.84362" lon="9.17047">
        <ele>1633.42</ele>
        <time>2012-05-18T14:35:59Z</time>
      </trkpt>
      <trkpt lat="41.84363" lon="9.17045">
        <ele>1633.42</ele>
        <time>2012-05-18T14:36:11Z</time>
      </trkpt>
      <trkpt lat="41.84367" lon="9.17029">
        <ele>1631.01</ele>
        <time>2012-05-18T14:36:24Z</time>
      </trkpt>
      <trkpt lat="41.84367" lon="9.17028">
        <ele>1630.53</ele>
        <time>2012-05-18T14:36:25Z</time>
      </trkpt>
      <trkpt lat="41.84368" lon="9.17025">
        <ele>1630.05</ele>
        <time>2012-05-18T14:36:27Z</time>
      </trkpt>
      <trkpt lat="41.84369" lon="9.17017">
        <ele>1628.13</ele>
        <time>2012-05-18T14:36:33Z</time>
      </trkpt>
      <trkpt lat="41.8437" lon="9.1701">
        <ele>1627.65</ele>
        <time>2012-05-18T14:36:39Z</time>
      </trkpt>
      <trkpt lat="41.8437" lon="9.17006">
        <ele>1626.69</ele>
        <time>2012-05-18T14:36:41Z</time>
      </trkpt>
      <trkpt lat="41.84371" lon="9.17001">
        <ele>1626.21</ele>
        <time>2012-05-18T14:36:45Z</time>
      </trkpt>
      <trkpt lat="41.84373" lon="9.16989">
        <ele>1624.28</ele>
        <time>2012-05-18T14:36:53Z</time>
      </trkpt>
      <trkpt lat="41.84374" lon="9.16982">
        <ele>1623.32</ele>
        <time>2012-05-18T14:36:59Z</time>
      </trkpt>
      <trkpt lat="41.84376" lon="9.16977">
        <ele>1622.84</ele>
        <time>2012-05-18T14:37:04Z</time>
      </trkpt>
      <trkpt lat="41.84377" lon="9.16967">
        <ele>1621.88</ele>
        <time>2012-05-18T14:37:11Z</time>
      </trkpt>
      <trkpt lat="41.84379" lon="9.16943">
        <ele>1619</ele>
        <time>2012-05-18T14:37:25Z</time>
      </trkpt>
      <trkpt lat="41.84377" lon="9.16934">
        <ele>1618.04</ele>
        <time>2012-05-18T14:37:32Z</time>
      </trkpt>
      <trkpt lat="41.84379" lon="9.16925">
        <ele>1617.07</ele>
        <time>2012-05-18T14:37:38Z</time>
      </trkpt>
      <trkpt lat="41.84387" lon="9.16915">
        <ele>1615.15</ele>
        <time>2012-05-18T14:37:50Z</time>
      </trkpt>
      <trkpt lat="41.8439" lon="9.16913">
        <ele>1614.19</ele>
        <time>2012-05-18T14:38:04Z</time>
      </trkpt>
      <trkpt lat="41.8439" lon="9.16914">
        <ele>1613.71</ele>
        <time>2012-05-18T14:38:50Z</time>
      </trkpt>
      <trkpt lat="41.8439" lon="9.16915">
        <ele>1614.19</ele>
        <time>2012-05-18T14:39:30Z</time>
      </trkpt>
      <trkpt lat="41.84389" lon="9.16914">
        <ele>1613.71</ele>
        <time>2012-05-18T14:39:56Z</time>
      </trkpt>
      <trkpt lat="41.84389" lon="9.16913">
        <ele>1614.19</ele>
        <time>2012-05-18T14:40:36Z</time>
      </trkpt>
      <trkpt lat="41.84389" lon="9.16914">
        <ele>1613.71</ele>
        <time>2012-05-18T14:41:20Z</time>
      </trkpt>
      <trkpt lat="41.84387" lon="9.16907">
        <ele>1612.75</ele>
        <time>2012-05-18T14:41:31Z</time>
      </trkpt>
      <trkpt lat="41.84383" lon="9.169">
        <ele>1612.75</ele>
        <time>2012-05-18T14:41:38Z</time>
      </trkpt>
      <trkpt lat="41.84384" lon="9.16891">
        <ele>1610.83</ele>
        <time>2012-05-18T14:41:49Z</time>
      </trkpt>
      <trkpt lat="41.84384" lon="9.16892">
        <ele>1610.83</ele>
        <time>2012-05-18T14:41:50Z</time>
      </trkpt>
      <trkpt lat="41.84378" lon="9.16892">
        <ele>1609.86</ele>
        <time>2012-05-18T14:41:55Z</time>
      </trkpt>
      <trkpt lat="41.84378" lon="9.1689">
        <ele>1609.38</ele>
        <time>2012-05-18T14:42:03Z</time>
      </trkpt>
      <trkpt lat="41.84383" lon="9.1689">
        <ele>1609.38</ele>
        <time>2012-05-18T14:42:18Z</time>
      </trkpt>
      <trkpt lat="41.84383" lon="9.16889">
        <ele>1609.86</ele>
        <time>2012-05-18T14:42:42Z</time>
      </trkpt>
      <trkpt lat="41.84382" lon="9.16889">
        <ele>1609.38</ele>
        <time>2012-05-18T14:44:53Z</time>
      </trkpt>
      <trkpt lat="41.84384" lon="9.16888">
        <ele>1609.38</ele>
        <time>2012-05-18T14:48:09Z</time>
      </trkpt>
      <trkpt lat="41.84383" lon="9.16888">
        <ele>1609.38</ele>
        <time>2012-05-18T14:48:20Z</time>
      </trkpt>
      <trkpt lat="41.84376" lon="9.16888">
        <ele>1608.9</ele>
        <time>2012-05-18T14:48:30Z</time>
      </trkpt>
      <trkpt lat="41.84366" lon="9.1687">
        <ele>1606.98</ele>
        <time>2012-05-18T14:48:45Z</time>
      </trkpt>
      <trkpt lat="41.84361" lon="9.16864">
        <ele>1606.5</ele>
        <time>2012-05-18T14:48:50Z</time>
      </trkpt>
      <trkpt lat="41.84351" lon="9.16845">
        <ele>1605.06</ele>
        <time>2012-05-18T14:49:06Z</time>
      </trkpt>
      <trkpt lat="41.84347" lon="9.1683">
        <ele>1602.66</ele>
        <time>2012-05-18T14:49:15Z</time>
      </trkpt>
      <trkpt lat="41.84341" lon="9.16818">
        <ele>1603.62</ele>
        <time>2012-05-18T14:49:23Z</time>
      </trkpt>
      <trkpt lat="41.84335" lon="9.16802">
        <ele>1603.14</ele>
        <time>2012-05-18T14:49:33Z</time>
      </trkpt>
      <trkpt lat="41.84331" lon="9.16792">
        <ele>1602.66</ele>
        <time>2012-05-18T14:49:38Z</time>
      </trkpt>
      <trkpt lat="41.84321" lon="9.16776">
        <ele>1599.77</ele>
        <time>2012-05-18T14:49:49Z</time>
      </trkpt>
      <trkpt lat="41.84314" lon="9.16767">
        <ele>1599.77</ele>
        <time>2012-05-18T14:49:56Z</time>
      </trkpt>
      <trkpt lat="41.84304" lon="9.1675">
        <ele>1598.81</ele>
        <time>2012-05-18T14:50:09Z</time>
      </trkpt>
      <trkpt lat="41.84303" lon="9.16748">
        <ele>1598.33</ele>
        <time>2012-05-18T14:50:13Z</time>
      </trkpt>
      <trkpt lat="41.84297" lon="9.1674">
        <ele>1598.81</ele>
        <time>2012-05-18T14:50:20Z</time>
      </trkpt>
      <trkpt lat="41.84282" lon="9.16721">
        <ele>1598.33</ele>
        <time>2012-05-18T14:50:34Z</time>
      </trkpt>
      <trkpt lat="41.84268" lon="9.16702">
        <ele>1597.37</ele>
        <time>2012-05-18T14:50:47Z</time>
      </trkpt>
      <trkpt lat="41.84253" lon="9.16687">
        <ele>1597.37</ele>
        <time>2012-05-18T14:50:59Z</time>
      </trkpt>
      <trkpt lat="41.84237" lon="9.16673">
        <ele>1594.96</ele>
        <time>2012-05-18T14:51:12Z</time>
      </trkpt>
      <trkpt lat="41.84224" lon="9.16651">
        <ele>1594.96</ele>
        <time>2012-05-18T14:51:27Z</time>
      </trkpt>
      <trkpt lat="41.84215" lon="9.16625">
        <ele>1595.45</ele>
        <time>2012-05-18T14:51:41Z</time>
      </trkpt>
      <trkpt lat="41.84206" lon="9.16599">
        <ele>1596.89</ele>
        <time>2012-05-18T14:51:55Z</time>
      </trkpt>
      <trkpt lat="41.84203" lon="9.16576">
        <ele>1595.45</ele>
        <time>2012-05-18T14:52:08Z</time>
      </trkpt>
      <trkpt lat="41.84202" lon="9.16551">
        <ele>1594.96</ele>
        <time>2012-05-18T14:52:21Z</time>
      </trkpt>
      <trkpt lat="41.84204" lon="9.1654">
        <ele>1594.96</ele>
        <time>2012-05-18T14:52:27Z</time>
      </trkpt>
      <trkpt lat="41.84201" lon="9.16522">
        <ele>1594.96</ele>
        <time>2012-05-18T14:52:37Z</time>
      </trkpt>
      <trkpt lat="41.84201" lon="9.16519">
        <ele>1595.45</ele>
        <time>2012-05-18T14:52:39Z</time>
      </trkpt>
      <trkpt lat="41.84197" lon="9.16512">
        <ele>1595.45</ele>
        <time>2012-05-18T14:52:53Z</time>
      </trkpt>
      <trkpt lat="41.84195" lon="9.1651">
        <ele>1595.93</ele>
        <time>2012-05-18T14:52:55Z</time>
      </trkpt>
      <trkpt lat="41.84184" lon="9.16506">
        <ele>1597.37</ele>
        <time>2012-05-18T14:53:03Z</time>
      </trkpt>
      <trkpt lat="41.84166" lon="9.16492">
        <ele>1595.93</ele>
        <time>2012-05-18T14:53:17Z</time>
      </trkpt>
      <trkpt lat="41.84165" lon="9.16491">
        <ele>1595.93</ele>
        <time>2012-05-18T14:53:18Z</time>
      </trkpt>
      <trkpt lat="41.84159" lon="9.16489">
        <ele>1595.93</ele>
        <time>2012-05-18T14:53:22Z</time>
      </trkpt>
      <trkpt lat="41.84153" lon="9.16489">
        <ele>1597.37</ele>
        <time>2012-05-18T14:53:26Z</time>
      </trkpt>
      <trkpt lat="41.84137" lon="9.16483">
        <ele>1596.89</ele>
        <time>2012-05-18T14:53:38Z</time>
      </trkpt>
      <trkpt lat="41.84121" lon="9.16461">
        <ele>1595.45</ele>
        <time>2012-05-18T14:53:54Z</time>
      </trkpt>
      <trkpt lat="41.84105" lon="9.1644">
        <ele>1594.48</ele>
        <time>2012-05-18T14:54:10Z</time>
      </trkpt>
      <trkpt lat="41.84091" lon="9.16426">
        <ele>1594.48</ele>
        <time>2012-05-18T14:54:23Z</time>
      </trkpt>
      <trkpt lat="41.84071" lon="9.16411">
        <ele>1593.04</ele>
        <time>2012-05-18T14:54:37Z</time>
      </trkpt>
      <trkpt lat="41.84052" lon="9.16391">
        <ele>1593.52</ele>
        <time>2012-05-18T14:54:56Z</time>
      </trkpt>
      <trkpt lat="41.84033" lon="9.16376">
        <ele>1593.52</ele>
        <time>2012-05-18T14:55:11Z</time>
      </trkpt>
      <trkpt lat="41.84026" lon="9.1637">
        <ele>1594.48</ele>
        <time>2012-05-18T14:55:15Z</time>
      </trkpt>
      <trkpt lat="41.84008" lon="9.16349">
        <ele>1594</ele>
        <time>2012-05-18T14:55:30Z</time>
      </trkpt>
      <trkpt lat="41.84006" lon="9.16345">
        <ele>1593.04</ele>
        <time>2012-05-18T14:55:34Z</time>
      </trkpt>
      <trkpt lat="41.83991" lon="9.16325">
        <ele>1591.12</ele>
        <time>2012-05-18T14:55:47Z</time>
      </trkpt>
      <trkpt lat="41.8398" lon="9.16295">
        <ele>1587.75</ele>
        <time>2012-05-18T14:56:04Z</time>
      </trkpt>
      <trkpt lat="41.83972" lon="9.16271">
        <ele>1584.87</ele>
        <time>2012-05-18T14:56:17Z</time>
      </trkpt>
      <trkpt lat="41.83965" lon="9.16261">
        <ele>1583.43</ele>
        <time>2012-05-18T14:56:23Z</time>
      </trkpt>
      <trkpt lat="41.83949" lon="9.16252">
        <ele>1582.47</ele>
        <time>2012-05-18T14:56:34Z</time>
      </trkpt>
      <trkpt lat="41.83937" lon="9.16236">
        <ele>1581.51</ele>
        <time>2012-05-18T14:56:45Z</time>
      </trkpt>
      <trkpt lat="41.83922" lon="9.16212">
        <ele>1581.99</ele>
        <time>2012-05-18T14:57:00Z</time>
      </trkpt>
      <trkpt lat="41.839" lon="9.162">
        <ele>1581.99</ele>
        <time>2012-05-18T14:57:15Z</time>
      </trkpt>
      <trkpt lat="41.83883" lon="9.16182">
        <ele>1581.51</ele>
        <time>2012-05-18T14:57:30Z</time>
      </trkpt>
      <trkpt lat="41.8388" lon="9.1617">
        <ele>1580.54</ele>
        <time>2012-05-18T14:57:37Z</time>
      </trkpt>
      <trkpt lat="41.83875" lon="9.16146">
        <ele>1580.54</ele>
        <time>2012-05-18T14:57:51Z</time>
      </trkpt>
      <trkpt lat="41.83866" lon="9.16137">
        <ele>1580.06</ele>
        <time>2012-05-18T14:57:59Z</time>
      </trkpt>
      <trkpt lat="41.83849" lon="9.16119">
        <ele>1579.1</ele>
        <time>2012-05-18T14:58:14Z</time>
      </trkpt>
      <trkpt lat="41.8383" lon="9.16102">
        <ele>1578.62</ele>
        <time>2012-05-18T14:58:29Z</time>
      </trkpt>
      <trkpt lat="41.83818" lon="9.1609">
        <ele>1579.58</ele>
        <time>2012-05-18T14:58:41Z</time>
      </trkpt>
      <trkpt lat="41.83808" lon="9.16078">
        <ele>1578.14</ele>
        <time>2012-05-18T14:58:51Z</time>
      </trkpt>
      <trkpt lat="41.83794" lon="9.16068">
        <ele>1578.14</ele>
        <time>2012-05-18T14:59:02Z</time>
      </trkpt>
      <trkpt lat="41.83776" lon="9.16057">
        <ele>1576.22</ele>
        <time>2012-05-18T14:59:15Z</time>
      </trkpt>
      <trkpt lat="41.83759" lon="9.16047">
        <ele>1575.74</ele>
        <time>2012-05-18T14:59:28Z</time>
      </trkpt>
      <trkpt lat="41.83741" lon="9.16034">
        <ele>1575.26</ele>
        <time>2012-05-18T14:59:42Z</time>
      </trkpt>
      <trkpt lat="41.83725" lon="9.16025">
        <ele>1575.74</ele>
        <time>2012-05-18T14:59:56Z</time>
      </trkpt>
      <trkpt lat="41.83715" lon="9.1602">
        <ele>1574.78</ele>
        <time>2012-05-18T15:00:17Z</time>
      </trkpt>
      <trkpt lat="41.83714" lon="9.16019">
        <ele>1574.78</ele>
        <time>2012-05-18T15:00:37Z</time>
      </trkpt>
      <trkpt lat="41.83709" lon="9.16015">
        <ele>1574.78</ele>
        <time>2012-05-18T15:01:17Z</time>
      </trkpt>
      <trkpt lat="41.83691" lon="9.16006">
        <ele>1575.26</ele>
        <time>2012-05-18T15:01:31Z</time>
      </trkpt>
      <trkpt lat="41.83676" lon="9.15998">
        <ele>1574.3</ele>
        <time>2012-05-18T15:01:47Z</time>
      </trkpt>
      <trkpt lat="41.83661" lon="9.15993">
        <ele>1577.18</ele>
        <time>2012-05-18T15:01:59Z</time>
      </trkpt>
      <trkpt lat="41.83641" lon="9.15983">
        <ele>1577.66</ele>
        <time>2012-05-18T15:02:14Z</time>
      </trkpt>
      <trkpt lat="41.83617" lon="9.15968">
        <ele>1580.54</ele>
        <time>2012-05-18T15:02:32Z</time>
      </trkpt>
      <trkpt lat="41.836" lon="9.15953">
        <ele>1581.03</ele>
        <time>2012-05-18T15:02:47Z</time>
      </trkpt>
      <trkpt lat="41.83582" lon="9.15932">
        <ele>1581.03</ele>
        <time>2012-05-18T15:03:03Z</time>
      </trkpt>
      <trkpt lat="41.83569" lon="9.15918">
        <ele>1580.54</ele>
        <time>2012-05-18T15:03:14Z</time>
      </trkpt>
      <trkpt lat="41.83554" lon="9.15897">
        <ele>1580.54</ele>
        <time>2012-05-18T15:03:29Z</time>
      </trkpt>
      <trkpt lat="41.83543" lon="9.1587">
        <ele>1578.14</ele>
        <time>2012-05-18T15:03:44Z</time>
      </trkpt>
      <trkpt lat="41.83534" lon="9.15847">
        <ele>1574.3</ele>
        <time>2012-05-18T15:03:59Z</time>
      </trkpt>
      <trkpt lat="41.83525" lon="9.15826">
        <ele>1571.89</ele>
        <time>2012-05-18T15:04:12Z</time>
      </trkpt>
      <trkpt lat="41.83514" lon="9.15803">
        <ele>1568.05</ele>
        <time>2012-05-18T15:04:27Z</time>
      </trkpt>
      <trkpt lat="41.83513" lon="9.158">
        <ele>1568.05</ele>
        <time>2012-05-18T15:04:29Z</time>
      </trkpt>
      <trkpt lat="41.83506" lon="9.15777">
        <ele>1567.57</ele>
        <time>2012-05-18T15:04:42Z</time>
      </trkpt>
      <trkpt lat="41.83499" lon="9.15769">
        <ele>1566.61</ele>
        <time>2012-05-18T15:04:48Z</time>
      </trkpt>
      <trkpt lat="41.83497" lon="9.15764">
        <ele>1566.12</ele>
        <time>2012-05-18T15:04:51Z</time>
      </trkpt>
      <trkpt lat="41.8349" lon="9.15739">
        <ele>1564.2</ele>
        <time>2012-05-18T15:05:05Z</time>
      </trkpt>
      <trkpt lat="41.83488" lon="9.15735">
        <ele>1563.24</ele>
        <time>2012-05-18T15:05:08Z</time>
      </trkpt>
      <trkpt lat="41.83485" lon="9.15723">
        <ele>1563.24</ele>
        <time>2012-05-18T15:05:14Z</time>
      </trkpt>
      <trkpt lat="41.83481" lon="9.15711">
        <ele>1561.32</ele>
        <time>2012-05-18T15:05:22Z</time>
      </trkpt>
      <trkpt lat="41.83482" lon="9.15708">
        <ele>1560.84</ele>
        <time>2012-05-18T15:05:24Z</time>
      </trkpt>
      <trkpt lat="41.83481" lon="9.15696">
        <ele>1559.88</ele>
        <time>2012-05-18T15:05:31Z</time>
      </trkpt>
      <trkpt lat="41.83479" lon="9.15693">
        <ele>1559.88</ele>
        <time>2012-05-18T15:05:34Z</time>
      </trkpt>
      <trkpt lat="41.83475" lon="9.15685">
        <ele>1559.88</ele>
        <time>2012-05-18T15:05:39Z</time>
      </trkpt>
      <trkpt lat="41.83456" lon="9.15677">
        <ele>1556.99</ele>
        <time>2012-05-18T15:05:52Z</time>
      </trkpt>
      <trkpt lat="41.83438" lon="9.15668">
        <ele>1554.59</ele>
        <time>2012-05-18T15:06:06Z</time>
      </trkpt>
      <trkpt lat="41.83429" lon="9.15652">
        <ele>1553.63</ele>
        <time>2012-05-18T15:06:20Z</time>
      </trkpt>
      <trkpt lat="41.83427" lon="9.15645">
        <ele>1553.15</ele>
        <time>2012-05-18T15:06:24Z</time>
      </trkpt>
      <trkpt lat="41.83428" lon="9.15615">
        <ele>1551.22</ele>
        <time>2012-05-18T15:06:40Z</time>
      </trkpt>
      <trkpt lat="41.83427" lon="9.15585">
        <ele>1552.67</ele>
        <time>2012-05-18T15:06:56Z</time>
      </trkpt>
      <trkpt lat="41.83422" lon="9.15552">
        <ele>1553.63</ele>
        <time>2012-05-18T15:07:13Z</time>
      </trkpt>
      <trkpt lat="41.83418" lon="9.15535">
        <ele>1554.11</ele>
        <time>2012-05-18T15:07:22Z</time>
      </trkpt>
      <trkpt lat="41.83409" lon="9.15517">
        <ele>1552.67</ele>
        <time>2012-05-18T15:07:33Z</time>
      </trkpt>
      <trkpt lat="41.83399" lon="9.15493">
        <ele>1552.19</ele>
        <time>2012-05-18T15:07:47Z</time>
      </trkpt>
      <trkpt lat="41.83387" lon="9.15473">
        <ele>1554.11</ele>
        <time>2012-05-18T15:07:59Z</time>
      </trkpt>
      <trkpt lat="41.83382" lon="9.15462">
        <ele>1555.07</ele>
        <time>2012-05-18T15:08:05Z</time>
      </trkpt>
      <trkpt lat="41.83367" lon="9.15436">
        <ele>1554.59</ele>
        <time>2012-05-18T15:08:22Z</time>
      </trkpt>
      <trkpt lat="41.83351" lon="9.15416">
        <ele>1552.19</ele>
        <time>2012-05-18T15:08:36Z</time>
      </trkpt>
      <trkpt lat="41.83348" lon="9.15409">
        <ele>1553.15</ele>
        <time>2012-05-18T15:08:40Z</time>
      </trkpt>
      <trkpt lat="41.83344" lon="9.154">
        <ele>1553.63</ele>
        <time>2012-05-18T15:08:46Z</time>
      </trkpt>
      <trkpt lat="41.83338" lon="9.15378">
        <ele>1552.67</ele>
        <time>2012-05-18T15:09:00Z</time>
      </trkpt>
      <trkpt lat="41.83335" lon="9.15375">
        <ele>1552.67</ele>
        <time>2012-05-18T15:09:03Z</time>
      </trkpt>
      <trkpt lat="41.83325" lon="9.1537">
        <ele>1551.71</ele>
        <time>2012-05-18T15:09:11Z</time>
      </trkpt>
      <trkpt lat="41.83307" lon="9.15358">
        <ele>1548.34</ele>
        <time>2012-05-18T15:09:26Z</time>
      </trkpt>
      <trkpt lat="41.83304" lon="9.15352">
        <ele>1547.38</ele>
        <time>2012-05-18T15:09:41Z</time>
      </trkpt>
      <trkpt lat="41.83304" lon="9.15352">
        <ele>1547.38</ele>
        <time>2012-05-18T15:10:03Z</time>
      </trkpt>
      <trkpt lat="41.83298" lon="9.15348">
        <ele>1547.86</ele>
        <time>2012-05-18T15:10:08Z</time>
      </trkpt>
      <trkpt lat="41.83295" lon="9.15345">
        <ele>1548.82</ele>
        <time>2012-05-18T15:10:11Z</time>
      </trkpt>
      <trkpt lat="41.83276" lon="9.15322">
        <ele>1546.9</ele>
        <time>2012-05-18T15:10:28Z</time>
      </trkpt>
      <trkpt lat="41.83264" lon="9.15307">
        <ele>1544.5</ele>
        <time>2012-05-18T15:10:42Z</time>
      </trkpt>
      <trkpt lat="41.83263" lon="9.15306">
        <ele>1544.5</ele>
        <time>2012-05-18T15:10:46Z</time>
      </trkpt>
      <trkpt lat="41.83255" lon="9.15298">
        <ele>1544.01</ele>
        <time>2012-05-18T15:10:53Z</time>
      </trkpt>
      <trkpt lat="41.83238" lon="9.15286">
        <ele>1544.01</ele>
        <time>2012-05-18T15:11:07Z</time>
      </trkpt>
      <trkpt lat="41.83232" lon="9.15276">
        <ele>1544.01</ele>
        <time>2012-05-18T15:11:13Z</time>
      </trkpt>
      <trkpt lat="41.83217" lon="9.1526">
        <ele>1544.5</ele>
        <time>2012-05-18T15:11:26Z</time>
      </trkpt>
      <trkpt lat="41.83204" lon="9.15248">
        <ele>1546.9</ele>
        <time>2012-05-18T15:11:38Z</time>
      </trkpt>
      <trkpt lat="41.83193" lon="9.15244">
        <ele>1546.42</ele>
        <time>2012-05-18T15:11:50Z</time>
      </trkpt>
      <trkpt lat="41.83177" lon="9.15239">
        <ele>1544.98</ele>
        <time>2012-05-18T15:12:01Z</time>
      </trkpt>
      <trkpt lat="41.83166" lon="9.15231">
        <ele>1543.05</ele>
        <time>2012-05-18T15:12:10Z</time>
      </trkpt>
      <trkpt lat="41.83163" lon="9.15231">
        <ele>1543.05</ele>
        <time>2012-05-18T15:12:12Z</time>
      </trkpt>
      <trkpt lat="41.83148" lon="9.15224">
        <ele>1544.01</ele>
        <time>2012-05-18T15:12:25Z</time>
      </trkpt>
      <trkpt lat="41.83143" lon="9.15223">
        <ele>1544.5</ele>
        <time>2012-05-18T15:12:29Z</time>
      </trkpt>
      <trkpt lat="41.83131" lon="9.15215">
        <ele>1544.01</ele>
        <time>2012-05-18T15:12:38Z</time>
      </trkpt>
      <trkpt lat="41.83119" lon="9.15201">
        <ele>1544.5</ele>
        <time>2012-05-18T15:12:51Z</time>
      </trkpt>
      <trkpt lat="41.83117" lon="9.15197">
        <ele>1544.5</ele>
        <time>2012-05-18T15:13:03Z</time>
      </trkpt>
      <trkpt lat="41.83111" lon="9.15193">
        <ele>1544.01</ele>
        <time>2012-05-18T15:13:08Z</time>
      </trkpt>
      <trkpt lat="41.83095" lon="9.15181">
        <ele>1543.53</ele>
        <time>2012-05-18T15:13:22Z</time>
      </trkpt>
      <trkpt lat="41.83094" lon="9.15178">
        <ele>1543.53</ele>
        <time>2012-05-18T15:13:24Z</time>
      </trkpt>
      <trkpt lat="41.83083" lon="9.15154">
        <ele>1542.09</ele>
        <time>2012-05-18T15:13:39Z</time>
      </trkpt>
      <trkpt lat="41.83082" lon="9.15149">
        <ele>1541.13</ele>
        <time>2012-05-18T15:13:42Z</time>
      </trkpt>
      <trkpt lat="41.83076" lon="9.15126">
        <ele>1540.17</ele>
        <time>2012-05-18T15:13:55Z</time>
      </trkpt>
      <trkpt lat="41.83069" lon="9.15101">
        <ele>1540.65</ele>
        <time>2012-05-18T15:14:09Z</time>
      </trkpt>
      <trkpt lat="41.83063" lon="9.15079">
        <ele>1540.65</ele>
        <time>2012-05-18T15:14:22Z</time>
      </trkpt>
      <trkpt lat="41.83059" lon="9.1507">
        <ele>1539.69</ele>
        <time>2012-05-18T15:14:27Z</time>
      </trkpt>
      <trkpt lat="41.83051" lon="9.15046">
        <ele>1540.65</ele>
        <time>2012-05-18T15:14:40Z</time>
      </trkpt>
      <trkpt lat="41.83046" lon="9.15023">
        <ele>1539.69</ele>
        <time>2012-05-18T15:14:52Z</time>
      </trkpt>
      <trkpt lat="41.83043" lon="9.15013">
        <ele>1538.73</ele>
        <time>2012-05-18T15:14:59Z</time>
      </trkpt>
      <trkpt lat="41.83043" lon="9.15008">
        <ele>1538.73</ele>
        <time>2012-05-18T15:15:02Z</time>
      </trkpt>
      <trkpt lat="41.8304" lon="9.14997">
        <ele>1540.65</ele>
        <time>2012-05-18T15:15:09Z</time>
      </trkpt>
      <trkpt lat="41.8304" lon="9.14993">
        <ele>1540.65</ele>
        <time>2012-05-18T15:15:11Z</time>
      </trkpt>
      <trkpt lat="41.83038" lon="9.1499">
        <ele>1540.17</ele>
        <time>2012-05-18T15:15:14Z</time>
      </trkpt>
      <trkpt lat="41.83035" lon="9.14976">
        <ele>1540.65</ele>
        <time>2012-05-18T15:15:22Z</time>
      </trkpt>
      <trkpt lat="41.83036" lon="9.14955">
        <ele>1543.05</ele>
        <time>2012-05-18T15:15:35Z</time>
      </trkpt>
      <trkpt lat="41.83034" lon="9.14933">
        <ele>1546.42</ele>
        <time>2012-05-18T15:15:50Z</time>
      </trkpt>
      <trkpt lat="41.83033" lon="9.14926">
        <ele>1545.94</ele>
        <time>2012-05-18T15:15:54Z</time>
      </trkpt>
      <trkpt lat="41.83024" lon="9.14899">
        <ele>1549.3</ele>
        <time>2012-05-18T15:16:11Z</time>
      </trkpt>
      <trkpt lat="41.83014" lon="9.14875">
        <ele>1549.78</ele>
        <time>2012-05-18T15:16:27Z</time>
      </trkpt>
      <trkpt lat="41.83012" lon="9.14872">
        <ele>1549.78</ele>
        <time>2012-05-18T15:16:29Z</time>
      </trkpt>
      <trkpt lat="41.82998" lon="9.14846">
        <ele>1551.22</ele>
        <time>2012-05-18T15:16:47Z</time>
      </trkpt>
      <trkpt lat="41.82984" lon="9.14822">
        <ele>1551.22</ele>
        <time>2012-05-18T15:17:02Z</time>
      </trkpt>
      <trkpt lat="41.82979" lon="9.14816">
        <ele>1551.71</ele>
        <time>2012-05-18T15:17:07Z</time>
      </trkpt>
      <trkpt lat="41.82961" lon="9.14809">
        <ele>1551.22</ele>
        <time>2012-05-18T15:17:21Z</time>
      </trkpt>
      <trkpt lat="41.82943" lon="9.14808">
        <ele>1551.22</ele>
        <time>2012-05-18T15:17:34Z</time>
      </trkpt>
      <trkpt lat="41.82927" lon="9.14806">
        <ele>1553.15</ele>
        <time>2012-05-18T15:17:46Z</time>
      </trkpt>
      <trkpt lat="41.82905" lon="9.14799">
        <ele>1554.11</ele>
        <time>2012-05-18T15:18:02Z</time>
      </trkpt>
      <trkpt lat="41.82888" lon="9.14787">
        <ele>1551.22</ele>
        <time>2012-05-18T15:18:15Z</time>
      </trkpt>
      <trkpt lat="41.82885" lon="9.14783">
        <ele>1550.74</ele>
        <time>2012-05-18T15:18:18Z</time>
      </trkpt>
      <trkpt lat="41.82875" lon="9.14778">
        <ele>1549.3</ele>
        <time>2012-05-18T15:18:25Z</time>
      </trkpt>
      <trkpt lat="41.8286" lon="9.14768">
        <ele>1547.86</ele>
        <time>2012-05-18T15:18:38Z</time>
      </trkpt>
      <trkpt lat="41.82845" lon="9.14762">
        <ele>1546.9</ele>
        <time>2012-05-18T15:18:50Z</time>
      </trkpt>
      <trkpt lat="41.8283" lon="9.14749">
        <ele>1546.42</ele>
        <time>2012-05-18T15:19:03Z</time>
      </trkpt>
      <trkpt lat="41.82811" lon="9.14741">
        <ele>1544.98</ele>
        <time>2012-05-18T15:19:17Z</time>
      </trkpt>
      <trkpt lat="41.82792" lon="9.14731">
        <ele>1542.09</ele>
        <time>2012-05-18T15:19:31Z</time>
      </trkpt>
      <trkpt lat="41.82773" lon="9.14717">
        <ele>1538.73</ele>
        <time>2012-05-18T15:19:47Z</time>
      </trkpt>
      <trkpt lat="41.82758" lon="9.14706">
        <ele>1535.36</ele>
        <time>2012-05-18T15:20:01Z</time>
      </trkpt>
      <trkpt lat="41.82758" lon="9.14705">
        <ele>1535.36</ele>
        <time>2012-05-18T15:20:40Z</time>
      </trkpt>
      <trkpt lat="41.82758" lon="9.14706">
        <ele>1534.88</ele>
        <time>2012-05-18T15:20:42Z</time>
      </trkpt>
      <trkpt lat="41.82745" lon="9.14696">
        <ele>1534.4</ele>
        <time>2012-05-18T15:20:54Z</time>
      </trkpt>
      <trkpt lat="41.82741" lon="9.1469">
        <ele>1534.4</ele>
        <time>2012-05-18T15:20:58Z</time>
      </trkpt>
      <trkpt lat="41.82739" lon="9.14687">
        <ele>1533.92</ele>
        <time>2012-05-18T15:21:00Z</time>
      </trkpt>
      <trkpt lat="41.82737" lon="9.14684">
        <ele>1534.4</ele>
        <time>2012-05-18T15:21:03Z</time>
      </trkpt>
      <trkpt lat="41.82723" lon="9.14678">
        <ele>1534.4</ele>
        <time>2012-05-18T15:21:15Z</time>
      </trkpt>
      <trkpt lat="41.82718" lon="9.14672">
        <ele>1534.4</ele>
        <time>2012-05-18T15:21:20Z</time>
      </trkpt>
      <trkpt lat="41.82712" lon="9.14668">
        <ele>1534.88</ele>
        <time>2012-05-18T15:21:26Z</time>
      </trkpt>
      <trkpt lat="41.82703" lon="9.14662">
        <ele>1535.84</ele>
        <time>2012-05-18T15:21:33Z</time>
      </trkpt>
      <trkpt lat="41.82695" lon="9.14657">
        <ele>1536.8</ele>
        <time>2012-05-18T15:21:40Z</time>
      </trkpt>
      <trkpt lat="41.82679" lon="9.14645">
        <ele>1538.73</ele>
        <time>2012-05-18T15:21:54Z</time>
      </trkpt>
      <trkpt lat="41.82673" lon="9.14642">
        <ele>1539.69</ele>
        <time>2012-05-18T15:21:59Z</time>
      </trkpt>
      <trkpt lat="41.8266" lon="9.14633">
        <ele>1541.61</ele>
        <time>2012-05-18T15:22:10Z</time>
      </trkpt>
      <trkpt lat="41.82641" lon="9.14621">
        <ele>1542.57</ele>
        <time>2012-05-18T15:22:27Z</time>
      </trkpt>
      <trkpt lat="41.82635" lon="9.14617">
        <ele>1543.05</ele>
        <time>2012-05-18T15:22:31Z</time>
      </trkpt>
      <trkpt lat="41.82626" lon="9.14615">
        <ele>1541.61</ele>
        <time>2012-05-18T15:22:39Z</time>
      </trkpt>
      <trkpt lat="41.82604" lon="9.14605">
        <ele>1541.13</ele>
        <time>2012-05-18T15:22:54Z</time>
      </trkpt>
      <trkpt lat="41.82603" lon="9.14604">
        <ele>1541.13</ele>
        <time>2012-05-18T15:22:55Z</time>
      </trkpt>
      <trkpt lat="41.82598" lon="9.14599">
        <ele>1541.13</ele>
        <time>2012-05-18T15:22:59Z</time>
      </trkpt>
      <trkpt lat="41.82595" lon="9.14595">
        <ele>1541.13</ele>
        <time>2012-05-18T15:23:02Z</time>
      </trkpt>
      <trkpt lat="41.82579" lon="9.14579">
        <ele>1539.21</ele>
        <time>2012-05-18T15:23:15Z</time>
      </trkpt>
      <trkpt lat="41.82571" lon="9.14572">
        <ele>1538.73</ele>
        <time>2012-05-18T15:23:22Z</time>
      </trkpt>
      <trkpt lat="41.82553" lon="9.14565">
        <ele>1538.25</ele>
        <time>2012-05-18T15:23:35Z</time>
      </trkpt>
      <trkpt lat="41.82534" lon="9.14563">
        <ele>1536.32</ele>
        <time>2012-05-18T15:23:49Z</time>
      </trkpt>
      <trkpt lat="41.82516" lon="9.14563">
        <ele>1535.36</ele>
        <time>2012-05-18T15:24:01Z</time>
      </trkpt>
      <trkpt lat="41.82499" lon="9.1456">
        <ele>1535.36</ele>
        <time>2012-05-18T15:24:13Z</time>
      </trkpt>
      <trkpt lat="41.82494" lon="9.14555">
        <ele>1534.88</ele>
        <time>2012-05-18T15:24:18Z</time>
      </trkpt>
      <trkpt lat="41.82489" lon="9.1455">
        <ele>1534.4</ele>
        <time>2012-05-18T15:24:22Z</time>
      </trkpt>
      <trkpt lat="41.82481" lon="9.14531">
        <ele>1534.4</ele>
        <time>2012-05-18T15:24:35Z</time>
      </trkpt>
      <trkpt lat="41.82475" lon="9.14503">
        <ele>1534.4</ele>
        <time>2012-05-18T15:24:50Z</time>
      </trkpt>
      <trkpt lat="41.82474" lon="9.145">
        <ele>1533.92</ele>
        <time>2012-05-18T15:24:52Z</time>
      </trkpt>
      <trkpt lat="41.82466" lon="9.14471">
        <ele>1532</ele>
        <time>2012-05-18T15:25:08Z</time>
      </trkpt>
      <trkpt lat="41.82462" lon="9.1445">
        <ele>1532</ele>
        <time>2012-05-18T15:25:21Z</time>
      </trkpt>
      <trkpt lat="41.82454" lon="9.14425">
        <ele>1529.59</ele>
        <time>2012-05-18T15:25:35Z</time>
      </trkpt>
      <trkpt lat="41.82451" lon="9.14415">
        <ele>1529.59</ele>
        <time>2012-05-18T15:25:45Z</time>
      </trkpt>
      <trkpt lat="41.82451" lon="9.14413">
        <ele>1529.59</ele>
        <time>2012-05-18T15:25:46Z</time>
      </trkpt>
      <trkpt lat="41.82451" lon="9.14406">
        <ele>1529.11</ele>
        <time>2012-05-18T15:25:50Z</time>
      </trkpt>
      <trkpt lat="41.82449" lon="9.14381">
        <ele>1525.27</ele>
        <time>2012-05-18T15:26:04Z</time>
      </trkpt>
      <trkpt lat="41.82444" lon="9.14365">
        <ele>1525.27</ele>
        <time>2012-05-18T15:26:13Z</time>
      </trkpt>
      <trkpt lat="41.8244" lon="9.14351">
        <ele>1524.79</ele>
        <time>2012-05-18T15:26:22Z</time>
      </trkpt>
      <trkpt lat="41.82437" lon="9.14347">
        <ele>1524.31</ele>
        <time>2012-05-18T15:26:25Z</time>
      </trkpt>
      <trkpt lat="41.82422" lon="9.14329">
        <ele>1523.35</ele>
        <time>2012-05-18T15:26:39Z</time>
      </trkpt>
      <trkpt lat="41.8242" lon="9.14326">
        <ele>1522.87</ele>
        <time>2012-05-18T15:26:41Z</time>
      </trkpt>
      <trkpt lat="41.82416" lon="9.14322">
        <ele>1522.39</ele>
        <time>2012-05-18T15:26:45Z</time>
      </trkpt>
      <trkpt lat="41.82413" lon="9.14316">
        <ele>1521.42</ele>
        <time>2012-05-18T15:26:49Z</time>
      </trkpt>
      <trkpt lat="41.82397" lon="9.14295">
        <ele>1520.46</ele>
        <time>2012-05-18T15:27:04Z</time>
      </trkpt>
      <trkpt lat="41.82395" lon="9.1429">
        <ele>1519.98</ele>
        <time>2012-05-18T15:27:07Z</time>
      </trkpt>
      <trkpt lat="41.82386" lon="9.14269">
        <ele>1519.98</ele>
        <time>2012-05-18T15:27:19Z</time>
      </trkpt>
      <trkpt lat="41.8238" lon="9.14246">
        <ele>1523.83</ele>
        <time>2012-05-18T15:27:32Z</time>
      </trkpt>
      <trkpt lat="41.8238" lon="9.14239">
        <ele>1524.31</ele>
        <time>2012-05-18T15:27:36Z</time>
      </trkpt>
      <trkpt lat="41.82376" lon="9.14225">
        <ele>1526.23</ele>
        <time>2012-05-18T15:27:44Z</time>
      </trkpt>
      <trkpt lat="41.82372" lon="9.1421">
        <ele>1526.23</ele>
        <time>2012-05-18T15:27:53Z</time>
      </trkpt>
      <trkpt lat="41.82364" lon="9.14197">
        <ele>1526.71</ele>
        <time>2012-05-18T15:28:02Z</time>
      </trkpt>
      <trkpt lat="41.82345" lon="9.14188">
        <ele>1528.63</ele>
        <time>2012-05-18T15:28:17Z</time>
      </trkpt>
      <trkpt lat="41.82334" lon="9.14186">
        <ele>1530.08</ele>
        <time>2012-05-18T15:28:30Z</time>
      </trkpt>
      <trkpt lat="41.82314" lon="9.14185">
        <ele>1528.63</ele>
        <time>2012-05-18T15:28:43Z</time>
      </trkpt>
      <trkpt lat="41.82306" lon="9.14187">
        <ele>1528.15</ele>
        <time>2012-05-18T15:28:50Z</time>
      </trkpt>
      <trkpt lat="41.82284" lon="9.14192">
        <ele>1527.19</ele>
        <time>2012-05-18T15:29:06Z</time>
      </trkpt>
      <trkpt lat="41.82264" lon="9.14192">
        <ele>1526.23</ele>
        <time>2012-05-18T15:29:20Z</time>
      </trkpt>
      <trkpt lat="41.82245" lon="9.14189">
        <ele>1526.23</ele>
        <time>2012-05-18T15:29:32Z</time>
      </trkpt>
      <trkpt lat="41.82224" lon="9.14186">
        <ele>1523.35</ele>
        <time>2012-05-18T15:29:47Z</time>
      </trkpt>
      <trkpt lat="41.82203" lon="9.14178">
        <ele>1522.39</ele>
        <time>2012-05-18T15:30:02Z</time>
      </trkpt>
      <trkpt lat="41.82185" lon="9.14171">
        <ele>1521.42</ele>
        <time>2012-05-18T15:30:16Z</time>
      </trkpt>
      <trkpt lat="41.82183" lon="9.14169">
        <ele>1520.94</ele>
        <time>2012-05-18T15:30:32Z</time>
      </trkpt>
      <trkpt lat="41.82183" lon="9.14169">
        <ele>1520.94</ele>
        <time>2012-05-18T15:30:55Z</time>
      </trkpt>
      <trkpt lat="41.82183" lon="9.14168">
        <ele>1520.46</ele>
        <time>2012-05-18T15:31:09Z</time>
      </trkpt>
      <trkpt lat="41.82184" lon="9.14166">
        <ele>1519.98</ele>
        <time>2012-05-18T15:31:19Z</time>
      </trkpt>
      <trkpt lat="41.82183" lon="9.14169">
        <ele>1517.58</ele>
        <time>2012-05-18T15:31:25Z</time>
      </trkpt>
      <trkpt lat="41.82183" lon="9.14167">
        <ele>1517.58</ele>
        <time>2012-05-18T15:31:34Z</time>
      </trkpt>
      <trkpt lat="41.82183" lon="9.14167">
        <ele>1517.58</ele>
        <time>2012-05-18T15:32:01Z</time>
      </trkpt>
    </trkseg>
  </trk>
</gpx>